[[{"header":{"parameterUnit":"m.s-1","parameterCategory":1,"la1":31.0,"la2":29.5877,"lo1":-88.7671,"lo2":-86.6584,"dy":0.0162,"dx":0.0185,"nx":115,"ny":88,"refTime":"2024-07-24T06:00:00:Z","depth":0,"parameterNumber":2,"parameterNumberName":"U-component_of_WINDS"},"data":[0.0,0.0,0.0,0.0,0.0,0.0,0.0,0.0,0.0,0.0,0.0,0.0,0.0,0.0,0.0,0.0,0.0,0.0,0.0,0.0,0.0,0.0,0.0,0.0,0.0,0.0,0.0,0.0,0.0,0.0,0.0,0.0,0.0,0.0,0.0,0.0,0.0,0.0,0.0,0.0,0.0,0.0,0.0,0.0,0.0,0.0,0.0,0.0,0.0,0.0,0.0,0.0,0.0,0.0,0.0,0.0,0.0,0.0,0.0,0.0,0.0,0.0,0.0,0.0,0.0,0.0,0.0,0.0,0.0,0.0,0.0,0.0,0.0,0.0,0.0,0.0,0.0,0.0,0.0,0.0,0.0,0.0,0.0,0.0,0.0,0.0,0.0,0.0,0.0,0.0,0.0,0.0,0.0,0.0,0.0,0.0,0.0,0.0,0.0,0.0,0.0,0.0,0.0,0.0,0.0,0.0,0.0,0.0,0.0,0.0,0.0,0.0,0.0,0.0,0.0,0.0,0.0,0.0,0.0,0.0,0.0,0.0,0.0,0.0,0.0,0.0,0.0,0.0,0.0,0.0,0.0,0.0,0.0,0.0,0.0,0.0,0.0,0.0,0.0,0.0,0.0,0.0,0.0,0.0,0.0,0.0,0.0,0.0,0.0,0.0,0.0,0.0,0.0,0.0,0.0,0.0,0.0,0.0,0.0,0.0,0.0,0.0,0.0,0.0,0.0,0.0,0.0,0.0,0.0,0.0,0.0,0.0,0.0,0.0,0.0,0.0,0.0,0.0,0.0,0.0,0.0,0.0,0.0,0.0,0.0,0.0,0.0,0.0,0.0,0.0,0.0,0.0,0.0,0.0,0.0,0.0,0.0,0.0,0.0,0.0,0.0,0.0,0.0,0.0,0.0,0.0,0.0,0.0,0.0,0.0,0.0,0.0,0.0,0.0,0.0,0.0,0.0,0.0,0.0,0.0,0.0,0.0,0.0,0.0,0.0,0.0,0.0,0.0,0.0,0.0,0.0,0.0,0.0,0.0,0.0,0.0,0.0,0.0,0.0,0.0,0.0,0.0,0.0,0.0,0.0,0.0,0.0,0.0,0.0,0.0,0.0,0.0,0.0,0.0,0.0,0.0,0.0,0.0,0.0,0.0,0.0,0.0,0.0,0.0,0.0,0.0,0.0,0.0,0.0,0.0,0.0,0.0,0.0,0.0,0.0,0.0,0.0,0.0,0.0,0.0,0.0,0.0,0.0,0.0,0.0,0.0,0.0,0.0,0.0,0.0,0.0,0.0,0.0,0.0,0.0,0.0,0.0,0.0,0.0,0.0,0.0,0.0,0.0,0.0,0.0,0.0,0.0,0.0,0.0,0.0,0.0,0.0,0.0,0.0,0.0,0.0,0.0,0.0,0.0,0.0,0.0,0.0,0.0,0.0,0.0,0.0,0.0,0.0,0.0,0.0,0.0,0.0,0.0,0.0,0.0,0.0,0.0,0.0,0.0,0.0,0.0,0.0,0.0,0.0,0.0,0.0,0.0,0.0,0.0,0.0,0.0,0.0,0.0,0.0,0.0,0.0,0.0,0.0,0.0,0.0,0.0,0.0,0.0,0.0,0.0,0.0,0.0,0.0,0.0,0.0,0.0,0.0,0.0,0.0,0.0,0.0,0.0,0.0,0.0,0.0,0.0,0.0,0.0,0.0,0.0,0.0,0.0,0.0,0.0,0.0,0.0,0.0,0.0,0.0,0.0,0.0,0.0,0.0,0.0,0.0,0.0,0.0,0.0,0.0,0.0,0.0,0.0,0.0,0.0,0.0,0.0,0.0,0.0,0.0,0.0,0.0,0.0,0.0,0.0,0.0,0.0,0.0,0.0,0.0,0.0,0.0,0.0,0.0,0.0,0.0,0.0,0.0,0.0,0.0,0.0,0.0,0.0,0.0,0.0,0.0,0.0,0.0,0.0,0.0,0.0,0.0,0.0,0.0,0.0,0.0,0.0,0.0,0.0,0.0,0.0,0.0,0.0,0.0,0.0,0.0,0.0,0.0,0.0,0.0,0.0,0.0,0.0,0.0,0.0,0.0,0.0,0.0,0.0,0.0,0.0,0.0,0.0,0.0,0.0,0.0,0.0,0.0,0.0,0.0,0.0,0.0,0.0,0.0,0.0,0.0,0.0,0.0,0.0,0.0,0.0,0.0,0.0,0.0,0.0,0.0,0.0,0.0,0.0,0.0,0.0,0.0,0.0,0.0,0.0,0.0,0.0,0.0,0.0,0.0,0.0,0.0,0.0,0.0,0.0,0.0,0.0,0.0,0.0,0.0,0.0,0.0,0.0,0.0,0.0,0.0,0.0,0.0,0.0,0.0,0.0,0.0,0.0,0.0,0.0,0.0,0.0,0.0,0.0,0.0,0.0,0.0,0.0,0.0,0.0,0.0,0.0,0.0,0.0,0.0,0.0,0.0,0.0,0.0,0.0,0.0,0.0,0.0,0.0,0.0,0.0,0.0,0.0,0.0,0.0,0.0,0.0,0.0,0.0,0.0,0.0,0.0,0.0,0.0,0.0,0.0,0.0,0.0,0.0,0.0,0.0,0.0,0.0,0.0,0.0,0.0,0.0,0.0,0.0,0.0,0.0,0.0,0.0,0.0,0.0,0.0,0.0,0.0,0.0,0.0,0.0,0.0,0.0,0.0,0.0,0.0,0.0,0.0,0.0,0.0,0.0,0.0,0.0,0.0,0.0,0.0,0.0,0.0,0.0,0.0,0.0,0.0,0.0,0.0,0.0,0.0,0.0,0.0,0.0,0.0,0.0,0.0,0.0,0.0,0.0,0.0,0.0,0.0,0.0,0.0,0.0,0.0,0.0,0.0,0.0,0.0,0.0,0.0,0.0,0.0,0.0,0.0,0.0,0.0,0.0,0.0,0.0,0.0,0.0,0.0,0.0,0.0,0.0,0.0,0.0,0.0,0.0,0.0,0.0,0.0,0.0,0.0,0.0,0.0,0.0,0.0,0.0,0.0,0.0,0.0,0.0,0.0,0.0,0.0,0.0,0.0,0.0,0.0,0.0,0.0,0.0,0.0,0.0,0.0,0.0,0.0,0.0,0.0,0.0,0.0,0.0,0.0,0.0,0.0,0.0,0.0,0.0,0.0,0.0,0.0,0.0,0.0,0.0,0.0,0.0,0.0,0.0,0.0,0.0,0.0,0.0,0.0,0.0,0.0,0.0,0.0,0.0,0.0,0.0,0.0,0.0,0.0,0.0,0.0,0.0,0.0,0.0,0.0,0.0,0.0,0.0,0.0,0.0,0.0,0.0,0.0,0.0,0.0,0.0,0.0,0.0,0.0,0.0,0.0,0.0,0.0,0.0,0.0,0.0,0.0,0.0,0.0,0.0,0.0,0.0,0.0,0.0,0.0,0.0,0.0,0.0,0.0,0.0,0.0,0.0,0.0,0.0,0.0,0.0,0.0,0.0,0.0,0.0,0.0,0.0,0.0,0.0,0.0,0.0,0.0,0.0,0.0,0.0,0.0,0.0,0.0,0.0,0.0,0.0,0.0,0.0,0.0,0.0,0.0,0.0,0.0,0.0,0.0,0.0,0.0,0.0,0.0,0.0,0.0,0.0,0.0,0.0,0.0,0.0,0.0,0.0,0.0,0.0,0.0,0.0,0.0,0.0,0.0,0.0,0.0,0.0,0.0,0.0,0.0,0.0,0.0,0.0,0.0,0.0,0.0,0.0,0.0,0.0,0.0,0.0,0.0,0.0,0.0,0.0,0.0,0.0,0.0,0.0,0.0,0.0,0.0,0.0,0.0,0.0,0.0,0.0,0.0,0.0,0.0,0.0,0.0,0.0,0.0,0.0,0.0,0.0,0.0,0.0,0.0,0.0,0.0,0.0,0.0,0.0,0.0,0.0,0.0,0.0,0.0,0.0,0.0,0.0,0.0,0.0,0.0,0.0,0.0,0.0,0.0,0.0,0.0,0.0,0.0,0.0,0.0,0.0,0.0,0.0,0.0,0.0,0.0,0.0,0.0,0.0,0.0,0.0,0.0,0.0,0.0,0.0,0.0,0.0,0.0,0.0,0.0,0.0,0.0,0.0,0.0,0.0,0.0,0.0,0.0,0.0,0.0,0.0,0.0,0.0,0.0,0.0,0.0,0.0,0.0,0.0,0.0,0.0,0.0,0.0,0.0,0.0,0.0,0.0,0.0,0.0,0.0,0.0,0.0,0.0,0.0,0.0,0.0,0.0,0.0,0.0,0.0,0.0,0.0,0.5714,0.0,0.0,0.0,0.0,0.0,0.0,0.0,0.0,0.0,0.0,0.0,0.0,0.0,0.0,0.0,0.0,0.0,0.0,0.0,0.0,0.0,0.0,0.0,0.0,0.0,0.0,0.0,0.0,0.0,0.0,0.0,0.0,0.0,0.0,0.0,0.0,0.0,0.0,0.0,0.0,0.0,0.0,0.0,0.0,0.0,0.0,0.0,0.0,0.0,0.0,0.0,0.0,0.0,0.0,0.0,0.0,0.0,0.0,0.0,0.0,0.0,0.0,0.0,0.0,0.0,0.0,0.0,0.0,0.0,0.0,0.0,0.0,0.0,0.0,0.0,0.0,0.0,0.0,0.0,0.0,0.0,0.0,0.0,0.0,0.0,0.0,0.0,0.0,0.0,0.0,0.0,0.0,0.0,0.0,0.0,0.0,0.0,0.0,0.0,0.0,0.0,0.0,0.0,0.0,0.0,0.0,0.0,0.0,0.0,0.0,0.6646,0.6618,0.6438,0.6267,0.6063,0.0,0.0,0.0,0.0,0.0,0.0,0.0,0.0,0.0,0.0,0.0,0.0,0.0,0.0,0.0,0.0,0.0,0.0,0.0,0.0,0.0,0.0,0.0,0.0,0.0,0.0,0.0,0.0,0.0,0.0,0.0,0.0,0.0,0.0,0.0,0.0,0.0,0.0,0.0,0.0,0.0,0.0,0.0,0.0,0.0,0.0,0.0,0.0,0.0,0.0,0.0,0.0,0.0,0.0,0.0,0.0,0.0,0.0,0.0,0.0,0.0,0.0,0.0,0.0,0.0,0.0,0.0,0.0,0.0,0.0,0.0,0.0,0.0,0.0,0.0,0.0,0.0,0.0,0.0,0.0,0.0,0.0,0.0,0.0,0.0,0.0,0.0,0.0,0.0,0.0,0.0,0.0,0.0,0.0,0.0,0.0,0.0,0.0,0.0,0.0,0.0,0.0,0.0,0.0,0.0,0.0,0.0,0.0,0.0,0.0,0.0,0.0,0.6848,0.6605,0.6184,0.0,0.0,0.0,0.0,0.0,0.0,0.0,0.0,0.0,0.0,0.0,0.0,0.0,0.0,0.0,0.0,0.0,0.0,0.0,0.0,0.0,0.0,0.0,0.0,0.0,0.0,0.0,0.0,0.0,0.0,0.0,0.0,0.0,0.0,0.0,0.0,0.0,0.0,0.0,0.0,0.0,0.0,0.0,0.0,0.0,0.0,0.0,0.0,0.0,0.0,0.0,0.0,0.0,0.0,0.0,0.0,0.0,0.0,0.0,0.0,0.0,0.0,0.0,0.0,0.0,0.0,0.0,0.0,0.0,0.0,0.0,0.0,0.0,0.0,0.0,0.0,0.0,0.0,0.0,0.0,0.0,0.0,0.0,0.0,0.0,0.0,0.0,0.0,0.0,0.0,0.0,0.0,0.0,0.0,0.0,0.0,0.0,0.0,0.0,0.0,0.0,0.0,0.0,0.0,0.0,0.0,0.0,0.0,0.0,0.0,0.6947,0.7227,0.6967,0.0,0.5878,0.0,0.0,0.0,0.0,0.0,0.0,0.0,0.0,0.0,0.0,0.0,0.0,0.0,0.0,0.0,0.0,0.0,0.0,0.0,0.0,0.0,0.0,0.0,0.0,0.0,0.0,0.0,0.0,0.0,0.0,0.0,0.0,0.0,0.0,0.0,0.0,0.0,0.0,0.0,0.0,0.0,0.0,0.0,0.0,0.0,0.0,0.0,0.0,0.0,0.0,0.0,0.0,0.0,0.0,0.0,0.0,0.0,0.0,0.0,0.0,0.0,0.0,0.0,0.0,0.0,0.0,0.0,0.0,0.0,0.0,0.0,0.0,0.0,0.0,0.0,0.0,0.0,0.0,0.0,0.0,0.0,0.0,0.0,0.0,0.0,0.0,0.0,0.0,0.0,0.0,0.0,0.0,0.0,0.0,0.0,0.0,0.0,0.0,0.0,0.0,0.0,0.0,0.0,0.0,0.0,0.0,0.0,0.0,0.0,0.0,0.7403,0.7533,0.6937,0.6392,0.0,0.0,0.0,0.0,0.0,0.0,0.0,0.0,0.0,0.0,0.0,0.0,0.0,0.0,0.0,0.0,0.0,0.0,0.0,0.0,0.0,0.0,0.0,0.0,0.0,0.0,0.0,0.0,0.0,0.0,0.0,0.0,0.0,0.0,0.0,0.0,0.0,0.0,0.0,0.0,0.0,0.0,0.0,0.0,0.0,0.0,0.0,0.0,0.0,0.0,0.0,0.0,0.0,0.0,0.0,0.0,0.0,0.0,0.0,0.0,0.0,0.0,0.0,0.0,0.0,0.0,0.0,0.0,0.0,0.0,0.0,0.0,0.0,0.0,0.0,0.0,0.0,0.0,0.0,0.0,0.0,0.0,0.0,0.0,0.0,0.0,0.0,0.0,0.0,0.0,0.0,0.0,0.0,0.0,0.0,0.0,0.0,0.0,0.0,0.0,0.0,0.0,0.0,0.0,0.0,0.0,0.0,0.0,0.0,0.0,0.7524,0.7594,0.7482,0.6947,0.6434,0.6005,0.0,0.0,0.0,0.0,0.0,0.0,0.0,0.0,0.0,0.0,0.0,0.0,0.0,0.0,0.0,0.0,0.0,0.0,0.0,0.0,0.0,0.0,0.0,0.0,0.0,0.0,0.0,0.0,0.0,0.0,0.0,0.0,0.0,0.0,0.0,0.0,0.0,0.0,0.0,0.0,0.0,0.0,0.0,0.0,0.0,0.0,0.0,0.0,0.0,0.0,0.0,0.0,0.0,0.0,0.0,0.0,0.0,0.0,0.0,0.0,0.0,0.0,0.0,0.0,0.0,0.0,0.0,0.0,0.0,0.0,0.0,0.0,0.0,0.0,0.0,0.0,0.0,0.0,0.0,0.0,0.0,0.0,0.0,0.0,0.0,0.0,0.0,0.0,0.0,0.0,0.0,0.0,0.0,0.0,0.0,0.0,0.0,0.0,0.0,0.0,0.0,0.0,0.0,0.0,0.0,0.0,0.0,0.0,0.0,0.7406,0.7357,0.7057,0.6992,0.6674,0.0,0.0,0.0,0.0,0.0,0.0,0.0,0.0,0.0,0.0,0.0,0.0,0.0,0.0,0.0,0.0,0.0,0.0,0.0,0.0,0.0,0.0,0.0,0.0,0.0,0.0,0.0,0.0,0.0,0.0,0.0,0.0,0.0,0.0,0.0,0.0,0.0,0.0,0.0,0.0,0.0,0.0,0.0,0.0,0.0,0.0,0.0,0.0,0.0,0.0,0.0,0.0,0.0,0.0,0.0,0.0,0.0,0.0,0.0,0.0,0.0,0.0,0.0,0.0,0.0,0.0,0.0,0.0,0.0,0.0,0.0,0.0,0.0,0.0,0.0,0.0,0.0,0.0,0.0,0.0,0.0,0.0,0.0,0.0,0.0,0.0,0.0,0.0,0.0,0.0,0.0,0.0,0.0,0.0,0.0,0.0,0.0,0.0,0.0,0.0,0.0,0.0,0.0,0.0,0.0,0.0,0.0,0.0,0.0,0.7099,0.7436,0.743,0.7082,0.6848,0.6531,0.0,0.0,0.0,0.0,0.0,0.0,0.0,0.0,0.0,0.0,0.0,0.0,0.0,0.0,0.0,0.0,0.0,0.0,0.0,0.0,0.0,0.0,0.0,0.0,0.0,0.0,0.0,0.0,0.0,0.0,0.0,0.0,0.0,0.0,0.0,0.0,0.0,0.0,0.0,0.0,0.0,0.0,0.0,0.0,0.0,0.0,0.0,0.0,0.0,0.0,0.0,0.0,0.0,0.0,0.0,0.0,0.0,0.0,0.0,0.0,0.0,0.0,0.0,0.0,0.0,0.0,0.0,0.0,0.0,0.0,0.0,0.0,0.0,0.0,0.0,0.0,0.0,0.0,0.0,0.0,0.0,0.0,0.0,0.0,0.0,0.0,0.0,0.0,0.0,0.0,0.0,0.0,0.0,0.0,0.0,0.0,0.0,0.0,0.0,0.0,0.0,0.0,0.0,0.0,0.0,0.0,0.0,0.0,0.0,0.7167,0.0,0.7415,0.0,0.6722,0.6421,0.0,0.0,0.0,0.0,0.0,0.0,0.0,0.0,0.0,0.0,0.0,0.0,0.0,0.0,0.0,0.0,0.0,0.0,0.0,0.0,0.0,0.0,0.0,0.0,0.0,0.0,0.0,0.0,0.0,0.0,0.0,0.0,0.0,0.0,0.0,0.0,0.0,0.0,0.0,0.0,0.0,0.0,0.0,0.0,0.0,0.0,0.0,0.0,0.0,0.0,0.0,0.0,0.0,0.0,0.0,0.0,0.0,0.0,0.0,0.0,0.0,0.0,0.0,0.0,0.0,0.0,0.0,0.0,0.0,0.0,0.0,0.0,0.0,0.0,0.0,0.0,0.0,0.0,0.0,0.0,0.0,0.0,0.0,0.0,0.0,0.0,0.0,0.0,0.0,0.0,0.0,0.0,0.0,0.0,0.0,0.0,0.0,0.0,0.0,0.0,0.0,0.0,0.0,0.0,0.0,0.0,0.0,0.0,0.7152,0.7456,0.7419,0.7227,0.6922,0.664,0.6331,0.0,0.0,0.0,0.0,0.0,0.0,0.0,0.0,0.0,0.0,0.0,0.0,0.0,0.0,0.0,0.0,0.0,0.0,0.0,0.0,0.0,0.0,0.0,0.0,0.0,0.0,0.0,0.0,0.0,0.0,0.0,0.0,0.0,0.0,0.0,0.0,0.0,0.0,0.0,0.0,0.0,0.0,0.0,0.0,0.0,0.0,0.0,0.0,0.0,0.0,0.0,0.0,0.0,0.0,0.0,0.0,0.0,0.0,0.0,0.0,0.0,0.0,0.0,0.0,0.0,0.0,0.0,0.0,0.0,0.0,0.0,0.0,0.0,0.0,0.0,0.0,0.0,0.0,0.0,0.0,0.0,0.0,0.0,0.0,0.0,0.0,0.0,0.0,0.0,0.0,0.0,0.0,0.0,0.0,0.0,0.0,0.0,0.0,0.0,0.0,0.0,0.0,0.0,0.0,0.0,0.0,0.0,0.0,0.0,0.7154,0.7223,0.7186,0.696,0.6577,0.632,0.0,0.0,0.0,0.0,0.0,0.0,0.0,0.0,0.0,0.0,0.0,0.0,0.0,0.0,0.0,0.0,0.0,0.0,0.0,0.0,0.0,0.0,0.0,0.0,0.0,0.0,0.0,0.0,0.0,0.0,0.0,0.0,0.0,0.0,0.0,0.0,0.0,0.0,0.0,0.0,0.0,0.0,0.0,0.0,0.0,0.0,0.0,0.0,0.0,0.0,0.0,0.0,0.0,0.0,0.0,0.0,0.0,0.0,0.0,0.0,0.0,0.0,0.0,0.0,0.0,0.0,0.0,0.0,0.0,0.0,0.0,0.0,0.0,0.0,0.0,0.0,0.0,0.0,0.0,0.0,0.0,0.0,0.0,0.0,0.0,0.0,0.0,0.0,0.0,0.0,0.0,0.0,0.0,0.0,0.0,0.0,0.0,0.0,0.0,0.0,0.0,0.0,0.0,0.0,0.0,0.0,0.0,0.0,0.0,0.6898,0.702,0.7059,0.6971,0.6593,0.637,0.6244,0.0,0.0,0.0,0.0,0.0,0.0,0.0,0.0,0.0,0.0,0.0,0.0,0.0,0.0,0.0,0.0,0.0,0.0,0.0,0.0,0.0,0.0,0.0,0.0,0.0,0.0,0.0,0.0,0.0,0.0,0.0,0.0,0.0,0.0,0.0,0.0,0.0,0.0,0.0,0.0,0.0,0.0,0.0,0.0,0.0,0.0,0.0,0.0,0.0,0.0,0.0,0.0,0.0,0.0,0.0,0.0,0.0,0.0,0.0,0.0,0.0,0.0,0.0,0.0,0.0,0.0,0.0,0.0,0.0,0.0,0.0,0.0,0.0,0.0,0.0,0.0,0.0,0.0,0.0,0.0,0.0,0.0,0.0,0.0,0.0,0.0,0.0,0.0,0.0,0.0,0.0,0.0,0.0,0.0,0.0,0.0,0.0,0.0,0.0,0.0,0.0,0.0,0.0,0.0,0.0,0.0,0.0,0.0,0.6715,0.6836,0.6896,0.6872,0.6706,0.6476,0.0,0.0,0.0,0.0,0.0,0.0,0.0,0.0,0.0,0.0,0.0,0.0,0.0,0.0,0.0,0.0,0.0,0.0,0.0,0.0,0.0,0.0,0.0,0.0,0.0,0.0,0.0,0.0,0.0,0.0,0.0,0.0,0.0,0.0,0.0,0.0,0.0,0.0,0.0,0.0,0.0,0.0,0.0,0.0,0.0,0.0,0.0,0.0,0.0,0.0,0.0,0.0,0.0,0.0,0.0,0.0,0.0,0.0,0.0,0.0,0.0,0.0,0.0,0.0,0.0,0.0,0.0,0.0,0.0,0.0,0.0,0.0,0.0,0.0,0.0,0.0,0.0,0.0,0.0,0.0,0.0,0.0,0.0,0.0,0.0,0.0,0.0,0.0,0.0,0.0,0.0,0.0,0.0,0.0,0.0,0.0,0.0,0.0,0.0,0.0,0.0,0.0,0.0,0.0,0.0,0.0,0.0,0.0,0.0,0.6715,0.6733,0.6751,0.6745,0.6649,0.6472,0.0,0.0,0.0,0.0,0.0,0.0,0.0,0.0,0.0,0.0,0.0,0.0,0.0,0.0,0.0,0.0,0.0,0.0,0.0,0.0,0.0,0.0,0.0,0.0,0.0,0.0,0.0,0.0,0.0,0.0,0.0,0.0,0.0,0.0,0.0,0.0,0.0,0.0,0.0,0.0,0.0,0.0,0.0,0.0,0.0,0.0,0.0,0.0,0.0,0.0,0.0,0.0,0.0,0.0,0.0,0.0,0.0,0.0,0.0,0.0,0.0,0.0,0.0,0.0,0.0,0.0,0.0,0.0,0.0,0.0,0.0,0.0,0.0,0.0,0.0,0.0,0.0,0.0,0.0,0.0,0.0,0.0,0.0,0.0,0.0,0.0,0.0,0.0,0.0,0.0,0.0,0.0,0.0,0.0,0.0,0.0,0.0,0.0,0.0,0.0,0.0,0.0,0.0,0.0,0.0,0.0,0.0,0.0,0.6886,0.6775,0.6775,0.6793,0.6775,0.6771,0.658,0.0,0.0,0.0,0.0,0.0,0.0,0.0,0.0,0.0,0.0,0.0,0.0,0.0,0.0,0.0,0.0,0.0,0.0,0.0,0.0,0.0,0.0,0.0,0.0,0.0,0.0,0.0,0.0,0.0,0.0,0.0,0.0,0.0,0.0,0.0,0.0,0.0,0.0,0.0,0.0,0.0,0.0,0.0,0.0,0.0,0.0,0.0,0.0,0.0,0.0,0.0,0.0,0.0,0.0,0.0,0.0,0.0,0.0,0.0,0.0,0.0,0.0,0.0,0.0,0.0,0.0,0.0,0.0,0.0,0.0,0.0,0.0,0.0,0.0,0.0,0.0,0.0,0.0,0.0,0.0,0.0,0.0,0.0,0.0,0.0,0.0,0.0,0.0,0.0,0.0,0.0,0.0,0.0,0.0,0.0,0.0,0.0,0.0,0.0,0.0,0.0,0.0,0.0,0.0,0.0,0.0,0.0,0.0,0.7017,0.6942,0.6965,0.6989,0.6935,0.6984,0.6767,0.0,0.0,0.0,0.0,0.0,0.0,0.0,0.0,0.0,0.0,0.0,0.0,0.0,0.0,0.0,0.0,0.0,0.0,0.0,0.0,0.0,0.0,0.0,0.0,0.0,0.0,0.0,0.0,0.0,0.0,0.0,0.0,0.0,0.0,0.0,0.0,0.0,0.0,0.0,0.0,0.0,0.0,0.0,0.0,0.0,0.0,0.0,0.0,0.0,0.0,0.0,0.0,0.0,0.0,0.0,0.0,0.0,0.0,0.0,0.0,0.0,0.0,0.0,0.0,0.0,0.0,0.0,0.0,0.0,0.0,0.0,0.0,0.0,0.0,0.0,0.0,0.0,0.0,0.0,0.0,0.0,0.0,0.0,0.0,0.0,0.0,0.0,0.0,0.0,0.0,0.0,0.0,0.0,0.0,0.0,0.0,0.0,0.0,0.0,0.0,0.0,0.0,0.0,0.0,0.0,0.0,0.0,0.0,0.7223,0.7204,0.7426,0.7406,0.7233,0.7087,0.686,0.0,0.0,0.0,0.0,0.0,0.0,0.0,0.0,0.0,0.0,0.0,0.0,0.0,0.0,0.0,0.0,0.0,0.0,0.0,0.0,0.0,0.0,0.0,0.0,0.0,0.0,0.0,0.0,0.0,0.0,0.0,0.0,0.0,0.0,0.0,0.0,0.0,0.0,0.0,0.0,0.0,0.0,0.0,0.0,0.0,0.0,0.0,0.0,0.9403,0.0,0.0,0.0,0.0,0.0,0.0,0.0,0.0,0.0,0.0,0.0,0.0,0.0,0.0,0.0,0.0,0.0,0.0,0.0,0.0,0.0,0.0,0.0,0.0,0.0,0.0,0.0,0.0,0.0,0.0,0.0,0.0,0.0,0.0,0.0,0.0,0.0,0.0,0.0,0.0,0.0,0.0,0.0,0.0,0.0,0.0,0.0,0.0,0.0,0.0,0.0,0.0,0.0,0.0,0.0,0.0,0.0,0.0,0.0,0.7449,0.7456,0.7672,0.7686,0.744,0.734,0.7101,0.0,0.0,0.0,0.0,0.0,0.0,0.0,0.0,0.0,0.0,0.0,0.0,0.0,0.0,0.0,0.0,0.0,0.0,0.0,0.0,0.0,0.0,0.0,0.0,0.0,0.0,0.0,0.0,0.0,0.0,0.0,0.0,0.0,0.0,0.0,0.0,0.0,0.0,0.0,0.0,0.0,0.0,0.0,0.0,0.0,0.0,0.0,0.0,0.0,0.0,0.0,0.0,0.0,0.0,0.0,0.0,0.0,0.0,0.0,0.0,0.0,0.0,0.0,0.0,0.0,0.0,0.0,0.0,0.0,0.0,0.0,0.0,0.0,0.0,0.0,0.0,0.0,0.0,0.0,0.0,0.0,0.0,0.0,0.0,0.0,0.0,0.0,0.0,0.0,0.0,0.0,0.0,0.0,0.0,0.0,0.0,0.0,0.0,0.0,0.0,0.0,0.0,0.0,0.0,0.0,0.0,0.0,0.7654,0.7703,0.7713,0.7957,0.797,0.772,0.7703,0.7467,0.6917,0.0,0.0,0.0,0.0,0.0,0.0,0.0,0.0,0.0,0.0,0.0,0.0,0.0,0.0,0.0,0.0,0.0,0.0,0.0,0.0,0.0,0.0,0.0,0.0,0.0,0.0,0.0,0.0,0.0,0.0,0.0,0.0,0.0,0.0,0.0,0.0,0.0,0.0,0.7657,0.8285,0.0,0.0,0.0,0.0,0.0,0.0,0.0,0.0,0.9953,0.0,0.0,0.0,0.0,0.0,0.0,0.0,0.0,0.0,0.0,0.0,0.0,0.0,0.0,0.0,0.0,0.0,0.0,0.0,0.0,0.0,0.0,0.0,0.0,0.0,0.0,0.0,0.0,0.0,0.0,0.0,0.0,0.0,0.0,0.0,0.0,0.0,0.0,0.0,0.0,0.0,0.0,0.0,0.0,0.0,0.0,0.0,0.0,0.0,0.0,0.0,0.0,0.0,0.0,0.0,0.0,0.7663,0.802,0.819,0.8181,0.8724,0.8741,0.8202,0.8171,0.7946,0.7411,0.0,0.0,0.0,0.0,0.0,0.0,0.0,0.0,0.0,0.0,0.0,0.0,0.0,0.0,0.0,0.0,0.0,0.0,0.0,0.0,0.0,0.0,0.0,0.0,0.0,0.0,0.0,0.0,0.0,0.0,0.0,0.0,0.0,0.0,0.0,0.0,0.0,0.0,0.0,0.8335,0.8704,0.0,0.0,0.0,0.0,0.0,0.0,0.0,0.0,1.0776,0.0,0.0,0.0,0.0,0.0,0.0,0.0,0.0,0.0,0.0,0.0,0.0,0.0,0.0,0.0,0.0,0.0,0.0,0.0,0.0,0.0,0.0,0.0,0.0,0.0,0.0,0.0,0.0,0.0,0.0,0.0,0.0,0.0,0.0,0.0,0.0,0.0,0.0,0.0,0.0,0.0,0.0,0.0,0.0,0.0,0.0,0.0,0.0,0.0,0.0,0.0,0.0,0.0,0.0,0.0,0.7791,0.8235,0.8432,0.8416,0.876,0.8774,0.8419,0.8233,0.7999,0.0,0.0,0.0,0.0,0.0,0.0,0.0,0.0,0.0,0.0,0.0,0.0,0.0,0.0,0.0,0.0,0.0,0.0,0.0,0.0,0.0,0.0,0.0,0.0,0.0,0.0,0.0,0.0,0.0,0.0,0.0,0.0,0.0,0.0,0.0,0.0,0.0,0.0,0.0,0.0,0.8515,0.8958,0.9431,0.0,0.0,0.0,0.0,0.0,0.0,1.1244,1.1203,0.0,0.0,0.0,0.0,0.0,0.0,0.0,0.0,0.0,0.0,0.0,0.0,0.0,0.0,0.0,0.0,0.0,0.0,0.0,0.0,0.0,0.0,0.0,0.0,0.0,0.0,0.0,0.0,0.0,0.0,0.0,0.0,0.0,0.0,0.0,0.0,0.0,0.0,0.0,0.0,0.0,0.0,0.0,0.0,0.0,0.0,0.0,0.0,0.0,0.0,0.0,0.0,0.0,0.0,0.0,0.7953,0.8416,0.8623,0.8557,0.8717,0.8728,0.856,0.8212,0.8005,0.0,0.0,0.0,0.0,0.0,0.0,0.0,0.0,0.0,0.0,0.0,0.0,0.0,0.0,0.0,0.0,0.0,0.0,0.0,0.0,0.0,0.0,0.0,0.0,0.0,0.0,0.0,0.0,0.0,0.0,0.0,0.0,0.0,0.0,0.0,0.0,0.0,0.0,0.0,0.0,0.0,0.917,0.9346,0.9783,0.0,0.0,0.0,0.0,1.1742,1.1611,0.0,0.0,0.0,0.0,0.0,0.0,0.0,0.0,0.0,0.0,0.0,0.0,0.0,0.0,0.0,0.0,0.0,0.0,0.0,0.0,0.0,0.0,0.0,0.0,0.0,0.0,0.0,0.0,0.0,0.0,0.0,0.0,0.0,0.0,0.0,0.0,0.0,0.0,0.0,0.0,0.0,0.0,0.0,0.0,0.0,0.0,0.0,0.0,0.0,0.0,0.0,0.0,0.0,0.0,0.0,0.0,0.8143,0.8592,0.8764,0.8778,0.9016,0.8993,0.8696,0.8351,0.8084,0.0,0.0,0.0,0.0,0.0,0.0,0.0,0.0,0.0,0.0,0.0,0.0,0.0,0.0,0.0,0.0,0.0,0.0,0.0,0.0,0.0,0.0,0.0,0.0,0.0,0.0,0.0,0.0,0.0,0.0,0.0,0.0,0.0,0.0,0.0,0.0,0.0,0.0,0.0,0.0,0.0,0.9047,0.9887,1.0148,1.0449,0.0,0.0,1.1331,1.1509,1.1619,0.0,0.0,0.0,0.0,0.0,0.0,0.0,0.0,0.0,0.0,0.0,0.0,0.0,0.0,0.0,0.0,0.0,0.0,0.0,0.0,0.0,0.0,0.0,0.0,0.0,0.0,0.0,0.0,0.0,0.0,0.0,0.0,0.0,0.0,0.0,0.0,0.0,0.0,0.0,0.0,0.0,0.0,0.0,0.0,0.0,0.0,0.0,0.0,0.0,0.0,0.0,0.0,0.0,0.0,0.0,0.7523,0.8082,0.844,0.8573,0.8475,0.8572,0.8553,0.844,0.8096,0.7935,0.0,0.0,0.0,0.0,0.0,0.0,0.0,0.0,0.0,0.0,0.0,0.0,0.0,0.0,0.0,0.0,0.0,0.0,0.0,0.0,0.0,0.0,0.0,0.0,0.0,0.0,0.0,0.0,0.0,0.0,0.0,0.0,0.0,0.0,0.0,0.0,0.0,0.0,0.0,0.0,0.0,0.0,0.964,0.9983,0.0,0.0,0.0,1.156,1.1997,0.0,0.0,0.0,0.0,0.0,0.0,0.0,0.0,0.0,0.0,0.0,0.0,0.0,0.0,0.0,0.0,0.0,0.0,0.0,0.0,0.0,0.0,0.0,0.0,0.0,0.0,0.0,0.0,0.0,0.0,0.0,0.0,0.0,0.0,0.0,0.0,0.0,0.0,0.0,0.0,0.0,0.0,0.0,0.0,0.0,0.0,0.0,0.0,0.0,0.0,0.0,0.0,0.0,0.0,0.0,0.0,0.0,0.8062,0.8353,0.8422,0.8265,0.8202,0.8202,0.8194,0.7859,0.0,0.0,0.0,0.0,0.0,0.0,0.0,0.0,0.0,0.0,0.0,0.0,0.0,0.0,0.0,0.0,0.0,0.0,0.0,0.0,0.0,0.0,0.0,0.0,0.0,0.0,0.0,0.5612,0.0,0.0,0.0,0.0,0.0,0.0,0.0,0.0,0.0,0.0,0.0,0.0,0.0,0.0,0.9459,0.9609,0.9955,1.0451,0.0,0.0,1.1765,1.2334,1.233,1.2307,0.0,0.0,0.0,0.0,0.0,0.0,0.0,0.0,0.0,0.0,0.0,0.0,0.0,0.0,0.0,0.0,0.0,0.0,0.0,0.0,0.0,0.0,0.0,0.0,0.0,0.0,0.0,0.0,0.0,0.0,0.0,0.0,0.0,0.0,0.0,0.0,0.0,0.0,0.0,0.0,0.0,0.0,0.0,0.0,0.0,0.0,0.0,0.0,0.0,0.0,0.0,0.0,0.0,0.0,0.0,0.8184,0.8382,0.8466,0.8389,0.8265,0.8202,0.8191,0.7887,0.761,0.0,0.0,0.0,0.0,0.0,0.0,0.0,0.0,0.0,0.0,0.0,0.0,0.0,0.0,0.0,0.0,0.0,0.0,0.0,0.0,0.0,0.0,0.0,0.0,0.0,0.0,0.0,0.0,0.0,0.0,0.0,0.0,0.0,0.0,0.0,0.0,0.0,0.0,0.0,0.0,0.0,0.9324,1.0126,1.0384,1.0659,0.0,0.0,1.1925,1.2096,1.2334,1.2445,1.2416,0.0,0.0,0.0,0.0,0.0,0.0,0.0,0.0,0.0,0.0,0.0,0.0,0.0,0.0,0.0,0.0,0.0,0.0,0.0,0.0,0.0,0.0,0.0,0.0,0.0,0.0,0.0,0.0,0.0,0.0,0.0,0.0,0.0,0.0,0.0,0.0,0.0,0.0,0.0,0.0,0.0,0.0,0.0,0.0,0.0,0.0,0.0,0.0,0.0,0.0,0.0,0.0,0.0,0.7759,0.807,0.8116,0.8078,0.7983,0.7923,0.7905,0.7902,0.7781,0.7599,0.0,0.0,0.0,0.0,0.0,0.0,0.0,0.0,0.0,0.0,0.0,0.0,0.0,0.0,0.0,0.0,0.0,0.0,0.0,0.0,0.0,0.0,0.0,0.0,0.0,0.0,0.0,0.0,0.6124,0.6645,0.7386,0.0,0.0,0.0,0.0,0.0,0.0,0.0,0.0,0.0,0.0,0.9746,0.9898,1.0385,0.0,0.0,1.1573,1.1877,1.218,1.2372,1.2545,1.268,1.2878,0.0,0.0,0.0,0.0,0.0,0.0,0.0,0.0,0.0,0.0,0.0,0.0,0.0,0.0,0.0,0.0,0.0,0.0,0.0,0.0,0.0,0.0,0.0,0.0,0.0,0.0,0.0,0.0,0.0,0.0,0.0,0.0,0.0,0.0,0.0,0.0,0.0,0.0,0.0,0.0,0.0,0.0,0.0,0.0,0.0,0.0,0.0,0.0,0.0,0.0,0.0,0.0,0.7739,0.7959,0.7874,0.7791,0.7694,0.767,0.7645,0.7645,0.7645,0.7534,0.0,0.0,0.0,0.0,0.0,0.0,0.0,0.0,0.0,0.0,0.0,0.0,0.0,0.0,0.0,0.0,0.0,0.0,0.0,0.0,0.0,0.0,0.0,0.0,0.0,0.0,0.0,0.0,0.6292,0.6894,0.7536,0.0,0.0,0.0,0.0,0.0,0.0,0.0,0.0,0.0,0.0,0.999,0.9999,1.0505,1.0972,1.1272,1.1594,1.1902,1.22,1.2421,1.2627,1.2876,0.0,0.0,0.0,0.0,0.0,0.0,0.0,0.0,0.0,0.0,0.0,0.0,0.0,0.0,0.0,0.0,0.0,0.0,0.0,0.0,0.0,0.0,0.0,0.0,0.0,0.0,0.0,0.0,0.0,0.0,0.3649,0.0,0.0,0.0,0.0,0.0,0.0,0.0,0.0,0.0,0.0,0.0,0.0,0.0,0.0,0.0,0.0,0.0,0.0,0.0,0.0,0.0,0.0,0.7884,0.7902,0.7789,0.7702,0.7698,0.7576,0.751,0.7502,0.7502,0.7312,0.6908,0.0,0.0,0.0,0.0,0.0,0.0,0.0,0.0,0.0,0.0,0.0,0.0,0.0,0.0,0.0,0.0,0.0,0.0,0.0,0.0,0.0,0.0,0.0,0.0,0.0,0.0,0.5811,0.6623,0.718,0.0,0.0,0.0,0.0,0.0,0.0,0.0,0.0,0.0,0.0,0.9873,0.9959,1.0577,1.079,1.1027,1.1276,1.1753,1.2101,1.2144,1.2436,1.2754,0.0,0.0,0.0,0.0,0.0,0.0,0.0,0.0,0.0,0.0,0.0,0.0,0.0,0.0,0.0,0.0,0.0,0.0,0.0,0.0,0.0,0.0,0.0,0.0,0.0,0.0,0.0,0.2922,0.2947,0.0,0.0,0.0,0.0,0.0,0.0,0.0,0.0,0.0,0.0,0.0,0.2673,0.2635,0.0,0.0,0.0,0.0,0.0,0.0,0.0,0.0,0.0,0.0,0.0,0.0,0.7627,0.7939,0.7849,0.7766,0.7766,0.7711,0.7616,0.7458,0.745,0.7149,0.6508,0.0,0.0,0.0,0.0,0.0,0.0,0.0,0.0,0.0,0.0,0.0,0.0,0.0,0.0,0.0,0.0,0.0,0.0,0.0,0.0,0.0,0.0,0.0,0.0,0.0,0.5745,0.0,0.0,0.0,0.0,0.0,0.0,0.0,0.0,0.0,0.0,0.0,0.9769,1.001,1.0204,1.0428,1.0553,1.0896,1.1362,0.0,0.0,0.0,0.0,0.0,0.0,0.0,0.0,0.0,0.0,0.0,0.0,0.0,0.0,1.32,1.3372,1.3263,1.3161,1.3156,0.0,0.0,0.0,0.0,0.0,0.0,0.0,0.0,0.0,0.0,0.0,0.0,0.0,0.0,0.2483,0.0,0.2772,0.0,0.0,0.0,0.0,0.0,0.0,0.0,0.0,0.2553,0.2344,0.2149,0.2055,0.2054,0.0,0.2446,0.2917,0.0,0.0,0.0,0.0,0.0,0.0,0.0,0.0,0.7264,0.7719,0.7673,0.7644,0.7647,0.7669,0.7529,0.7276,0.7248,0.6912,0.6257,0.5942,0.56,0.0,0.0,0.0,0.0,0.0,0.0,0.0,0.0,0.0,0.0,0.0,0.0,0.0,0.0,0.0,0.0,0.0,0.0,0.0,0.0,0.0,0.0,0.0,0.5767,0.0,0.0,0.0,0.0,0.0,0.0,0.0,0.0,0.0,0.9727,0.9844,0.9979,1.0149,1.0488,1.0722,1.0773,0.0,0.0,0.0,0.0,0.0,0.0,0.0,1.2808,1.2881,1.2978,1.3036,1.3032,1.3027,1.3007,1.2925,0.0,0.0,1.3074,1.3137,1.319,1.3189,1.318,1.3147,1.3099,1.3056,1.3007,0.0,0.0,0.0,0.0,0.0,0.0,0.0,0.0,0.1694,0.1776,0.0,0.1974,0.0,0.0,0.0,0.0,0.0,0.3104,0.0,0.0,0.2031,0.1712,0.1461,0.1208,0.121,0.1463,0.1734,0.213,0.2692,0.3793,0.0,0.0,0.0,0.0,0.0,0.0,0.6889,0.7302,0.7293,0.7322,0.7405,0.7405,0.7289,0.7016,0.6907,0.6649,0.6126,0.5844,0.5508,0.51,0.4892,0.0,0.0,0.0,0.0,0.0,0.0,0.0,0.0,0.0,0.0,0.0,0.0,0.0,0.0,0.0,0.0,0.0,0.0,0.0,0.0,0.5465,0.0,0.0,0.0,0.0,0.0,0.0,0.0,0.0,0.0,0.0,0.9471,0.995,1.035,1.0466,0.0,0.0,0.0,0.0,1.2249,1.2658,1.2917,1.3135,1.3292,1.3075,1.291,1.291,0.0,0.0,1.291,1.291,1.2905,1.291,1.2905,1.2905,1.2925,1.3002,1.3118,1.3175,1.3152,1.3099,1.3099,1.3032,1.2929,0.0366,0.0,0.0,0.0,0.0,0.1272,0.1272,0.1273,0.1273,0.1359,0.1471,0.1492,0.0,0.0,0.0,0.0,0.0,0.0,0.1913,0.1613,0.1234,0.0906,0.0655,0.058,0.058,0.0655,0.0932,0.1335,0.1862,0.2458,0.3347,0.4498,0.0,0.0,0.0,0.0,0.6556,0.7236,0.7293,0.7416,0.7612,0.743,0.7149,0.68,0.6656,0.6413,0.6043,0.5777,0.5376,0.4832,0.4625,0.0,0.0,0.0,0.0,0.0,0.0,0.0,0.0,0.0,0.0,0.0,0.0,0.0,0.0,0.0,0.0,0.0,0.0,0.0,0.5041,0.5386,0.5679,0.0,0.0,0.0,0.0,0.0,0.0,0.0,0.0,0.0,0.953,0.9879,1.0158,0.0,0.0,1.1099,1.1398,1.1817,1.2296,1.292,1.2895,0.0,1.3381,1.3129,1.291,1.291,1.291,1.291,1.291,1.2983,1.3002,1.291,1.3012,1.3089,1.2992,1.2954,1.3002,1.3094,1.3123,1.3118,1.3171,1.3127,1.3108,-0.0573,-0.0092,0.0338,0.0492,0.0492,0.0515,0.0492,0.0515,0.056,0.0655,0.0781,0.08,0.0984,0.1267,0.134,0.0,0.0,0.0,0.1157,0.0842,0.0579,0.029,0.0105,-0.0026,-0.0053,0.0026,0.0237,0.0579,0.1,0.1426,0.2133,0.319,0.0,0.0,0.5276,0.554,0.6052,0.6782,0.6931,0.7115,0.7364,0.7119,0.6848,0.6511,0.6416,0.6211,0.5894,0.558,0.5172,0.4648,0.438,0.4135,0.0,0.0,0.0,0.0,0.0,0.0,0.0,0.0,0.0,0.0,0.0,0.3324,0.3326,0.0,0.0,0.0,0.4182,0.4478,0.4945,0.5185,0.0,0.0,0.0,0.0,0.0,0.0,0.0,0.8502,0.8951,0.9335,0.9566,0.9914,1.0239,1.0518,1.0951,1.1372,1.1698,0.0,1.2625,1.3181,1.3115,1.3163,1.3563,1.3298,1.3002,1.3036,1.3026,1.3026,1.3002,1.3079,1.3104,1.305,1.3118,1.3185,1.3089,1.3021,1.3036,1.3104,1.3133,1.3152,1.3199,1.3218,1.3218,-0.1484,-0.143,-0.0826,-0.0519,-0.0472,-0.0448,-0.0448,-0.0448,-0.0338,-0.0207,-0.0095,-0.0024,0.0098,0.0306,0.058,0.0,0.0617,0.0589,0.042,0.0112,-0.0028,-0.014,-0.028,-0.0589,-0.0645,-0.0448,-0.0336,-0.0112,0.014,0.0597,0.1042,0.1544,0.2909,0.3868,0.4408,0.49,0.5439,0.6045,0.6339,0.6586,0.6846,0.6598,0.6397,0.6201,0.6172,0.5992,0.5672,0.5298,0.4891,0.4497,0.4173,0.3846,0.3487,0.0,0.0,0.0,0.0,0.0,0.0,0.0,0.0,0.0,0.0,0.0,0.0,0.0,0.0,0.0,0.4006,0.0,0.4718,0.4931,0.0,0.0,0.0,0.6386,0.716,0.7407,0.7819,0.8672,0.0,0.0,0.9562,1.0047,1.05,1.0918,1.1267,1.1673,1.2071,1.2556,1.3039,1.3397,1.3473,1.3549,1.3726,1.3485,1.3247,1.3237,1.3213,1.3247,1.3247,1.3266,1.3242,1.3266,1.3262,1.3277,1.3266,1.3295,1.3261,1.329,1.3247,1.3237,1.3266,1.3266,1.3266,-0.2237,-0.2211,-0.2066,-0.1615,-0.1029,-0.0952,-0.0918,-0.092,-0.0949,-0.0944,-0.0931,-0.0962,-0.0821,-0.0575,-0.0248,-0.0111,-0.014,-0.028,-0.0393,-0.0505,-0.0729,-0.0869,-0.0897,-0.1066,-0.1094,-0.0925,-0.0897,-0.0757,-0.0476,-0.0111,0.0277,0.0719,0.1505,0.2553,0.3795,0.4337,0.4965,0.5709,0.5869,0.611,0.6424,0.6439,0.6295,0.6051,0.5804,0.558,0.5393,0.5151,0.4812,0.438,0.4107,0.3761,0.3304,0.3117,0.0,0.0,0.0,0.0,0.0,0.0,0.0,0.0,0.0,0.2668,0.2669,0.0,0.3041,0.0,0.3747,0.4054,0.4264,0.4406,0.0,0.0,0.5586,0.6133,0.6642,0.7249,0.782,0.8289,0.8722,0.9185,0.9692,1.0245,1.0828,1.1427,1.1573,1.1848,1.2332,1.2674,1.2988,1.3248,1.3375,1.3438,1.352,1.3525,1.3515,1.3515,1.3515,1.3486,1.3491,1.3592,1.3639,1.3668,1.3755,1.3797,1.3792,1.3821,1.3792,1.3797,1.3573,1.3396,1.3467,1.3515,1.3486,-0.289,-0.2891,-0.2891,-0.2627,-0.2171,-0.185,-0.1725,-0.1728,-0.1693,-0.1701,-0.1734,-0.1702,-0.1569,-0.1401,-0.1205,-0.1064,-0.1036,-0.1149,-0.1204,-0.1204,-0.1345,-0.1429,-0.1429,-0.1542,-0.157,-0.1513,-0.1514,-0.1429,-0.1261,-0.0869,-0.0533,-0.0168,0.0476,0.1384,0.2469,0.3362,0.4213,0.4981,0.5475,0.579,0.5885,0.5995,0.5898,0.5654,0.5397,0.5174,0.5,0.4852,0.4545,0.4061,0.3868,0.3528,0.3017,0.2817,0.256,0.0,0.0,0.0,0.0,0.0,0.0,0.0,0.0,0.0,0.0,0.0,0.2592,0.301,0.324,0.3487,0.3752,0.3986,0.4329,0.4847,0.5463,0.6039,0.6515,0.7137,0.7705,0.8138,0.8666,0.9188,0.9736,1.0399,1.1023,1.1619,1.1893,1.2229,1.2598,1.2939,1.3166,1.3338,1.3539,1.371,1.3823,1.3899,1.3941,1.3952,1.397,1.397,1.3941,1.3994,1.408,1.4075,1.4122,1.4174,1.4168,1.4165,1.4183,1.414,1.3952,1.3805,1.3758,1.3773,1.3768,-0.3554,-0.3554,-0.3556,-0.3558,-0.352,-0.3025,-0.2742,-0.2595,-0.248,-0.2485,-0.2548,-0.2404,-0.2294,-0.2182,-0.2154,-0.2042,-0.193,-0.1931,-0.1903,-0.1931,-0.1903,-0.1931,-0.1903,-0.2043,-0.21,-0.2072,-0.21,-0.2072,-0.21,-0.1654,-0.129,-0.0981,-0.0308,0.0336,0.0978,0.2151,0.321,0.4122,0.4983,0.5379,0.5318,0.5412,0.536,0.5157,0.4969,0.476,0.453,0.4429,0.4164,0.3655,0.3505,0.3168,0.2654,0.2485,0.2204,0.0,0.1567,0.0,0.0,0.0,0.0,0.0,0.0,0.0,0.0,0.1833,0.2168,0.2545,0.2608,0.2815,0.3245,0.3605,0.4094,0.4744,0.5366,0.5937,0.6537,0.7012,0.7499,0.8141,0.8669,0.9215,0.9817,1.0502,1.1146,1.1748,1.2269,1.2686,1.2992,1.3267,1.3491,1.3663,1.3905,1.4174,1.4373,1.4471,1.4466,1.4489,1.4494,1.4471,1.446,1.446,1.4443,1.4454,1.4448,1.4448,1.4454,1.445,1.4439,1.4448,1.4355,1.421,1.4057,1.3997,1.4002,-0.4284,-0.4311,-0.4399,-0.4453,-0.4448,-0.4441,-0.3946,-0.3151,-0.3168,-0.3274,-0.3356,-0.3236,-0.316,-0.3105,-0.2851,-0.2709,-0.2683,-0.2575,-0.2522,-0.2522,-0.255,-0.2522,-0.2522,-0.255,-0.2578,-0.2578,-0.2578,-0.2578,-0.255,-0.2212,-0.1903,-0.1623,-0.1121,-0.0505,0.0196,0.0,0.0,0.0,0.4189,0.4594,0.4825,0.48,0.482,0.4869,0.4482,0.0,0.4034,0.3853,0.362,0.331,0.3107,0.0,0.0,0.0,0.0,0.0,0.0,0.0,0.0,0.0,0.0,0.0,0.0153,0.0409,0.1019,0.1359,0.1665,0.1949,0.2213,0.2474,0.2736,0.319,0.3712,0.4285,0.4854,0.5532,0.6209,0.6785,0.741,0.8118,0.8692,0.9345,1.0164,1.0837,1.1502,1.2229,1.2769,1.3204,1.3554,1.3673,1.381,1.4059,1.435,1.461,1.4772,1.4886,1.4943,1.4971,1.4971,1.4915,1.4846,1.4817,1.4789,1.4742,1.4725,1.473,1.4725,1.4725,1.4731,1.4707,1.4702,1.4581,1.4233,1.4075,1.4002,-0.4956,0.0,-0.5099,-0.5177,0.0,-0.5312,-0.5044,-0.4526,-0.4259,-0.4147,-0.4136,-0.3995,-0.3881,-0.3769,-0.3598,-0.3487,-0.3322,-0.3272,-0.3217,-0.3165,-0.3137,-0.3136,-0.3136,-0.3136,-0.3137,-0.3136,-0.3136,-0.3137,-0.3137,-0.2797,-0.2544,-0.232,-0.1792,-0.1288,-0.0784,-0.028,0.0923,0.2793,0.324,0.3602,0.3835,0.3954,0.4031,0.4045,0.0,0.0,0.0,0.0,0.0,0.0,0.0,0.0,0.0,0.0,0.0,0.0692,0.0335,0.0064,-0.013,-0.0304,-0.0373,-0.0358,-0.0337,-0.0067,0.0609,0.0886,0.1154,0.1429,0.1741,0.2054,0.2434,0.2888,0.3473,0.412,0.4743,0.5399,0.6127,0.6807,0.7461,0.8132,0.885,0.9569,1.0297,1.104,1.1748,1.2441,1.2992,1.3481,1.3894,1.4069,1.4233,1.4576,1.484,1.5045,1.5164,1.526,1.5283,1.5283,1.5289,1.5266,1.521,1.5187,1.5193,1.5148,1.5154,1.5148,1.5154,1.5154,1.5148,1.5148,1.5085,1.5,1.4777,1.4557,1.4377,-0.5609,-0.578,-0.5814,-0.5889,-0.5993,-0.6023,-0.6046,-0.5989,0.0,0.0,0.0,-0.4741,-0.457,-0.4398,-0.437,-0.4236,-0.4045,-0.3992,-0.391,-0.3777,-0.3779,-0.3777,-0.3749,-0.3749,-0.3776,-0.3749,-0.3749,-0.3751,-0.3748,-0.3409,-0.3186,-0.3015,-0.2516,-0.2069,-0.1734,-0.1036,0.0028,0.137,0.2066,0.25,0.276,0.2999,0.3112,0.3088,0.2873,0.2742,0.272,0.2547,0.2281,0.1943,0.1831,0.1609,0.1209,0.0873,0.0537,0.0179,-0.0157,-0.0448,-0.0671,-0.0785,-0.0857,-0.084,-0.0658,-0.0318,0.0295,0.0477,0.0716,0.1007,0.1307,0.1672,0.2168,0.2697,0.33,0.4056,0.4679,0.5367,0.61,0.6856,0.7557,0.8232,0.9047,0.9847,1.0527,1.1272,1.1997,1.2628,1.318,1.3742,1.424,1.4512,1.4725,1.5108,1.5323,1.548,1.5558,1.5625,1.5625,1.5653,1.5625,1.5619,1.5603,1.5597,1.558,1.5541,1.5558,1.5536,1.5541,1.5541,1.5558,1.5558,1.5458,1.538,1.5335,1.5137,1.4891,-0.645,-0.648,-0.6657,-0.6739,-0.6741,-0.6866,-0.692,-0.6839,-0.6046,-0.5588,-0.5458,-0.5458,-0.5342,-0.514,-0.504,-0.4958,-0.4906,-0.4684,-0.455,-0.4551,-0.4436,-0.438,-0.438,-0.438,-0.438,-0.438,-0.438,-0.4382,-0.4325,-0.4049,-0.3796,-0.3658,-0.3354,-0.2906,-0.2373,-0.1873,-0.137,-0.081,0.0475,0.1374,0.1779,0.1947,0.2149,0.2328,0.1983,0.1851,0.1963,0.1677,0.141,0.1253,0.1007,0.0716,0.038,0.0112,-0.0246,-0.0671,-0.0873,-0.112,-0.1412,-0.1479,-0.1456,-0.1365,-0.0992,-0.052,0.0,0.0071,0.0313,0.0798,0.113,0.1499,0.1916,0.2536,0.3163,0.3818,0.4515,0.5281,0.6098,0.6856,0.7664,0.8567,0.9223,1.0032,1.0989,1.1673,1.2309,1.3006,1.3615,1.4215,1.4909,1.517,1.5306,1.5576,1.578,1.5879,1.5929,1.6029,1.6057,1.6113,1.6085,1.605,1.5929,1.5929,1.5891,1.5786,1.5786,1.5786,1.5764,1.5742,1.5764,1.577,1.5709,1.5649,1.5649,1.5503,1.5283,-0.7133,-0.7211,-0.73,-0.7381,-0.7456,-0.7506,-0.7536,-0.7506,-0.712,-0.6694,-0.6307,-0.6112,-0.5998,-0.5887,-0.5778,-0.5645,-0.5565,-0.5371,-0.526,-0.5183,-0.5036,-0.4924,-0.4926,-0.4928,-0.4926,-0.4954,-0.4924,-0.4873,-0.4822,-0.46,-0.4405,-0.427,-0.399,-0.3599,-0.3123,-0.2902,-0.2541,-0.2038,-0.0671,0.0191,0.0517,0.0787,0.1028,0.1197,0.1036,0.1005,0.1072,0.0827,0.0649,0.0515,0.0246,0.0022,-0.0157,-0.0492,-0.0806,-0.1097,-0.1277,-0.1479,-0.1704,-0.1672,-0.1652,-0.1592,-0.1327,-0.0943,-0.0532,-0.0199,0.015,0.0439,0.0898,0.1369,0.18,0.2412,0.3074,0.371,0.4455,0.5226,0.6127,0.6991,0.7848,0.8695,0.9536,1.0391,1.1301,1.1968,1.2652,1.3425,1.4168,1.4937,1.5503,1.5742,1.5869,1.5969,1.61,1.6219,1.6278,1.6328,1.6377,1.6377,1.6355,1.6328,1.6284,1.6278,1.6262,1.6197,1.6175,1.6175,1.6175,1.6148,1.6138,1.6116,1.6041,1.5981,1.5959,1.5814,1.558,-0.7839,-0.7963,-0.7966,-0.799,-0.8117,-0.8117,-0.8093,-0.8061,-0.8034,-0.7747,-0.7225,-0.682,-0.6628,-0.6542,-0.6458,-0.6349,-0.6248,-0.6075,-0.5939,-0.5837,-0.5611,-0.5498,-0.5496,-0.5496,-0.5496,-0.5498,-0.5496,-0.5447,-0.5289,-0.5173,-0.5011,-0.4824,-0.4543,-0.426,-0.3932,-0.3849,-0.357,-0.307,-0.1958,-0.1169,-0.0767,-0.0382,-0.0123,-0.0023,0.0,0.0046,0.0115,-0.0023,-0.0181,-0.0317,-0.0495,-0.0649,-0.0761,-0.1052,-0.1304,-0.1474,-0.1614,-0.178,-0.1914,-0.1849,-0.1817,-0.1782,-0.1584,-0.1324,-0.0989,-0.0499,-0.0105,0.0161,0.0674,0.12,0.1669,0.2267,0.294,0.3658,0.4429,0.5252,0.6127,0.7074,0.8013,0.8853,0.9821,1.0735,1.1519,1.2284,1.3084,1.4017,1.4857,1.5519,1.5869,1.6201,1.6358,1.6436,1.6485,1.6522,1.658,1.6586,1.6586,1.658,1.6607,1.6586,1.6586,1.6592,1.6586,1.6565,1.6592,1.6577,1.6565,1.6543,1.6506,1.6479,1.6411,1.6303,1.6231,1.6035,1.5814,-0.8672,-0.8699,-0.8692,-0.8699,-0.8722,-0.8722,-0.8636,-0.8547,-0.8517,-0.8444,-0.8185,-0.7652,-0.7273,-0.7058,-0.7028,-0.7001,-0.6977,-0.6729,-0.662,-0.6569,-0.6263,-0.6125,-0.6125,-0.6127,-0.6125,-0.6127,-0.6127,-0.605,-0.5918,-0.5778,-0.5582,-0.5254,-0.5093,-0.5013,-0.4932,-0.4601,-0.4406,-0.4322,-0.3795,-0.2961,-0.1909,-0.1585,-0.1373,-0.1246,-0.117,-0.1123,-0.1042,-0.1061,-0.1137,-0.125,-0.1235,-0.1323,-0.1482,-0.1548,-0.1687,-0.1986,-0.204,-0.2141,-0.2308,-0.2224,-0.2112,-0.2054,-0.1801,-0.156,-0.1277,-0.0973,-0.0583,-0.0056,0.0446,0.0921,0.1345,0.2046,0.2772,0.3412,0.432,0.5226,0.6125,0.7074,0.8117,0.9227,1.0061,1.096,1.1889,1.2711,1.3671,1.4777,1.5384,1.5888,1.6222,1.6494,1.6769,1.6968,1.6975,1.6876,1.6869,1.6869,1.6869,1.6863,1.6876,1.6876,1.6884,1.689,1.6882,1.6899,1.6863,1.689,1.6882,1.6861,1.6827,1.6791,1.6697,1.6611,1.6426,1.6253,1.6041,-0.9335,-0.9263,-0.926,-0.9256,-0.9263,-0.9211,-0.9129,-0.907,-0.9001,-0.8867,-0.8742,-0.8477,-0.8132,-0.7732,-0.7616,-0.7581,-0.7557,-0.727,-0.7163,-0.7139,-0.6864,-0.6726,-0.6729,-0.6726,-0.6729,-0.6726,-0.6726,-0.6677,-0.6522,-0.6273,-0.6046,-0.5855,-0.5773,-0.5698,-0.5616,-0.5481,-0.5256,-0.4979,-0.4787,-0.4368,-0.3708,-0.2975,-0.2477,-0.2245,-0.2114,-0.2015,-0.1913,-0.186,-0.1894,-0.1943,-0.1987,-0.2043,-0.214,-0.2214,-0.2302,-0.2438,-0.2416,-0.248,-0.2623,-0.2394,-0.2218,-0.2161,-0.2002,-0.1713,-0.1344,-0.1122,-0.0813,-0.028,0.0224,0.0729,0.1263,0.1934,0.2603,0.3355,0.4237,0.5169,0.61,0.7146,0.8223,0.9279,1.0297,1.1234,1.2236,1.3413,1.4502,1.5378,1.5854,1.6238,1.6601,1.6869,1.7065,1.7267,1.7268,1.7261,1.7234,1.7255,1.7234,1.7234,1.7261,1.7261,1.7234,1.7255,1.7255,1.7234,1.7213,1.7205,1.721,1.7114,1.7065,1.7009,1.691,1.6782,1.6605,1.6463,1.629,-0.9976,-0.9906,-0.9855,-0.9851,-0.9832,-0.9706,-0.9629,-0.9547,-0.942,-0.9293,-0.9159,-0.9159,-0.8975,-0.8577,-0.8282,-0.8146,-0.8123,-0.7886,-0.7756,-0.7708,-0.7456,-0.7324,-0.7321,-0.7324,-0.7321,-0.7319,-0.7319,-0.7219,-0.7063,-0.6788,-0.6566,-0.6453,-0.6426,-0.6401,-0.6297,-0.6275,-0.6052,-0.5714,-0.5637,-0.5475,-0.513,-0.4405,-0.3743,-0.3296,-0.3084,-0.293,-0.2798,-0.2721,-0.2655,-0.2607,-0.2685,-0.2718,-0.2718,-0.277,-0.2809,-0.2787,-0.2762,-0.2757,-0.2806,-0.2593,-0.24,-0.2288,-0.2156,-0.1877,-0.1514,-0.1263,-0.0953,-0.0505,-0.0056,0.0477,0.1122,0.1764,0.2462,0.3244,0.4153,0.5111,0.6095,0.7224,0.8323,0.9376,1.0511,1.1672,1.2851,1.4115,1.5192,1.58,1.6216,1.6567,1.6905,1.7136,1.733,1.7453,1.7522,1.7523,1.7496,1.7448,1.7489,1.7489,1.7475,1.7455,1.7489,1.7489,1.7489,1.7372,1.7448,1.7475,1.7392,1.7309,1.7253,1.7141,1.7036,1.6903,1.6791,1.6656,1.6549,-1.0667,-1.0645,-1.0518,-1.0466,-1.0437,-1.032,-1.0132,-0.9969,-0.9847,-0.971,-0.9592,-0.9595,-0.9566,-0.9488,-0.9001,-0.8755,-0.8722,-0.8454,-0.8342,-0.8318,-0.804,-0.7874,-0.7877,-0.7877,-0.7874,-0.7871,-0.7877,-0.7747,-0.7494,-0.7348,-0.7184,-0.7085,-0.7058,-0.7055,-0.7028,-0.6928,-0.679,-0.6596,-0.6433,-0.622,-0.5971,-0.5764,-0.5222,-0.4523,-0.4105,-0.3873,-0.3756,-0.3684,-0.3546,-0.3341,-0.332,-0.3282,-0.3252,-0.3154,-0.3077,-0.3012,-0.3055,-0.303,-0.2927,-0.2874,-0.2739,-0.2492,-0.2296,-0.2073,-0.1768,-0.1459,-0.1094,-0.0701,-0.0336,0.0168,0.0841,0.1568,0.2293,0.3074,0.4068,0.5058,0.607,0.7203,0.8396,0.9622,1.0817,1.2233,1.4001,1.4869,1.5524,1.6116,1.6599,1.6954,1.7178,1.7385,1.7536,1.7659,1.7699,1.7652,1.7543,1.7557,1.7537,1.7537,1.7584,1.7516,1.7489,1.7489,1.7489,1.7509,1.7557,1.7557,1.7509,1.7455,1.7433,1.7316,1.7156,1.7023,1.6918,1.6803,1.6697,-1.1372,-1.12,-1.1074,-1.0968,-1.0875,-1.0748,-1.0594,-1.0433,-1.0312,-1.0231,-1.0172,-1.0073,-1.0047,-1.0025,-0.9714,-0.9424,-0.9185,-0.8896,-0.8771,-0.8768,-0.8553,-0.8474,-0.8474,-0.8477,-0.848,-0.8477,-0.8474,-0.8342,-0.8103,-0.802,-0.7851,-0.7637,-0.761,-0.7613,-0.7613,-0.7563,-0.7429,-0.7222,-0.7112,-0.6977,-0.6707,-0.6485,-0.6211,-0.5884,-0.5119,-0.4684,-0.4627,-0.4438,-0.4302,-0.4226,-0.4113,-0.4011,-0.3882,-0.3745,-0.3626,-0.3534,-0.3445,-0.3302,-0.3052,-0.297,-0.2776,-0.2522,-0.2325,-0.2074,-0.1824,-0.1515,-0.1178,-0.0841,-0.0449,0.0028,0.056,0.126,0.2041,0.2791,0.376,0.4835,0.5953,0.7093,0.8296,0.9725,1.1408,1.3212,1.4376,1.5311,1.5966,1.6522,1.689,1.722,1.7563,1.7727,1.7794,1.7949,1.7956,1.7889,1.7848,1.7781,1.7747,1.7767,1.7767,1.7767,1.7747,1.772,1.774,1.772,1.772,1.7679,1.7659,1.7543,1.7522,1.7405,1.7239,1.7135,1.703,1.6888,1.6782,-1.1977,-1.1748,-1.1623,-1.1469,-1.1347,-1.1221,-1.107,-1.0918,-1.0769,-1.0697,-1.0667,-1.0543,-1.0496,-1.0466,-1.0312,-1.0073,-0.9777,-0.945,-0.9248,-0.9244,-0.911,-0.9061,-0.9061,-0.9061,-0.9057,-0.9057,-0.9005,-0.888,-0.8662,-0.861,-0.8448,-0.8203,-0.8203,-0.8203,-0.8173,-0.8143,-0.8017,-0.7833,-0.7735,-0.7598,-0.7378,-0.7112,-0.6977,-0.6839,-0.6159,-0.5586,-0.5342,-0.5152,-0.4987,-0.4906,-0.4769,-0.4603,-0.4387,-0.4244,-0.4104,-0.3938,-0.3747,-0.3552,-0.3272,-0.3079,-0.2857,-0.2634,-0.241,-0.2185,-0.1934,-0.1656,-0.1347,-0.0981,-0.0645,-0.0252,0.028,0.0896,0.165,0.2541,0.3486,0.4532,0.5731,0.6899,0.8462,1.0403,1.2322,1.3881,1.4915,1.5696,1.6337,1.6945,1.7192,1.7523,1.7841,1.7983,1.803,1.8157,1.8116,1.8076,1.801,1.7956,1.7862,1.7868,1.7855,1.7902,1.7909,1.7909,1.7909,1.7909,1.7889,1.7848,1.776,1.7645,1.7543,1.7453,1.737,1.7267,1.7141,1.6967,1.6861,-1.2426,-1.2278,-1.2155,-1.1997,-1.1873,-1.1748,-1.1623,-1.1452,-1.1217,-1.1124,-1.1124,-1.0972,-1.0896,-1.0875,-1.0744,-1.0667,-1.0514,-1.0076,-0.9821,-0.9773,-0.9651,-0.9592,-0.9562,-0.9566,-0.9566,-0.9569,-0.9462,-0.9335,-0.9181,-0.9087,-0.8959,-0.8831,-0.8798,-0.8771,-0.8801,-0.8685,-0.8547,-0.8398,-0.8268,-0.8103,-0.7907,-0.7649,-0.7491,-0.7464,-0.7163,-0.6642,-0.5882,-0.58,-0.5664,-0.5361,-0.5179,-0.4989,-0.4743,-0.4577,-0.4439,-0.419,-0.3964,-0.3745,-0.3584,-0.3302,-0.308,-0.2859,-0.2635,-0.2381,-0.2184,-0.1907,-0.16,-0.1234,-0.0953,-0.0645,-0.0084,0.0449,0.1177,0.2323,0.3212,0.4205,0.5376,0.6727,0.8675,1.1336,1.3178,1.4388,1.5271,1.6092,1.6708,1.715,1.7475,1.7747,1.7982,1.8102,1.8176,1.8196,1.8208,1.8189,1.8142,1.8075,1.7975,1.7922,1.7895,1.7909,1.7909,1.7909,1.7909,1.7909,1.7909,1.7869,1.7848,1.7754,1.7618,1.7522,1.7447,1.735,1.7197,1.7051,1.6952,-1.29,-1.2764,-1.2573,-1.2421,-1.2298,-1.215,-1.2022,-1.1902,-1.1728,-1.1644,-1.1628,-1.1423,-1.1247,-1.1179,-1.1053,-1.0922,-1.082,-1.0616,-1.0415,-1.0187,-1.0102,-0.9999,-0.9914,-0.9866,-0.987,-0.9866,-0.984,-0.9736,-0.9636,-0.9558,-0.948,-0.9361,-0.9335,-0.9335,-0.9335,-0.923,-0.9073,-0.8949,-0.8824,-0.8636,-0.8388,-0.8206,-0.8079,-0.7949,-0.7747,-0.7423,-0.6996,-0.6618,-0.6293,-0.6052,-0.5834,-0.5538,-0.5158,-0.4991,-0.4741,-0.4437,-0.4324,-0.405,-0.3666,-0.35,-0.3276,-0.2972,-0.2748,-0.2578,-0.2381,-0.2048,-0.1768,-0.1543,-0.1178,-0.0757,-0.0477,0.0028,0.0756,0.1762,0.2738,0.3737,0.5101,0.7295,0.9699,1.1769,1.3467,1.4738,1.5784,1.6571,1.713,1.7496,1.7774,1.7988,1.8167,1.826,1.8306,1.8386,1.834,1.8281,1.8241,1.8162,1.8055,1.7962,1.7936,1.7929,1.7909,1.7909,1.7909,1.7909,1.7909,1.7909,1.7889,1.7842,1.7727,1.7591,1.7488,1.7365,1.7226,1.7086,1.6967,-1.3382,-1.3267,-1.305,-1.2881,-1.2754,-1.2618,-1.2471,-1.2328,-1.217,-1.2105,-1.1997,-1.1769,-1.1594,-1.1498,-1.1372,-1.1272,-1.1205,-1.1196,-1.1019,-1.0744,-1.0569,-1.0441,-1.0334,-1.0338,-1.0334,-1.033,-1.0283,-1.0213,-1.0132,-1.0084,-1.0021,-0.9932,-0.9936,-0.991,-0.9858,-0.9703,-0.9547,-0.9424,-0.9244,-0.9084,-0.889,-0.8709,-0.8586,-0.8484,-0.8282,-0.8067,-0.7812,-0.7383,-0.698,-0.6603,-0.6252,-0.59,-0.557,-0.5321,-0.5044,-0.4765,-0.4572,-0.4272,-0.3803,-0.3638,-0.3473,-0.3138,-0.2915,-0.272,-0.2522,-0.2215,-0.202,-0.1769,-0.1459,-0.1122,-0.0841,-0.0505,0.014,0.0867,0.1928,0.3314,0.5004,0.7638,1.0124,1.2033,1.3825,1.5224,1.637,1.7102,1.7625,1.7922,1.8148,1.8299,1.8429,1.847,1.8523,1.853,1.8445,1.8406,1.8361,1.8248,1.8115,1.8022,1.7969,1.7942,1.7909,1.7909,1.7909,1.7909,1.7909,1.7909,1.7909,1.7875,1.7808,1.7666,1.7496,1.7379,1.7247,1.7038,1.6897,-1.3839,-1.3792,-1.352,-1.3348,-1.3223,-1.3069,-1.291,-1.2749,-1.2583,-1.2475,-1.2303,-1.2105,-1.1923,-1.1902,-1.1778,-1.1673,-1.1698,-1.1623,-1.1548,-1.1347,-1.112,-1.0922,-1.0875,-1.0867,-1.0871,-1.0845,-1.0769,-1.0714,-1.0693,-1.0598,-1.0543,-1.0514,-1.0492,-1.0445,-1.0316,-1.0128,-0.9973,-0.9844,-0.9603,-0.9469,-0.9387,-0.9185,-0.9035,-0.8982,-0.8758,-0.8547,-0.8348,-0.7978,-0.7521,-0.6958,-0.6497,-0.6225,-0.5975,-0.5597,-0.5325,-0.5099,-0.4737,-0.4434,-0.4078,-0.3803,-0.3584,-0.3385,-0.3137,-0.286,-0.2692,-0.255,-0.23,-0.1964,-0.1795,-0.1599,-0.1262,-0.1009,-0.0673,-0.0196,0.1063,0.2837,0.5256,0.7495,0.9663,1.2042,1.4125,1.5881,1.7058,1.7727,1.8147,1.8431,1.862,1.8702,1.8721,1.8709,1.8704,1.8646,1.8549,1.8491,1.8439,1.8282,1.8149,1.8109,1.8016,1.7942,1.7909,1.7909,1.7909,1.7909,1.7909,1.7909,1.7902,1.7895,1.7788,1.7584,1.7461,1.7385,1.7226,1.7002,1.6854,-1.4186,-1.4059,-1.381,-1.3692,-1.3621,-1.3401,-1.3286,-1.319,-1.2988,-1.2818,-1.273,-1.2554,-1.2352,-1.22,-1.2051,-1.1952,-1.1873,-1.1748,-1.1694,-1.1619,-1.1548,-1.1377,-1.1226,-1.1196,-1.1196,-1.1171,-1.1146,-1.1146,-1.1141,-1.1074,-1.1044,-1.0943,-1.0947,-1.0867,-1.0744,-1.059,-1.0462,-1.0312,-1.0162,-0.9925,-0.9714,-0.9636,-0.948,-0.9312,-0.9204,-0.8998,-0.8669,-0.8168,-0.7658,-0.709,-0.695,-0.663,-0.623,-0.6012,-0.5711,-0.5297,-0.5044,-0.4765,-0.4408,-0.4079,-0.3802,-0.3555,-0.336,-0.3136,-0.286,-0.272,-0.2551,-0.2327,-0.2129,-0.1905,-0.1736,-0.154,-0.1259,-0.0783,0.0335,0.1976,0.3887,0.6098,0.8542,1.1266,1.3681,1.5714,1.7335,1.8257,1.8679,1.8886,1.8976,1.9003,1.9003,1.8927,1.8896,1.875,1.866,1.8583,1.8485,1.8321,1.8202,1.8163,1.8063,1.7922,1.7909,1.7909,1.7909,1.7909,1.7909,1.7909,1.7902,1.7889,1.77,1.7529,1.7488,1.7413,1.717,1.6945,1.684,-1.4505,-1.443,-1.414,-1.4046,-1.4028,-1.3763,-1.3621,-1.352,-1.3334,-1.32,-1.3084,-1.292,-1.272,-1.2554,-1.2402,-1.2283,-1.2155,-1.2051,-1.2051,-1.2031,-1.1977,-1.1753,-1.1548,-1.1477,-1.1469,-1.1473,-1.1473,-1.1477,-1.1469,-1.1473,-1.1418,-1.1372,-1.1347,-1.1276,-1.1171,-1.1023,-1.0871,-1.0744,-1.0573,-1.0338,-1.018,-1.0058,-0.9947,-0.9732,-0.9599,-0.9286,-0.8831,-0.8464,-0.8005,-0.7518,-0.7219,-0.6925,-0.6608,-0.6312,-0.5982,-0.5513,-0.5321,-0.4987,-0.4574,-0.4299,-0.405,-0.3748,-0.3552,-0.3385,-0.3137,-0.2969,-0.2828,-0.2659,-0.2462,-0.2378,-0.2268,-0.21,-0.1929,-0.1731,-0.092,0.0361,0.207,0.4107,0.6813,0.9802,1.2687,1.5353,1.7585,1.8581,1.9109,1.9339,1.9387,1.9354,1.9291,1.9179,1.9066,1.8915,1.8757,1.868,1.8569,1.8393,1.8248,1.8208,1.8116,1.7976,1.7929,1.7929,1.7909,1.7909,1.7909,1.7902,1.7895,1.7848,1.7679,1.7557,1.7522,1.7357,1.7114,1.6897,1.6791,-1.4822,-1.4799,-1.4546,-1.4448,-1.4378,-1.415,-1.3968,-1.3834,-1.3692,-1.3549,-1.3406,-1.3176,-1.3036,-1.2954,-1.2769,-1.2656,-1.2554,-1.248,-1.2451,-1.2402,-1.2298,-1.2105,-1.1873,-1.1807,-1.1773,-1.1778,-1.1773,-1.1798,-1.1823,-1.1798,-1.1773,-1.1748,-1.1748,-1.1673,-1.1523,-1.1398,-1.1276,-1.1099,-1.09,-1.0744,-1.0641,-1.0496,-1.0338,-1.0183,-0.9755,-0.9417,-0.9061,-0.8801,-0.8533,-0.8005,-0.7461,-0.7195,-0.7033,-0.6522,-0.6168,-0.5837,-0.5538,-0.5152,-0.4682,-0.4544,-0.4322,-0.3965,-0.3747,-0.3581,-0.3414,-0.3247,-0.3106,-0.2909,-0.2935,-0.2824,-0.2772,-0.2661,-0.2658,-0.268,-0.2707,-0.1861,-0.0193,0.1794,0.4386,0.795,1.0917,1.4087,1.67,1.8548,1.9424,1.9685,1.9749,1.9726,1.9596,1.9461,1.9295,1.9108,1.8934,1.8757,1.8627,1.8477,1.8345,1.8247,1.8155,1.8049,1.7983,1.7963,1.7929,1.7909,1.7909,1.7902,1.7895,1.7788,1.7666,1.7536,1.7454,1.7247,1.7023,1.6848,1.6699,-1.4983,-1.488,-1.4771,-1.4702,-1.4655,-1.4441,-1.4309,-1.4239,-1.401,-1.3839,-1.3697,-1.352,-1.3406,-1.3276,-1.305,-1.2905,-1.2861,-1.2744,-1.2603,-1.25,-1.2471,-1.2426,-1.2298,-1.2224,-1.2175,-1.2175,-1.2278,-1.2303,-1.2303,-1.2254,-1.2249,-1.215,-1.2056,-1.1957,-1.1828,-1.1698,-1.1548,-1.1427,-1.1247,-1.112,-1.0998,-1.085,-1.0645,-1.0419,-0.9936,-0.9592,-0.9417,-0.911,-0.8827,-0.8513,-0.8055,-0.7574,-0.7192,-0.6977,-0.6628,-0.6196,-0.5862,-0.5532,-0.5154,-0.4767,-0.4462,-0.4324,-0.4049,-0.3805,-0.3584,-0.3527,-0.3357,-0.3132,-0.3076,-0.316,-0.3218,-0.3218,-0.3299,-0.3518,-0.382,-0.3979,-0.3315,-0.1279,0.1487,0.4361,0.7853,1.1518,1.4741,1.7332,1.8553,1.9652,2.0038,2.0078,1.9912,1.969,1.9527,1.9336,1.9127,1.8934,1.8781,1.8613,1.847,1.8345,1.8234,1.8115,1.8076,1.8023,1.7983,1.7942,1.7909,1.7902,1.7889,1.7774,1.7631,1.7495,1.7365,1.7136,1.6933,1.6757,1.6543,-1.5227,-1.5085,-1.4983,-1.4897,-1.4823,-1.4673,-1.4581,-1.4557,-1.4377,-1.4226,-1.4069,-1.3947,-1.3781,-1.3573,-1.3382,-1.3238,-1.3142,-1.3016,-1.29,-1.2832,-1.2788,-1.272,-1.2676,-1.2598,-1.2524,-1.2451,-1.2451,-1.25,-1.2505,-1.2505,-1.2431,-1.2402,-1.2332,-1.2254,-1.2175,-1.2026,-1.1923,-1.1803,-1.1648,-1.1523,-1.1372,-1.1171,-1.0871,-1.0543,-1.0176,-0.9936,-0.9677,-0.9446,-0.9211,-0.8926,-0.856,-0.8055,-0.7521,-0.7217,-0.6901,-0.6579,-0.6168,-0.5807,-0.5428,-0.5101,-0.4769,-0.4519,-0.4324,-0.4076,-0.3858,-0.3776,-0.3719,-0.3579,-0.3549,-0.3579,-0.3662,-0.3747,-0.3913,-0.4215,-0.4596,-0.5087,-0.5179,-0.3671,-0.1452,0.1094,0.4228,0.7862,1.1238,1.4385,1.7034,1.7873,1.9624,1.9765,1.9983,1.9797,1.9726,1.9556,1.9325,1.9127,1.8946,1.8767,1.8593,1.8477,1.8393,1.8268,1.8169,1.8096,1.8029,1.7989,1.7949,1.7909,1.7882,1.7747,1.759,1.7447,1.7274,1.701,1.6793,1.6601,1.6371,-1.5458,-1.5329,-1.5227,-1.5079,-1.4937,-1.4874,-1.4817,-1.4794,-1.4678,-1.4557,-1.4448,-1.4321,-1.4116,-1.3905,-1.3758,-1.3615,-1.3443,-1.3319,-1.3223,-1.317,-1.3045,-1.2978,-1.2934,-1.2905,-1.2837,-1.2613,-1.2627,-1.2632,-1.2627,-1.2603,-1.2666,-1.2593,-1.2573,-1.2524,-1.25,-1.2372,-1.2254,-1.213,-1.1997,-1.1873,-1.1748,-1.1498,-1.1171,-1.0769,-1.0514,-1.0308,-1.0021,-0.9784,-0.9569,-0.929,-0.9008,-0.8586,-0.8082,-0.7547,-0.7114,-0.6933,-0.6524,-0.6143,-0.5789,-0.546,-0.5128,-0.4629,-0.4572,-0.4408,-0.4162,-0.4078,-0.3993,-0.3995,-0.3939,-0.3995,-0.4076,-0.4161,-0.4413,-0.4743,-0.5148,-0.5744,-0.6172,-0.5492,-0.3954,-0.2175,0.054,0.3834,0.736,1.0624,1.3514,1.6195,1.7892,1.9214,1.929,1.9724,1.9565,1.9711,1.953,1.9306,1.9127,1.8953,1.8755,1.8697,1.8595,1.8464,1.8359,1.8327,1.8268,1.8049,1.7989,1.7949,1.7835,1.7679,1.7529,1.7391,1.7135,1.6869,1.665,1.6479,1.6197,-1.557,-1.5474,-1.544,-1.5356,-1.521,-1.5102,-1.5,-1.4869,-1.4811,-1.4753,-1.4696,-1.4581,-1.4448,-1.4285,-1.4158,-1.397,-1.3758,-1.3592,-1.3486,-1.3386,-1.3276,-1.3209,-1.318,-1.318,-1.3137,-1.3089,-1.3036,-1.3002,-1.2992,-1.3045,-1.2973,-1.2973,-1.2871,-1.2803,-1.2676,-1.2554,-1.25,-1.2431,-1.2298,-1.218,-1.2026,-1.1823,-1.1548,-1.1116,-1.0841,-1.059,-1.0415,-1.0235,-0.9995,-0.9566,-0.9391,-0.9057,-0.8616,-0.8085,-0.7604,-0.7171,-0.6901,-0.6552,-0.6175,-0.5761,-0.5462,-0.5183,-0.4959,-0.4708,-0.4519,-0.4408,-0.4296,-0.4159,-0.4161,-0.4244,-0.4405,-0.452,-0.48,-0.5158,-0.5536,-0.5991,-0.6507,-0.6622,-0.6374,-0.5018,-0.2702,-0.0436,0.2919,0.6118,0.8898,1.1685,1.4008,1.572,1.6645,1.7899,1.9071,1.9368,1.9714,1.9519,1.9332,1.9142,1.8979,1.8941,1.8865,1.876,1.8676,1.8639,1.8516,1.8227,1.8022,1.7955,1.7814,1.7618,1.7419,1.726,1.6981,1.6699,1.6436,1.6191,1.5973,-1.5681,-1.5608,-1.5614,-1.5525,-1.5407,-1.534,-1.5249,-1.5136,-1.5063,-1.4994,-1.4863,-1.476,-1.4702,-1.4593,-1.4477,-1.4262,-1.4046,-1.3863,-1.3763,-1.3692,-1.3644,-1.3573,-1.351,-1.3491,-1.3462,-1.3443,-1.3435,-1.3325,-1.3176,-1.3175,-1.3209,-1.3161,-1.3094,-1.3021,-1.2949,-1.2914,-1.2808,-1.272,-1.2627,-1.2505,-1.2303,-1.2126,-1.1798,-1.1423,-1.1175,-1.0947,-1.0794,-1.0522,-1.0312,-1.0039,-0.9729,-0.9394,-0.9057,-0.8639,-0.8115,-0.7601,-0.7249,-0.6955,-0.6584,-0.6171,-0.5814,-0.5563,-0.5291,-0.5044,-0.4849,-0.4737,-0.4596,-0.4543,-0.4519,-0.4601,-0.4708,-0.4881,-0.513,-0.5432,-0.5837,-0.627,-0.6758,-0.727,-0.7331,-0.7197,-0.5542,-0.3542,-0.1927,0.1166,0.4095,0.6978,0.9801,1.17,1.3325,1.5237,1.6835,1.8197,1.855,1.9211,1.9144,1.9206,1.9168,1.9175,1.916,1.9056,1.8924,1.8843,1.8586,1.8279,1.8128,1.7996,1.7767,1.7577,1.7343,1.7101,1.6806,1.65,1.6175,1.5913,1.5669,-1.5792,-1.5709,-1.5738,-1.5671,-1.5564,-1.5541,-1.5452,-1.5345,-1.5335,-1.5227,-1.5051,-1.5011,-1.4932,-1.484,-1.4702,-1.4505,-1.4332,-1.4203,-1.4104,-1.4057,-1.401,-1.3968,-1.3873,-1.3826,-1.3773,-1.3721,-1.3739,-1.3639,-1.3425,-1.3415,-1.3338,-1.3319,-1.3295,-1.3242,-1.317,-1.3146,-1.3089,-1.3007,-1.2939,-1.2818,-1.2578,-1.2303,-1.1972,-1.1644,-1.1477,-1.1331,-1.1099,-1.0867,-1.062,-1.0381,-1.0069,-0.9673,-0.9417,-0.9136,-0.8695,-0.8138,-0.767,-0.7324,-0.6982,-0.6608,-0.625,-0.605,-0.565,-0.5403,-0.5207,-0.5066,-0.4901,-0.4928,-0.493,-0.4932,-0.5014,-0.5181,-0.5432,-0.5704,-0.6084,-0.6522,-0.6842,-0.727,-0.7723,-0.759,-0.7378,-0.6457,-0.4706,-0.3353,-0.0352,0.1557,0.434,0.6611,0.846,1.1473,1.3489,1.5797,1.7163,1.837,1.8832,1.9166,1.9236,1.938,1.9413,1.9384,1.9206,1.9033,1.8733,1.8456,1.8214,1.8069,1.7801,1.748,1.7197,1.6933,1.6629,1.63,1.5951,1.5613,1.5322,-1.5879,-1.5798,-1.5776,-1.5748,-1.5693,-1.5687,-1.5586,-1.5474,-1.5468,-1.5463,-1.5373,-1.5295,-1.5187,-1.5051,-1.4868,-1.4776,-1.4678,-1.4557,-1.4436,-1.4361,-1.4262,-1.4174,-1.402,-1.3973,-1.4044,-1.4015,-1.401,-1.3892,-1.3792,-1.3844,-1.3744,-1.3615,-1.3544,-1.3467,-1.3314,-1.3343,-1.3175,-1.3181,-1.3161,-1.3064,-1.2818,-1.248,-1.2234,-1.2056,-1.1877,-1.1678,-1.1377,-1.1171,-1.0977,-1.0573,-1.0466,-1.0095,-0.9695,-0.9562,-0.9234,-0.8715,-0.8189,-0.7708,-0.7416,-0.7039,-0.6712,-0.6514,-0.6166,-0.5889,-0.5641,-0.5367,-0.515,-0.5071,-0.5099,-0.5156,-0.5268,-0.5428,-0.5673,-0.5921,-0.6223,-0.649,-0.6783,-0.7198,-0.7649,-0.796,-0.7747,-0.798,-0.7265,-0.6192,-0.4875,-0.3106,-0.119,0.1161,0.3712,0.6756,0.9987,1.2298,1.4282,1.5555,1.7089,1.766,1.8517,1.8959,1.945,1.9526,1.9435,1.9202,1.8981,1.8707,1.8411,1.7962,1.7563,1.7233,1.7017,1.6693,1.6349,1.6038,1.5702,1.5345,1.496,-1.6138,-1.6007,-1.5947,-1.5897,-1.5875,-1.5792,-1.5709,-1.5637,-1.5614,-1.5564,-1.5513,-1.5446,-1.5385,-1.5266,-1.508,-1.4971,-1.4943,-1.4811,-1.4673,-1.4644,-1.4546,-1.45,-1.4476,-1.4452,-1.4447,-1.4424,-1.4441,-1.4476,-1.4325,-1.4085,-1.3915,-1.3868,-1.3815,-1.3797,-1.3605,-1.3634,-1.3568,-1.3449,-1.33,-1.3118,-1.2925,-1.2735,-1.2534,-1.2328,-1.2121,-1.1923,-1.1723,-1.1427,-1.1221,-1.0896,-1.0718,-1.0415,-1.0069,-0.9829,-0.9462,-0.9286,-0.8798,-0.8295,-0.7768,-0.744,-0.7195,-0.692,-0.6596,-0.6268,-0.5971,-0.5725,-0.5565,-0.5517,-0.5489,-0.5519,-0.5574,-0.5732,-0.5841,-0.6059,-0.6329,-0.6517,-0.6758,-0.7117,-0.7521,-0.7833,-0.8146,-0.8299,-0.8531,-0.8047,-0.7271,-0.6556,-0.5011,-0.3233,-0.0699,0.2079,0.5422,0.8746,1.0584,1.2234,1.3994,1.5276,1.6665,1.7492,1.9063,1.9189,1.9501,1.9395,1.915,1.8741,1.8294,1.7835,1.733,1.7023,1.6818,1.6442,1.6066,1.5686,1.5294,1.4909,1.4496,-1.6448,-1.6309,-1.6116,-1.6044,-1.6038,-1.5947,-1.5859,-1.5776,-1.577,-1.5703,-1.5608,-1.5564,-1.5536,-1.5468,-1.5311,-1.5204,-1.5176,-1.504,-1.4931,-1.4908,-1.4863,-1.4828,-1.4759,-1.4753,-1.4753,-1.4799,-1.473,-1.4736,-1.4638,-1.4447,-1.4237,-1.4138,-1.4109,-1.4062,-1.4033,-1.3957,-1.3815,-1.3615,-1.3415,-1.3233,-1.306,-1.2983,-1.2803,-1.2603,-1.2402,-1.2195,-1.2047,-1.1773,-1.1519,-1.1192,-1.0943,-1.0697,-1.0415,-1.0117,-0.9803,-0.9603,-0.9267,-0.8873,-0.8371,-0.7972,-0.7625,-0.73,-0.6974,-0.662,-0.6329,-0.6168,-0.6034,-0.5905,-0.582,-0.5848,-0.5875,-0.5948,-0.6005,-0.6166,-0.6433,-0.6598,-0.6788,-0.712,-0.7365,-0.7577,-0.7919,-0.8268,-0.8577,-0.907,-0.9199,-0.94,-0.855,-0.7165,-0.4772,-0.1895,0.0594,0.3929,0.572,0.7461,0.9375,1.1373,1.3343,1.5642,1.7192,1.8661,1.8838,1.9222,1.9299,1.8817,1.8202,1.7604,1.7025,1.6812,1.6568,1.6088,1.5613,1.5226,1.4817,1.4432,1.4012,-1.6803,-1.6633,-1.6324,-1.6194,-1.6172,-1.6172,-1.61,-1.5979,-1.5979,-1.5897,-1.5764,-1.5703,-1.5614,-1.5513,-1.5491,-1.5446,-1.5446,-1.544,-1.5289,-1.5131,-1.5062,-1.5017,-1.4954,-1.4891,-1.4868,-1.4874,-1.4914,-1.4886,-1.4822,-1.4834,-1.4655,-1.4557,-1.4436,-1.4309,-1.4215,-1.4122,-1.4004,-1.3834,-1.3639,-1.3491,-1.3334,-1.3181,-1.3027,-1.2881,-1.2705,-1.25,-1.2126,-1.2002,-1.1798,-1.1423,-1.1221,-1.0994,-1.0667,-1.0433,-1.0201,-0.9892,-0.9706,-0.9364,-0.8972,-0.853,-0.8162,-0.7815,-0.7408,-0.7001,-0.6766,-0.6519,-0.6332,-0.6232,-0.6143,-0.6059,-0.603,-0.6,-0.6166,-0.6302,-0.6517,-0.6682,-0.6847,-0.7066,-0.7287,-0.7395,-0.7663,-0.7981,-0.8301,-0.8738,-0.9335,-0.9529,-0.9891,-0.8579,-0.7552,-0.5167,-0.378,-0.1493,0.035,0.2146,0.3942,0.6129,0.8784,1.1643,1.3857,1.6138,1.7929,1.838,1.8707,1.864,1.7975,1.7352,1.6695,1.6213,1.578,1.5524,1.5153,1.4669,1.4183,1.37,1.3358,-1.6867,-1.6797,-1.6684,-1.6525,-1.6312,-1.6237,-1.6166,-1.6116,-1.6122,-1.605,-1.5913,-1.5814,-1.5748,-1.5681,-1.5643,-1.5614,-1.5614,-1.5536,-1.5418,-1.5373,-1.5311,-1.5295,-1.5238,-1.5193,-1.5238,-1.5216,-1.5216,-1.5233,-1.5249,-1.517,-1.5204,-1.5085,-1.48,-1.465,-1.4505,-1.4361,-1.4239,-1.4116,-1.3934,-1.3739,-1.3539,-1.3454,-1.3277,-1.3036,-1.2881,-1.27,-1.2471,-1.222,-1.1997,-1.1748,-1.1498,-1.1217,-1.0943,-1.0769,-1.0518,-1.0235,-1.0069,-0.9836,-0.9443,-0.8952,-0.8434,-0.7978,-0.7625,-0.7381,-0.7201,-0.6953,-0.6793,-0.666,-0.6495,-0.6438,-0.6436,-0.6433,-0.649,-0.6547,-0.663,-0.6768,-0.6904,-0.7095,-0.7203,-0.7308,-0.7448,-0.7663,-0.7955,-0.8298,-0.8945,-0.9517,-0.9902,-1.0012,-0.8875,-0.8122,-0.6616,-0.5518,-0.3705,-0.2452,-0.0704,0.1805,0.4426,0.7326,1.0271,1.2861,1.5215,1.713,1.7424,1.7565,1.7518,1.6695,1.5946,1.539,1.5034,1.4852,1.4479,1.4037,1.3529,1.2987,1.271,-1.7031,-1.7002,-1.6975,-1.6833,-1.6556,-1.6411,-1.6318,-1.6309,-1.6281,-1.616,-1.5994,-1.5897,-1.5836,-1.5814,-1.5754,-1.5715,-1.5709,-1.5659,-1.5608,-1.557,-1.5547,-1.5541,-1.5519,-1.5474,-1.543,-1.5497,-1.5497,-1.5468,-1.5446,-1.5497,-1.5446,-1.534,-1.5187,-1.5011,-1.4834,-1.4673,-1.4494,-1.435,-1.4215,-1.3991,-1.3763,-1.3615,-1.352,-1.3258,-1.3079,-1.292,-1.2744,-1.2524,-1.2298,-1.2026,-1.1773,-1.1469,-1.1247,-1.1049,-1.0824,-1.065,-1.0441,-1.0209,-0.9814,-0.9215,-0.8672,-0.8301,-0.8052,-0.7785,-0.7518,-0.7357,-0.7222,-0.7014,-0.6901,-0.6844,-0.6817,-0.6739,-0.6652,-0.6682,-0.6741,-0.6879,-0.6928,-0.7036,-0.7117,-0.7222,-0.7335,-0.7448,-0.7663,-0.8008,-0.8606,-0.9253,-0.9744,-1.0006,-0.9688,-0.9175,-0.8966,-0.8057,-0.7217,-0.6177,-0.5117,-0.2431,0.0202,0.278,0.5839,0.9175,1.1615,1.3728,1.5696,1.6119,1.5988,1.5642,1.5067,1.4295,1.4172,1.4224,1.3726,1.3112,1.2706,1.221,1.2112,-1.7365,-1.7205,-1.7192,-1.708,-1.6882,-1.6746,-1.6605,-1.6485,-1.6426,-1.6241,-1.606,-1.6016,-1.5913,-1.5859,-1.5814,-1.5792,-1.5776,-1.577,-1.5748,-1.5687,-1.5665,-1.5637,-1.558,-1.5536,-1.5564,-1.5519,-1.5558,-1.5603,-1.5558,-1.5608,-1.5586,-1.5536,-1.5446,-1.5317,-1.5119,-1.4914,-1.4678,-1.4448,-1.443,-1.4249,-1.4015,-1.3815,-1.3687,-1.3467,-1.3324,-1.3142,-1.2934,-1.2798,-1.2578,-1.2278,-1.2081,-1.1773,-1.1448,-1.1352,-1.115,-1.0922,-1.0697,-1.0518,-1.0389,-0.9506,-0.9038,-0.8752,-0.8477,-0.8215,-0.7946,-0.7756,-0.7598,-0.7365,-0.7284,-0.7147,-0.7041,-0.6936,-0.6874,-0.6847,-0.6933,-0.696,-0.7012,-0.7033,-0.7112,-0.7139,-0.7225,-0.7338,-0.7448,-0.7714,-0.8315,-0.8912,-0.948,-0.974,-0.9747,-0.9692,-0.9499,-0.9273,-0.8613,-0.8158,-0.7008,-0.613,-0.4018,-0.1487,0.1405,0.4761,0.7793,1.013,1.2008,1.3833,1.4176,1.3635,1.3384,1.3072,1.2851,1.2585,1.255,1.2107,1.1744,1.1498,1.1423,-1.7455,-1.7399,-1.7393,-1.733,-1.7204,-1.6945,-1.6754,-1.6633,-1.6491,-1.6349,-1.6262,-1.6188,-1.6066,-1.5957,-1.5913,-1.5897,-1.582,-1.5814,-1.5776,-1.5776,-1.5776,-1.5748,-1.5691,-1.572,-1.5703,-1.5742,-1.578,-1.5818,-1.5834,-1.5852,-1.5875,-1.584,-1.5697,-1.5547,-1.534,-1.5142,-1.4932,-1.4863,-1.4736,-1.4557,-1.4296,-1.4145,-1.3941,-1.3629,-1.3534,-1.3348,-1.3113,-1.3031,-1.2822,-1.2558,-1.2357,-1.2026,-1.1773,-1.1698,-1.1452,-1.1226,-1.1023,-1.0845,-1.0569,-1.0003,-0.9636,-0.9244,-0.885,-0.8613,-0.8368,-0.8129,-0.7925,-0.7741,-0.7628,-0.7491,-0.7333,-0.7306,-0.7249,-0.7174,-0.7176,-0.7122,-0.712,-0.7114,-0.7109,-0.7109,-0.7168,-0.7255,-0.7365,-0.7499,-0.7969,-0.8259,-0.8751,-0.9093,-0.9178,-0.9234,-0.9175,-0.9279,-0.903,-0.9033,-0.8534,-0.7214,-0.6182,-0.3995,-0.1874,0.0415,0.3334,0.6361,0.8602,1.0567,1.1149,1.1582,1.1512,1.1385,1.1002,1.0775,1.088,1.1074,1.0905,1.0812,1.0841,-1.7713,-1.7632,-1.7659,-1.7557,-1.7412,-1.7128,-1.6897,-1.6697,-1.6562,-1.647,-1.6392,-1.6297,-1.6188,-1.6094,-1.605,-1.605,-1.5937,-1.5953,-1.5953,-1.5931,-1.5925,-1.5947,-1.5941,-1.5925,-1.5953,-1.5969,-1.6007,-1.6066,-1.6044,-1.6128,-1.6122,-1.6035,-1.5909,-1.5786,-1.5597,-1.5418,-1.5176,-1.5062,-1.4914,-1.4782,-1.4575,-1.4407,-1.4204,-1.3965,-1.3776,-1.361,-1.3396,-1.3219,-1.3065,-1.2852,-1.2607,-1.2298,-1.2146,-1.1943,-1.1723,-1.1578,-1.1326,-1.1099,-1.0722,-1.0445,-1.0076,-0.9766,-0.9323,-0.8979,-0.8765,-0.853,-0.8348,-0.8185,-0.802,-0.7836,-0.7705,-0.7678,-0.7577,-0.7473,-0.7362,-0.7308,-0.723,-0.7198,-0.7139,-0.7139,-0.7109,-0.7195,-0.7281,-0.7386,-0.7622,-0.7809,-0.7993,-0.8285,-0.8577,-0.8629,-0.8682,-0.8735,-0.8732,-0.8514,-0.8329,-0.7806,-0.6905,-0.62,-0.4316,-0.2247,-0.016,0.3013,0.5144,0.7225,0.8225,0.9079,0.9606,0.9622,0.9389,0.9351,0.9459,0.9677,0.9932,1.0039,1.0091,-1.8083,-1.7922,-1.7909,-1.774,-1.7502,-1.7288,-1.7009,-1.6718,-1.6697,-1.6583,-1.6414,-1.6399,-1.6312,-1.6216,-1.6194,-1.6172,-1.6156,-1.6156,-1.6156,-1.6156,-1.6128,-1.6144,-1.615,-1.615,-1.6128,-1.6172,-1.6188,-1.6203,-1.6194,-1.6237,-1.6216,-1.6166,-1.6072,-1.5979,-1.5863,-1.5686,-1.5424,-1.5266,-1.5119,-1.4989,-1.4811,-1.4587,-1.4414,-1.4228,-1.4098,-1.3858,-1.3668,-1.353,-1.332,-1.3089,-1.2881,-1.2647,-1.2421,-1.2195,-1.2047,-1.1852,-1.1528,-1.1226,-1.0947,-1.0697,-1.0543,-1.0257,-0.9914,-0.9491,-0.9129,-0.8903,-0.8745,-0.8583,-0.8418,-0.8209,-0.8029,-0.7922,-0.7818,-0.7684,-0.7545,-0.744,-0.7338,-0.7281,-0.7198,-0.7168,-0.7136,-0.7166,-0.7225,-0.7333,-0.7357,-0.7386,-0.7518,-0.7592,-0.783,-0.7993,-0.802,-0.7993,-0.7937,-0.7774,-0.756,-0.7396,-0.6961,-0.6054,-0.5508,-0.372,-0.1853,-0.0054,0.2229,0.428,0.5619,0.6664,0.7688,0.8041,0.796,0.7969,0.8151,0.8577,0.8928,0.9168,0.9249,-1.822,-1.8175,-1.8015,-1.7915,-1.774,-1.7461,-1.7162,-1.6861,-1.6746,-1.6605,-1.6472,-1.6479,-1.6414,-1.6334,-1.6355,-1.6297,-1.6237,-1.6194,-1.6194,-1.6216,-1.6237,-1.6216,-1.6216,-1.6216,-1.6216,-1.6237,-1.6275,-1.6318,-1.6346,-1.634,-1.6334,-1.6334,-1.6203,-1.6166,-1.6072,-1.5935,-1.5714,-1.5519,-1.5351,-1.5193,-1.5028,-1.4829,-1.4645,-1.4466,-1.4343,-1.4122,-1.3939,-1.3721,-1.3507,-1.3411,-1.3109,-1.2866,-1.2754,-1.2578,-1.2426,-1.2051,-1.1753,-1.1477,-1.1247,-1.1095,-1.0947,-1.0697,-1.0385,-0.9988,-0.9599,-0.9316,-0.9136,-0.8945,-0.8791,-0.8583,-0.8398,-0.8268,-0.8109,-0.7946,-0.7812,-0.7684,-0.7553,-0.7419,-0.7362,-0.7225,-0.7195,-0.7139,-0.7195,-0.7168,-0.7195,-0.712,-0.7093,-0.7112,-0.719,-0.7378,-0.7408,-0.7408,-0.727,-0.7136,-0.6915,-0.6723,-0.6399,-0.5937,-0.5302,-0.4668,-0.318,-0.1432,0.0028,0.1839,0.3976,0.5283,0.6242,0.6443,0.6657,0.6775,0.6961,0.7471,0.7925,0.8164,0.8408,-1.847,-1.8358,-1.8247,-1.8082,-1.7869,-1.7577,-1.7281,-1.703,-1.684,-1.669,-1.6571,-1.6528,-1.65,-1.6436,-1.6436,-1.6414,-1.6334,-1.6334,-1.6334,-1.6334,-1.6297,-1.6312,-1.6312,-1.6318,-1.6346,-1.6362,-1.6377,-1.6414,-1.6448,-1.6442,-1.6436,-1.6414,-1.6324,-1.6303,-1.6225,-1.6116,-1.5985,-1.5792,-1.5592,-1.5407,-1.5244,-1.5079,-1.4846,-1.4691,-1.4587,-1.4366,-1.4179,-1.3928,-1.3781,-1.3634,-1.3286,-1.3171,-1.3036,-1.2842,-1.2573,-1.2224,-1.1972,-1.1778,-1.1578,-1.1423,-1.1221,-1.0998,-1.0799,-1.051,-1.0117,-0.9784,-0.9521,-0.9283,-0.9133,-0.8979,-0.8794,-0.8633,-0.8421,-0.8212,-0.8082,-0.7952,-0.7794,-0.7634,-0.7473,-0.7338,-0.7228,-0.7166,-0.7112,-0.7085,-0.7006,-0.6985,-0.6904,-0.6871,-0.6893,-0.6974,-0.6977,-0.6898,-0.6736,-0.6574,-0.6352,-0.6075,-0.5748,-0.5365,-0.4899,-0.4236,-0.357,-0.2449,-0.061,0.1108,0.2859,0.3998,0.4972,0.5277,0.5494,0.5664,0.5857,0.6231,0.677,0.7262,0.7506,-1.8721,-1.8556,-1.8524,-1.8248,-1.7895,-1.7652,-1.7427,-1.7192,-1.7023,-1.6833,-1.669,-1.6571,-1.6528,-1.6494,-1.6485,-1.6506,-1.6463,-1.6463,-1.6442,-1.6472,-1.6463,-1.6463,-1.6463,-1.6506,-1.6448,-1.6491,-1.6506,-1.6479,-1.6506,-1.6485,-1.6479,-1.6472,-1.6436,-1.6392,-1.6371,-1.6269,-1.6166,-1.605,-1.583,-1.5631,-1.5468,-1.5283,-1.5102,-1.5017,-1.4817,-1.4593,-1.4454,-1.4257,-1.4041,-1.3776,-1.3586,-1.3496,-1.3257,-1.3007,-1.2691,-1.2471,-1.2269,-1.2076,-1.1902,-1.1719,-1.1548,-1.1347,-1.1221,-1.0968,-1.0608,-1.0176,-0.9862,-0.9677,-0.9528,-0.9345,-0.9188,-0.9005,-0.8794,-0.8606,-0.8477,-0.8292,-0.8109,-0.7895,-0.7604,-0.747,-0.7284,-0.7225,-0.7171,-0.712,-0.6977,-0.6901,-0.6823,-0.6736,-0.6625,-0.665,-0.6601,-0.647,-0.6223,-0.6032,-0.5809,-0.5532,-0.512,-0.4737,-0.4324,-0.3853,-0.3215,-0.2207,-0.1118,0.0585,0.2231,0.2902,0.3681,0.4067,0.4424,0.4673,0.4868,0.5034,0.55,0.6127,0.6623,-1.8981,-1.8931,-1.8627,-1.8288,-1.7996,-1.7841,-1.7659,-1.7413,-1.7226,-1.6967,-1.674,-1.6675,-1.6592,-1.6522,-1.6506,-1.6506,-1.6506,-1.6506,-1.6506,-1.6506,-1.6506,-1.6506,-1.6506,-1.6506,-1.6506,-1.6506,-1.6506,-1.6506,-1.6506,-1.6506,-1.6506,-1.6506,-1.6485,-1.6479,-1.6451,-1.6377,-1.6312,-1.6247,-1.6066,-1.5852,-1.5681,-1.5497,-1.5334,-1.5176,-1.4977,-1.4846,-1.4685,-1.4477,-1.435,-1.4181,-1.3981,-1.3768,-1.3515,-1.3171,-1.2944,-1.2779,-1.2593,-1.2431,-1.2229,-1.2047,-1.1873,-1.1698,-1.1548,-1.1352,-1.1049,-1.059,-1.0283,-1.0102,-0.9918,-0.9736,-0.958,-0.9372,-0.9188,-0.9028,-0.8844,-0.8633,-0.8448,-0.8129,-0.7815,-0.7577,-0.7395,-0.7314,-0.726,-0.712,-0.695,-0.6842,-0.6763,-0.6652,-0.6384,-0.6302,-0.6305,-0.6146,-0.5734,-0.5515,-0.5321,-0.5042,-0.4684,-0.4241,-0.3798,-0.3328,-0.2801,-0.1763,-0.07,0.0336,0.1539,0.221,0.2711,0.3044,0.3375,0.3707,0.3956,0.4177,0.44,0.4946,0.5527,-1.9183,-1.9052,-1.8685,-1.8406,-1.8208,-1.7996,-1.7808,-1.7659,-1.7399,-1.7156,-1.6931,-1.6782,-1.6669,-1.6577,-1.6528,-1.6506,-1.6506,-1.6506,-1.6506,-1.6506,-1.6506,-1.6506,-1.6506,-1.6506,-1.6506,-1.6506,-1.6506,-1.6506,-1.6506,-1.6506,-1.6506,-1.6506,-1.6506,-1.6506,-1.6479,-1.6457,-1.6414,-1.6371,-1.6213,-1.6072,-1.5893,-1.5709,-1.5547,-1.5396,-1.521,-1.5074,-1.4914,-1.4708,-1.4523,-1.4355,-1.4109,-1.3839,-1.3615,-1.3401,-1.319,-1.3026,-1.2861,-1.2735,-1.2549,-1.2397,-1.2224,-1.2051,-1.1898,-1.1728,-1.1553,-1.112,-1.0773,-1.0565,-1.0389,-1.0235,-1.0003,-0.9792,-0.955,-0.9364,-0.9181,-0.8975,-0.8712,-0.8421,-0.8079,-0.7765,-0.761,-0.7502,-0.7392,-0.7171,-0.6974,-0.6758,-0.6704,-0.6549,-0.628,-0.6034,-0.6037,-0.59,-0.5517,-0.5187,-0.4993,-0.4688,-0.4299,-0.3828,-0.3383,-0.2741,-0.2156,-0.1261,-0.028,0.0392,0.0981,0.1485,0.1959,0.2237,0.2516,0.2849,0.3099,0.332,0.3597,0.3847,0.437,-1.9321,-1.9071,-1.8716,-1.853,-1.8445,-1.8116,-1.7929,-1.7842,-1.7556,-1.7343,-1.7191,-1.691,-1.6767,-1.669,-1.6592,-1.6543,-1.6515,-1.6522,-1.65,-1.6506,-1.6506,-1.6506,-1.6506,-1.6506,-1.6506,-1.6506,-1.6506,-1.6506,-1.6506,-1.6506,-1.6506,-1.6506,-1.6506,-1.6506,-1.6506,-1.65,-1.6451,-1.6414,-1.6349,-1.6312,-1.615,-1.5921,-1.576,-1.5598,-1.5413,-1.5198,-1.5091,-1.4937,-1.4713,-1.4505,-1.4267,-1.4028,-1.3834,-1.3687,-1.3467,-1.33,-1.3147,-1.3017,-1.2866,-1.2666,-1.2524,-1.2382,-1.2254,-1.2101,-1.1923,-1.1678,-1.1301,-1.1078,-1.09,-1.065,-1.0415,-1.0183,-0.994,-0.9725,-0.9521,-0.929,-0.8975,-0.8709,-0.8371,-0.8005,-0.7848,-0.7744,-0.7523,-0.7276,-0.7031,-0.6785,-0.6598,-0.6413,-0.6228,-0.6037,-0.59,-0.5736,-0.5432,-0.5103,-0.4772,-0.4411,-0.4078,-0.3634,-0.316,-0.2351,-0.1624,-0.1093,-0.0561,-0.0028,0.0532,0.0953,0.1261,0.1568,0.182,0.2071,0.2238,0.2488,0.282,0.3098,0.3321,-1.9417,-1.909,-1.9014,-1.8805,-1.8517,-1.8279,-1.8088,-1.7882,-1.772,-1.7536,-1.735,-1.7197,-1.7023,-1.6854,-1.6712,-1.6641,-1.6635,-1.6586,-1.6522,-1.6506,-1.6534,-1.6534,-1.6506,-1.6506,-1.6506,-1.6506,-1.6506,-1.6506,-1.6506,-1.6506,-1.6506,-1.6506,-1.6506,-1.6506,-1.6506,-1.6506,-1.6479,-1.6457,-1.6436,-1.6377,-1.6306,-1.6116,-1.5891,-1.5764,-1.5671,-1.5525,-1.5413,-1.5176,-1.5045,-1.4863,-1.4569,-1.4326,-1.414,-1.3999,-1.3787,-1.3592,-1.344,-1.3315,-1.3142,-1.2958,-1.2818,-1.2725,-1.2573,-1.2377,-1.2229,-1.2081,-1.1807,-1.1632,-1.1402,-1.1023,-1.0794,-1.0573,-1.0334,-1.012,-0.991,-0.9547,-0.9208,-0.8949,-0.8692,-0.8374,-0.8135,-0.7978,-0.7768,-0.7521,-0.7228,-0.7006,-0.6758,-0.6574,-0.6307,-0.6062,-0.582,-0.5572,-0.535,-0.502,-0.4717,-0.4299,-0.3938,-0.3494,-0.2994,-0.2296,-0.1709,-0.129,-0.0785,-0.0336,0.0028,0.0392,0.0673,0.0925,0.1149,0.1373,0.1458,0.1653,0.2014,0.232,0.2543]},{"header":{"parameterUnit":"m.s-1","parameterCategory":1,"la1":31.0,"la2":29.5877,"lo1":-88.7671,"lo2":-86.6584,"dy":0.0162,"dx":0.0185,"nx":115,"ny":88,"refTime":"2024-07-24T06:00:00:Z","depth":0,"parameterNumber":3,"parameterNumberName":"V-component_of_WINDS"},"data":[0.0,0.0,0.0,0.0,0.0,0.0,0.0,0.0,0.0,0.0,0.0,0.0,0.0,0.0,0.0,0.0,0.0,0.0,0.0,0.0,0.0,0.0,0.0,0.0,0.0,0.0,0.0,0.0,0.0,0.0,0.0,0.0,0.0,0.0,0.0,0.0,0.0,0.0,0.0,0.0,0.0,0.0,0.0,0.0,0.0,0.0,0.0,0.0,0.0,0.0,0.0,0.0,0.0,0.0,0.0,0.0,0.0,0.0,0.0,0.0,0.0,0.0,0.0,0.0,0.0,0.0,0.0,0.0,0.0,0.0,0.0,0.0,0.0,0.0,0.0,0.0,0.0,0.0,0.0,0.0,0.0,0.0,0.0,0.0,0.0,0.0,0.0,0.0,0.0,0.0,0.0,0.0,0.0,0.0,0.0,0.0,0.0,0.0,0.0,0.0,0.0,0.0,0.0,0.0,0.0,0.0,0.0,0.0,0.0,0.0,0.0,0.0,0.0,0.0,0.0,0.0,0.0,0.0,0.0,0.0,0.0,0.0,0.0,0.0,0.0,0.0,0.0,0.0,0.0,0.0,0.0,0.0,0.0,0.0,0.0,0.0,0.0,0.0,0.0,0.0,0.0,0.0,0.0,0.0,0.0,0.0,0.0,0.0,0.0,0.0,0.0,0.0,0.0,0.0,0.0,0.0,0.0,0.0,0.0,0.0,0.0,0.0,0.0,0.0,0.0,0.0,0.0,0.0,0.0,0.0,0.0,0.0,0.0,0.0,0.0,0.0,0.0,0.0,0.0,0.0,0.0,0.0,0.0,0.0,0.0,0.0,0.0,0.0,0.0,0.0,0.0,0.0,0.0,0.0,0.0,0.0,0.0,0.0,0.0,0.0,0.0,0.0,0.0,0.0,0.0,0.0,0.0,0.0,0.0,0.0,0.0,0.0,0.0,0.0,0.0,0.0,0.0,0.0,0.0,0.0,0.0,0.0,0.0,0.0,0.0,0.0,0.0,0.0,0.0,0.0,0.0,0.0,0.0,0.0,0.0,0.0,0.0,0.0,0.0,0.0,0.0,0.0,0.0,0.0,0.0,0.0,0.0,0.0,0.0,0.0,0.0,0.0,0.0,0.0,0.0,0.0,0.0,0.0,0.0,0.0,0.0,0.0,0.0,0.0,0.0,0.0,0.0,0.0,0.0,0.0,0.0,0.0,0.0,0.0,0.0,0.0,0.0,0.0,0.0,0.0,0.0,0.0,0.0,0.0,0.0,0.0,0.0,0.0,0.0,0.0,0.0,0.0,0.0,0.0,0.0,0.0,0.0,0.0,0.0,0.0,0.0,0.0,0.0,0.0,0.0,0.0,0.0,0.0,0.0,0.0,0.0,0.0,0.0,0.0,0.0,0.0,0.0,0.0,0.0,0.0,0.0,0.0,0.0,0.0,0.0,0.0,0.0,0.0,0.0,0.0,0.0,0.0,0.0,0.0,0.0,0.0,0.0,0.0,0.0,0.0,0.0,0.0,0.0,0.0,0.0,0.0,0.0,0.0,0.0,0.0,0.0,0.0,0.0,0.0,0.0,0.0,0.0,0.0,0.0,0.0,0.0,0.0,0.0,0.0,0.0,0.0,0.0,0.0,0.0,0.0,0.0,0.0,0.0,0.0,0.0,0.0,0.0,0.0,0.0,0.0,0.0,0.0,0.0,0.0,0.0,0.0,0.0,0.0,0.0,0.0,0.0,0.0,0.0,0.0,0.0,0.0,0.0,0.0,0.0,0.0,0.0,0.0,0.0,0.0,0.0,0.0,0.0,0.0,0.0,0.0,0.0,0.0,0.0,0.0,0.0,0.0,0.0,0.0,0.0,0.0,0.0,0.0,0.0,0.0,0.0,0.0,0.0,0.0,0.0,0.0,0.0,0.0,0.0,0.0,0.0,0.0,0.0,0.0,0.0,0.0,0.0,0.0,0.0,0.0,0.0,0.0,0.0,0.0,0.0,0.0,0.0,0.0,0.0,0.0,0.0,0.0,0.0,0.0,0.0,0.0,0.0,0.0,0.0,0.0,0.0,0.0,0.0,0.0,0.0,0.0,0.0,0.0,0.0,0.0,0.0,0.0,0.0,0.0,0.0,0.0,0.0,0.0,0.0,0.0,0.0,0.0,0.0,0.0,0.0,0.0,0.0,0.0,0.0,0.0,0.0,0.0,0.0,0.0,0.0,0.0,0.0,0.0,0.0,0.0,0.0,0.0,0.0,0.0,0.0,0.0,0.0,0.0,0.0,0.0,0.0,0.0,0.0,0.0,0.0,0.0,0.0,0.0,0.0,0.0,0.0,0.0,0.0,0.0,0.0,0.0,0.0,0.0,0.0,0.0,0.0,0.0,0.0,0.0,0.0,0.0,0.0,0.0,0.0,0.0,0.0,0.0,0.0,0.0,0.0,0.0,0.0,0.0,0.0,0.0,0.0,0.0,0.0,0.0,0.0,0.0,0.0,0.0,0.0,0.0,0.0,0.0,0.0,0.0,0.0,0.0,0.0,0.0,0.0,0.0,0.0,0.0,0.0,0.0,0.0,0.0,0.0,0.0,0.0,0.0,0.0,0.0,0.0,0.0,0.0,0.0,0.0,0.0,0.0,0.0,0.0,0.0,0.0,0.0,0.0,0.0,0.0,0.0,0.0,0.0,0.0,0.0,0.0,0.0,0.0,0.0,0.0,0.0,0.0,0.0,0.0,0.0,0.0,0.0,0.0,0.0,0.0,0.0,0.0,0.0,0.0,0.0,0.0,0.0,0.0,0.0,0.0,0.0,0.0,0.0,0.0,0.0,0.0,0.0,0.0,0.0,0.0,0.0,0.0,0.0,0.0,0.0,0.0,0.0,0.0,0.0,0.0,0.0,0.0,0.0,0.0,0.0,0.0,0.0,0.0,0.0,0.0,0.0,0.0,0.0,0.0,0.0,0.0,0.0,0.0,0.0,0.0,0.0,0.0,0.0,0.0,0.0,0.0,0.0,0.0,0.0,0.0,0.0,0.0,0.0,0.0,0.0,0.0,0.0,0.0,0.0,0.0,0.0,0.0,0.0,0.0,0.0,0.0,0.0,0.0,0.0,0.0,0.0,0.0,0.0,0.0,0.0,0.0,0.0,0.0,0.0,0.0,0.0,0.0,0.0,0.0,0.0,0.0,0.0,0.0,0.0,0.0,0.0,0.0,0.0,0.0,0.0,0.0,0.0,0.0,0.0,0.0,0.0,0.0,0.0,0.0,0.0,0.0,0.0,0.0,0.0,0.0,0.0,0.0,0.0,0.0,0.0,0.0,0.0,0.0,0.0,0.0,0.0,0.0,0.0,0.0,0.0,0.0,0.0,0.0,0.0,0.0,0.0,0.0,0.0,0.0,0.0,0.0,0.0,0.0,0.0,0.0,0.0,0.0,0.0,0.0,0.0,0.0,0.0,0.0,0.0,0.0,0.0,0.0,0.0,0.0,0.0,0.0,0.0,0.0,0.0,0.0,0.0,0.0,0.0,0.0,0.0,0.0,0.0,0.0,0.0,0.0,0.0,0.0,0.0,0.0,0.0,0.0,0.0,0.0,0.0,0.0,0.0,0.0,0.0,0.0,0.0,0.0,0.0,0.0,0.0,0.0,0.0,0.0,0.0,0.0,0.0,0.0,0.0,0.0,0.0,0.0,0.0,0.0,0.0,0.0,0.0,0.0,0.0,0.0,0.0,0.0,0.0,0.0,0.0,0.0,0.0,0.0,0.0,0.0,0.0,0.0,0.0,0.0,0.0,0.0,0.0,0.0,0.0,0.0,0.0,0.0,0.0,0.0,0.0,0.0,0.0,0.0,0.0,0.0,0.0,0.0,0.0,0.0,0.0,0.0,0.0,0.0,0.0,0.0,0.0,0.0,0.0,0.0,0.0,0.0,0.0,0.0,0.0,0.0,0.0,0.0,0.0,0.0,0.0,0.0,0.0,0.0,0.0,0.0,0.0,0.0,0.0,0.0,0.0,0.0,0.0,0.0,0.0,0.0,0.0,0.0,0.0,0.0,0.0,0.0,0.0,0.0,0.0,0.0,0.0,0.0,0.0,0.0,0.0,0.0,0.0,0.0,0.0,0.0,0.0,0.0,0.0,0.0,0.0,0.0,0.0,0.0,0.0,0.0,0.0,0.0,0.0,0.0,0.0,0.0,0.0,0.0,0.0,0.0,0.0,0.0,0.0,0.0,0.0,0.0,0.0,0.0,0.0,0.0,0.0,0.0,0.0,0.0,0.0,0.0,0.0,1.2721,0.0,0.0,0.0,0.0,0.0,0.0,0.0,0.0,0.0,0.0,0.0,0.0,0.0,0.0,0.0,0.0,0.0,0.0,0.0,0.0,0.0,0.0,0.0,0.0,0.0,0.0,0.0,0.0,0.0,0.0,0.0,0.0,0.0,0.0,0.0,0.0,0.0,0.0,0.0,0.0,0.0,0.0,0.0,0.0,0.0,0.0,0.0,0.0,0.0,0.0,0.0,0.0,0.0,0.0,0.0,0.0,0.0,0.0,0.0,0.0,0.0,0.0,0.0,0.0,0.0,0.0,0.0,0.0,0.0,0.0,0.0,0.0,0.0,0.0,0.0,0.0,0.0,0.0,0.0,0.0,0.0,0.0,0.0,0.0,0.0,0.0,0.0,0.0,0.0,0.0,0.0,0.0,0.0,0.0,0.0,0.0,0.0,0.0,0.0,0.0,0.0,0.0,0.0,0.0,0.0,0.0,0.0,0.0,0.0,0.0,1.4668,1.4691,1.4376,1.3993,1.3538,0.0,0.0,0.0,0.0,0.0,0.0,0.0,0.0,0.0,0.0,0.0,0.0,0.0,0.0,0.0,0.0,0.0,0.0,0.0,0.0,0.0,0.0,0.0,0.0,0.0,0.0,0.0,0.0,0.0,0.0,0.0,0.0,0.0,0.0,0.0,0.0,0.0,0.0,0.0,0.0,0.0,0.0,0.0,0.0,0.0,0.0,0.0,0.0,0.0,0.0,0.0,0.0,0.0,0.0,0.0,0.0,0.0,0.0,0.0,0.0,0.0,0.0,0.0,0.0,0.0,0.0,0.0,0.0,0.0,0.0,0.0,0.0,0.0,0.0,0.0,0.0,0.0,0.0,0.0,0.0,0.0,0.0,0.0,0.0,0.0,0.0,0.0,0.0,0.0,0.0,0.0,0.0,0.0,0.0,0.0,0.0,0.0,0.0,0.0,0.0,0.0,0.0,0.0,0.0,0.0,0.0,0.0,0.0,0.0,0.0,0.0,0.0,1.538,1.4836,1.3848,0.0,0.0,0.0,0.0,0.0,0.0,0.0,0.0,0.0,0.0,0.0,0.0,0.0,0.0,0.0,0.0,0.0,0.0,0.0,0.0,0.0,0.0,0.0,0.0,0.0,0.0,0.0,0.0,0.0,0.0,0.0,0.0,0.0,0.0,0.0,0.0,0.0,0.0,0.0,0.0,0.0,0.0,0.0,0.0,0.0,0.0,0.0,0.0,0.0,0.0,0.0,0.0,0.0,0.0,0.0,0.0,0.0,0.0,0.0,0.0,0.0,0.0,0.0,0.0,0.0,0.0,0.0,0.0,0.0,0.0,0.0,0.0,0.0,0.0,0.0,0.0,0.0,0.0,0.0,0.0,0.0,0.0,0.0,0.0,0.0,0.0,0.0,0.0,0.0,0.0,0.0,0.0,0.0,0.0,0.0,0.0,0.0,0.0,0.0,0.0,0.0,0.0,0.0,0.0,0.0,0.0,0.0,0.0,0.0,0.0,1.5603,1.628,1.5648,0.0,1.3086,0.0,0.0,0.0,0.0,0.0,0.0,0.0,0.0,0.0,0.0,0.0,0.0,0.0,0.0,0.0,0.0,0.0,0.0,0.0,0.0,0.0,0.0,0.0,0.0,0.0,0.0,0.0,0.0,0.0,0.0,0.0,0.0,0.0,0.0,0.0,0.0,0.0,0.0,0.0,0.0,0.0,0.0,0.0,0.0,0.0,0.0,0.0,0.0,0.0,0.0,0.0,0.0,0.0,0.0,0.0,0.0,0.0,0.0,0.0,0.0,0.0,0.0,0.0,0.0,0.0,0.0,0.0,0.0,0.0,0.0,0.0,0.0,0.0,0.0,0.0,0.0,0.0,0.0,0.0,0.0,0.0,0.0,0.0,0.0,0.0,0.0,0.0,0.0,0.0,0.0,0.0,0.0,0.0,0.0,0.0,0.0,0.0,0.0,0.0,0.0,0.0,0.0,0.0,0.0,0.0,0.0,0.0,0.0,0.0,0.0,1.6875,1.717,1.6002,1.4834,0.0,0.0,0.0,0.0,0.0,0.0,0.0,0.0,0.0,0.0,0.0,0.0,0.0,0.0,0.0,0.0,0.0,0.0,0.0,0.0,0.0,0.0,0.0,0.0,0.0,0.0,0.0,0.0,0.0,0.0,0.0,0.0,0.0,0.0,0.0,0.0,0.0,0.0,0.0,0.0,0.0,0.0,0.0,0.0,0.0,0.0,0.0,0.0,0.0,0.0,0.0,0.0,0.0,0.0,0.0,0.0,0.0,0.0,0.0,0.0,0.0,0.0,0.0,0.0,0.0,0.0,0.0,0.0,0.0,0.0,0.0,0.0,0.0,0.0,0.0,0.0,0.0,0.0,0.0,0.0,0.0,0.0,0.0,0.0,0.0,0.0,0.0,0.0,0.0,0.0,0.0,0.0,0.0,0.0,0.0,0.0,0.0,0.0,0.0,0.0,0.0,0.0,0.0,0.0,0.0,0.0,0.0,0.0,0.0,0.0,1.7355,1.7623,1.7363,1.6317,1.5251,1.4234,0.0,0.0,0.0,0.0,0.0,0.0,0.0,0.0,0.0,0.0,0.0,0.0,0.0,0.0,0.0,0.0,0.0,0.0,0.0,0.0,0.0,0.0,0.0,0.0,0.0,0.0,0.0,0.0,0.0,0.0,0.0,0.0,0.0,0.0,0.0,0.0,0.0,0.0,0.0,0.0,0.0,0.0,0.0,0.0,0.0,0.0,0.0,0.0,0.0,0.0,0.0,0.0,0.0,0.0,0.0,0.0,0.0,0.0,0.0,0.0,0.0,0.0,0.0,0.0,0.0,0.0,0.0,0.0,0.0,0.0,0.0,0.0,0.0,0.0,0.0,0.0,0.0,0.0,0.0,0.0,0.0,0.0,0.0,0.0,0.0,0.0,0.0,0.0,0.0,0.0,0.0,0.0,0.0,0.0,0.0,0.0,0.0,0.0,0.0,0.0,0.0,0.0,0.0,0.0,0.0,0.0,0.0,0.0,0.0,1.7607,1.7437,1.6727,1.6574,1.5818,0.0,0.0,0.0,0.0,0.0,0.0,0.0,0.0,0.0,0.0,0.0,0.0,0.0,0.0,0.0,0.0,0.0,0.0,0.0,0.0,0.0,0.0,0.0,0.0,0.0,0.0,0.0,0.0,0.0,0.0,0.0,0.0,0.0,0.0,0.0,0.0,0.0,0.0,0.0,0.0,0.0,0.0,0.0,0.0,0.0,0.0,0.0,0.0,0.0,0.0,0.0,0.0,0.0,0.0,0.0,0.0,0.0,0.0,0.0,0.0,0.0,0.0,0.0,0.0,0.0,0.0,0.0,0.0,0.0,0.0,0.0,0.0,0.0,0.0,0.0,0.0,0.0,0.0,0.0,0.0,0.0,0.0,0.0,0.0,0.0,0.0,0.0,0.0,0.0,0.0,0.0,0.0,0.0,0.0,0.0,0.0,0.0,0.0,0.0,0.0,0.0,0.0,0.0,0.0,0.0,0.0,0.0,0.0,0.0,1.6878,1.8007,1.8274,1.753,1.7003,1.6215,0.0,0.0,0.0,0.0,0.0,0.0,0.0,0.0,0.0,0.0,0.0,0.0,0.0,0.0,0.0,0.0,0.0,0.0,0.0,0.0,0.0,0.0,0.0,0.0,0.0,0.0,0.0,0.0,0.0,0.0,0.0,0.0,0.0,0.0,0.0,0.0,0.0,0.0,0.0,0.0,0.0,0.0,0.0,0.0,0.0,0.0,0.0,0.0,0.0,0.0,0.0,0.0,0.0,0.0,0.0,0.0,0.0,0.0,0.0,0.0,0.0,0.0,0.0,0.0,0.0,0.0,0.0,0.0,0.0,0.0,0.0,0.0,0.0,0.0,0.0,0.0,0.0,0.0,0.0,0.0,0.0,0.0,0.0,0.0,0.0,0.0,0.0,0.0,0.0,0.0,0.0,0.0,0.0,0.0,0.0,0.0,0.0,0.0,0.0,0.0,0.0,0.0,0.0,0.0,0.0,0.0,0.0,0.0,0.0,1.7411,0.0,1.8764,0.0,1.7231,1.6405,0.0,0.0,0.0,0.0,0.0,0.0,0.0,0.0,0.0,0.0,0.0,0.0,0.0,0.0,0.0,0.0,0.0,0.0,0.0,0.0,0.0,0.0,0.0,0.0,0.0,0.0,0.0,0.0,0.0,0.0,0.0,0.0,0.0,0.0,0.0,0.0,0.0,0.0,0.0,0.0,0.0,0.0,0.0,0.0,0.0,0.0,0.0,0.0,0.0,0.0,0.0,0.0,0.0,0.0,0.0,0.0,0.0,0.0,0.0,0.0,0.0,0.0,0.0,0.0,0.0,0.0,0.0,0.0,0.0,0.0,0.0,0.0,0.0,0.0,0.0,0.0,0.0,0.0,0.0,0.0,0.0,0.0,0.0,0.0,0.0,0.0,0.0,0.0,0.0,0.0,0.0,0.0,0.0,0.0,0.0,0.0,0.0,0.0,0.0,0.0,0.0,0.0,0.0,0.0,0.0,0.0,0.0,0.0,1.7427,1.8989,1.914,1.8827,1.8033,1.7242,1.644,0.0,0.0,0.0,0.0,0.0,0.0,0.0,0.0,0.0,0.0,0.0,0.0,0.0,0.0,0.0,0.0,0.0,0.0,0.0,0.0,0.0,0.0,0.0,0.0,0.0,0.0,0.0,0.0,0.0,0.0,0.0,0.0,0.0,0.0,0.0,0.0,0.0,0.0,0.0,0.0,0.0,0.0,0.0,0.0,0.0,0.0,0.0,0.0,0.0,0.0,0.0,0.0,0.0,0.0,0.0,0.0,0.0,0.0,0.0,0.0,0.0,0.0,0.0,0.0,0.0,0.0,0.0,0.0,0.0,0.0,0.0,0.0,0.0,0.0,0.0,0.0,0.0,0.0,0.0,0.0,0.0,0.0,0.0,0.0,0.0,0.0,0.0,0.0,0.0,0.0,0.0,0.0,0.0,0.0,0.0,0.0,0.0,0.0,0.0,0.0,0.0,0.0,0.0,0.0,0.0,0.0,0.0,0.0,0.0,1.9199,1.9256,1.9155,1.8865,1.759,1.6737,0.0,0.0,0.0,0.0,0.0,0.0,0.0,0.0,0.0,0.0,0.0,0.0,0.0,0.0,0.0,0.0,0.0,0.0,0.0,0.0,0.0,0.0,0.0,0.0,0.0,0.0,0.0,0.0,0.0,0.0,0.0,0.0,0.0,0.0,0.0,0.0,0.0,0.0,0.0,0.0,0.0,0.0,0.0,0.0,0.0,0.0,0.0,0.0,0.0,0.0,0.0,0.0,0.0,0.0,0.0,0.0,0.0,0.0,0.0,0.0,0.0,0.0,0.0,0.0,0.0,0.0,0.0,0.0,0.0,0.0,0.0,0.0,0.0,0.0,0.0,0.0,0.0,0.0,0.0,0.0,0.0,0.0,0.0,0.0,0.0,0.0,0.0,0.0,0.0,0.0,0.0,0.0,0.0,0.0,0.0,0.0,0.0,0.0,0.0,0.0,0.0,0.0,0.0,0.0,0.0,0.0,0.0,0.0,0.0,1.9344,1.9352,1.9328,1.9349,1.8052,1.7208,1.687,0.0,0.0,0.0,0.0,0.0,0.0,0.0,0.0,0.0,0.0,0.0,0.0,0.0,0.0,0.0,0.0,0.0,0.0,0.0,0.0,0.0,0.0,0.0,0.0,0.0,0.0,0.0,0.0,0.0,0.0,0.0,0.0,0.0,0.0,0.0,0.0,0.0,0.0,0.0,0.0,0.0,0.0,0.0,0.0,0.0,0.0,0.0,0.0,0.0,0.0,0.0,0.0,0.0,0.0,0.0,0.0,0.0,0.0,0.0,0.0,0.0,0.0,0.0,0.0,0.0,0.0,0.0,0.0,0.0,0.0,0.0,0.0,0.0,0.0,0.0,0.0,0.0,0.0,0.0,0.0,0.0,0.0,0.0,0.0,0.0,0.0,0.0,0.0,0.0,0.0,0.0,0.0,0.0,0.0,0.0,0.0,0.0,0.0,0.0,0.0,0.0,0.0,0.0,0.0,0.0,0.0,0.0,0.0,1.9501,1.9438,1.9407,1.9405,1.8552,1.7731,0.0,0.0,0.0,0.0,0.0,0.0,0.0,0.0,0.0,0.0,0.0,0.0,0.0,0.0,0.0,0.0,0.0,0.0,0.0,0.0,0.0,0.0,0.0,0.0,0.0,0.0,0.0,0.0,0.0,0.0,0.0,0.0,0.0,0.0,0.0,0.0,0.0,0.0,0.0,0.0,0.0,0.0,0.0,0.0,0.0,0.0,0.0,0.0,0.0,0.0,0.0,0.0,0.0,0.0,0.0,0.0,0.0,0.0,0.0,0.0,0.0,0.0,0.0,0.0,0.0,0.0,0.0,0.0,0.0,0.0,0.0,0.0,0.0,0.0,0.0,0.0,0.0,0.0,0.0,0.0,0.0,0.0,0.0,0.0,0.0,0.0,0.0,0.0,0.0,0.0,0.0,0.0,0.0,0.0,0.0,0.0,0.0,0.0,0.0,0.0,0.0,0.0,0.0,0.0,0.0,0.0,0.0,0.0,0.0,1.9501,1.9485,1.9468,1.945,1.8583,1.7722,0.0,0.0,0.0,0.0,0.0,0.0,0.0,0.0,0.0,0.0,0.0,0.0,0.0,0.0,0.0,0.0,0.0,0.0,0.0,0.0,0.0,0.0,0.0,0.0,0.0,0.0,0.0,0.0,0.0,0.0,0.0,0.0,0.0,0.0,0.0,0.0,0.0,0.0,0.0,0.0,0.0,0.0,0.0,0.0,0.0,0.0,0.0,0.0,0.0,0.0,0.0,0.0,0.0,0.0,0.0,0.0,0.0,0.0,0.0,0.0,0.0,0.0,0.0,0.0,0.0,0.0,0.0,0.0,0.0,0.0,0.0,0.0,0.0,0.0,0.0,0.0,0.0,0.0,0.0,0.0,0.0,0.0,0.0,0.0,0.0,0.0,0.0,0.0,0.0,0.0,0.0,0.0,0.0,0.0,0.0,0.0,0.0,0.0,0.0,0.0,0.0,0.0,0.0,0.0,0.0,0.0,0.0,0.0,1.9379,1.947,1.947,1.9453,1.947,1.8923,1.8078,0.0,0.0,0.0,0.0,0.0,0.0,0.0,0.0,0.0,0.0,0.0,0.0,0.0,0.0,0.0,0.0,0.0,0.0,0.0,0.0,0.0,0.0,0.0,0.0,0.0,0.0,0.0,0.0,0.0,0.0,0.0,0.0,0.0,0.0,0.0,0.0,0.0,0.0,0.0,0.0,0.0,0.0,0.0,0.0,0.0,0.0,0.0,0.0,0.0,0.0,0.0,0.0,0.0,0.0,0.0,0.0,0.0,0.0,0.0,0.0,0.0,0.0,0.0,0.0,0.0,0.0,0.0,0.0,0.0,0.0,0.0,0.0,0.0,0.0,0.0,0.0,0.0,0.0,0.0,0.0,0.0,0.0,0.0,0.0,0.0,0.0,0.0,0.0,0.0,0.0,0.0,0.0,0.0,0.0,0.0,0.0,0.0,0.0,0.0,0.0,0.0,0.0,0.0,0.0,0.0,0.0,0.0,0.0,1.9478,1.9536,1.96,1.9602,1.9517,1.9386,1.8592,0.0,0.0,0.0,0.0,0.0,0.0,0.0,0.0,0.0,0.0,0.0,0.0,0.0,0.0,0.0,0.0,0.0,0.0,0.0,0.0,0.0,0.0,0.0,0.0,0.0,0.0,0.0,0.0,0.0,0.0,0.0,0.0,0.0,0.0,0.0,0.0,0.0,0.0,0.0,0.0,0.0,0.0,0.0,0.0,0.0,0.0,0.0,0.0,0.0,0.0,0.0,0.0,0.0,0.0,0.0,0.0,0.0,0.0,0.0,0.0,0.0,0.0,0.0,0.0,0.0,0.0,0.0,0.0,0.0,0.0,0.0,0.0,0.0,0.0,0.0,0.0,0.0,0.0,0.0,0.0,0.0,0.0,0.0,0.0,0.0,0.0,0.0,0.0,0.0,0.0,0.0,0.0,0.0,0.0,0.0,0.0,0.0,0.0,0.0,0.0,0.0,0.0,0.0,0.0,0.0,0.0,0.0,0.0,2.0327,2.0344,2.097,2.0987,2.0355,1.9671,1.8849,0.0,0.0,0.0,0.0,0.0,0.0,0.0,0.0,0.0,0.0,0.0,0.0,0.0,0.0,0.0,0.0,0.0,0.0,0.0,0.0,0.0,0.0,0.0,0.0,0.0,0.0,0.0,0.0,0.0,0.0,0.0,0.0,0.0,0.0,0.0,0.0,0.0,0.0,0.0,0.0,0.0,0.0,0.0,0.0,0.0,0.0,0.0,0.0,1.4376,0.0,0.0,0.0,0.0,0.0,0.0,0.0,0.0,0.0,0.0,0.0,0.0,0.0,0.0,0.0,0.0,0.0,0.0,0.0,0.0,0.0,0.0,0.0,0.0,0.0,0.0,0.0,0.0,0.0,0.0,0.0,0.0,0.0,0.0,0.0,0.0,0.0,0.0,0.0,0.0,0.0,0.0,0.0,0.0,0.0,0.0,0.0,0.0,0.0,0.0,0.0,0.0,0.0,0.0,0.0,0.0,0.0,0.0,0.0,2.0536,2.0555,2.1369,2.1406,2.0581,2.0098,1.9312,0.0,0.0,0.0,0.0,0.0,0.0,0.0,0.0,0.0,0.0,0.0,0.0,0.0,0.0,0.0,0.0,0.0,0.0,0.0,0.0,0.0,0.0,0.0,0.0,0.0,0.0,0.0,0.0,0.0,0.0,0.0,0.0,0.0,0.0,0.0,0.0,0.0,0.0,0.0,0.0,0.0,0.0,0.0,0.0,0.0,0.0,0.0,0.0,0.0,0.0,0.0,0.0,0.0,0.0,0.0,0.0,0.0,0.0,0.0,0.0,0.0,0.0,0.0,0.0,0.0,0.0,0.0,0.0,0.0,0.0,0.0,0.0,0.0,0.0,0.0,0.0,0.0,0.0,0.0,0.0,0.0,0.0,0.0,0.0,0.0,0.0,0.0,0.0,0.0,0.0,0.0,0.0,0.0,0.0,0.0,0.0,0.0,0.0,0.0,0.0,0.0,0.0,0.0,0.0,0.0,0.0,0.0,2.0137,2.0672,2.0699,2.164,2.1677,2.0718,2.0672,1.9905,1.8318,0.0,0.0,0.0,0.0,0.0,0.0,0.0,0.0,0.0,0.0,0.0,0.0,0.0,0.0,0.0,0.0,0.0,0.0,0.0,0.0,0.0,0.0,0.0,0.0,0.0,0.0,0.0,0.0,0.0,0.0,0.0,0.0,0.0,0.0,0.0,0.0,0.0,0.0,1.2166,1.342,0.0,0.0,0.0,0.0,0.0,0.0,0.0,0.0,1.5474,0.0,0.0,0.0,0.0,0.0,0.0,0.0,0.0,0.0,0.0,0.0,0.0,0.0,0.0,0.0,0.0,0.0,0.0,0.0,0.0,0.0,0.0,0.0,0.0,0.0,0.0,0.0,0.0,0.0,0.0,0.0,0.0,0.0,0.0,0.0,0.0,0.0,0.0,0.0,0.0,0.0,0.0,0.0,0.0,0.0,0.0,0.0,0.0,0.0,0.0,0.0,0.0,0.0,0.0,0.0,0.0,1.9086,2.0624,2.1406,2.1452,2.2875,2.2921,2.1507,2.1425,2.0632,1.8996,0.0,0.0,0.0,0.0,0.0,0.0,0.0,0.0,0.0,0.0,0.0,0.0,0.0,0.0,0.0,0.0,0.0,0.0,0.0,0.0,0.0,0.0,0.0,0.0,0.0,0.0,0.0,0.0,0.0,0.0,0.0,0.0,0.0,0.0,0.0,0.0,0.0,0.0,0.0,1.4256,1.4888,0.0,0.0,0.0,0.0,0.0,0.0,0.0,0.0,1.708,0.0,0.0,0.0,0.0,0.0,0.0,0.0,0.0,0.0,0.0,0.0,0.0,0.0,0.0,0.0,0.0,0.0,0.0,0.0,0.0,0.0,0.0,0.0,0.0,0.0,0.0,0.0,0.0,0.0,0.0,0.0,0.0,0.0,0.0,0.0,0.0,0.0,0.0,0.0,0.0,0.0,0.0,0.0,0.0,0.0,0.0,0.0,0.0,0.0,0.0,0.0,0.0,0.0,0.0,0.0,1.9044,2.0708,2.1543,2.1571,2.2746,2.2783,2.158,2.117,2.0371,0.0,0.0,0.0,0.0,0.0,0.0,0.0,0.0,0.0,0.0,0.0,0.0,0.0,0.0,0.0,0.0,0.0,0.0,0.0,0.0,0.0,0.0,0.0,0.0,0.0,0.0,0.0,0.0,0.0,0.0,0.0,0.0,0.0,0.0,0.0,0.0,0.0,0.0,0.0,0.0,1.5244,1.6037,1.6712,0.0,0.0,0.0,0.0,0.0,0.0,1.8215,1.8103,0.0,0.0,0.0,0.0,0.0,0.0,0.0,0.0,0.0,0.0,0.0,0.0,0.0,0.0,0.0,0.0,0.0,0.0,0.0,0.0,0.0,0.0,0.0,0.0,0.0,0.0,0.0,0.0,0.0,0.0,0.0,0.0,0.0,0.0,0.0,0.0,0.0,0.0,0.0,0.0,0.0,0.0,0.0,0.0,0.0,0.0,0.0,0.0,0.0,0.0,0.0,0.0,0.0,0.0,0.0,1.8966,2.0635,2.1478,2.1515,2.2344,2.2371,2.1524,2.078,1.9937,0.0,0.0,0.0,0.0,0.0,0.0,0.0,0.0,0.0,0.0,0.0,0.0,0.0,0.0,0.0,0.0,0.0,0.0,0.0,0.0,0.0,0.0,0.0,0.0,0.0,0.0,0.0,0.0,0.0,0.0,0.0,0.0,0.0,0.0,0.0,0.0,0.0,0.0,0.0,0.0,0.0,1.7156,1.7439,1.7924,0.0,0.0,0.0,0.0,1.9399,1.9181,0.0,0.0,0.0,0.0,0.0,0.0,0.0,0.0,0.0,0.0,0.0,0.0,0.0,0.0,0.0,0.0,0.0,0.0,0.0,0.0,0.0,0.0,0.0,0.0,0.0,0.0,0.0,0.0,0.0,0.0,0.0,0.0,0.0,0.0,0.0,0.0,0.0,0.0,0.0,0.0,0.0,0.0,0.0,0.0,0.0,0.0,0.0,0.0,0.0,0.0,0.0,0.0,0.0,0.0,0.0,0.0,1.8896,2.0552,2.1421,2.1457,2.2246,2.2329,2.1523,2.0735,1.9884,0.0,0.0,0.0,0.0,0.0,0.0,0.0,0.0,0.0,0.0,0.0,0.0,0.0,0.0,0.0,0.0,0.0,0.0,0.0,0.0,0.0,0.0,0.0,0.0,0.0,0.0,0.0,0.0,0.0,0.0,0.0,0.0,0.0,0.0,0.0,0.0,0.0,0.0,0.0,0.0,0.0,1.7661,1.8942,1.9136,1.9196,0.0,0.0,2.0181,2.0551,2.0175,0.0,0.0,0.0,0.0,0.0,0.0,0.0,0.0,0.0,0.0,0.0,0.0,0.0,0.0,0.0,0.0,0.0,0.0,0.0,0.0,0.0,0.0,0.0,0.0,0.0,0.0,0.0,0.0,0.0,0.0,0.0,0.0,0.0,0.0,0.0,0.0,0.0,0.0,0.0,0.0,0.0,0.0,0.0,0.0,0.0,0.0,0.0,0.0,0.0,0.0,0.0,0.0,0.0,0.0,0.0,1.7249,1.8869,2.0065,2.0697,2.078,2.1151,2.1169,2.0825,2.0038,1.9397,0.0,0.0,0.0,0.0,0.0,0.0,0.0,0.0,0.0,0.0,0.0,0.0,0.0,0.0,0.0,0.0,0.0,0.0,0.0,0.0,0.0,0.0,0.0,0.0,0.0,0.0,0.0,0.0,0.0,0.0,0.0,0.0,0.0,0.0,0.0,0.0,0.0,0.0,0.0,0.0,0.0,0.0,1.9495,1.9913,0.0,0.0,0.0,2.1181,2.1755,0.0,0.0,0.0,0.0,0.0,0.0,0.0,0.0,0.0,0.0,0.0,0.0,0.0,0.0,0.0,0.0,0.0,0.0,0.0,0.0,0.0,0.0,0.0,0.0,0.0,0.0,0.0,0.0,0.0,0.0,0.0,0.0,0.0,0.0,0.0,0.0,0.0,0.0,0.0,0.0,0.0,0.0,0.0,0.0,0.0,0.0,0.0,0.0,0.0,0.0,0.0,0.0,0.0,0.0,0.0,0.0,0.0,1.8878,1.9678,2.0146,2.0264,2.03,2.03,2.0282,1.9512,0.0,0.0,0.0,0.0,0.0,0.0,0.0,0.0,0.0,0.0,0.0,0.0,0.0,0.0,0.0,0.0,0.0,0.0,0.0,0.0,0.0,0.0,0.0,0.0,0.0,0.0,0.0,1.2209,0.0,0.0,0.0,0.0,0.0,0.0,0.0,0.0,0.0,0.0,0.0,0.0,0.0,0.0,1.9887,2.0259,2.0754,2.1251,0.0,0.0,2.2069,2.2539,2.2017,2.1424,0.0,0.0,0.0,0.0,0.0,0.0,0.0,0.0,0.0,0.0,0.0,0.0,0.0,0.0,0.0,0.0,0.0,0.0,0.0,0.0,0.0,0.0,0.0,0.0,0.0,0.0,0.0,0.0,0.0,0.0,0.0,0.0,0.0,0.0,0.0,0.0,0.0,0.0,0.0,0.0,0.0,0.0,0.0,0.0,0.0,0.0,0.0,0.0,0.0,0.0,0.0,0.0,0.0,0.0,0.0,1.8878,1.9686,2.0128,2.0192,2.0264,2.03,2.0273,1.9522,1.8717,0.0,0.0,0.0,0.0,0.0,0.0,0.0,0.0,0.0,0.0,0.0,0.0,0.0,0.0,0.0,0.0,0.0,0.0,0.0,0.0,0.0,0.0,0.0,0.0,0.0,0.0,0.0,0.0,0.0,0.0,0.0,0.0,0.0,0.0,0.0,0.0,0.0,0.0,0.0,0.0,0.0,2.0402,2.1839,2.1955,2.216,0.0,0.0,2.2725,2.269,2.2539,2.2109,2.1236,0.0,0.0,0.0,0.0,0.0,0.0,0.0,0.0,0.0,0.0,0.0,0.0,0.0,0.0,0.0,0.0,0.0,0.0,0.0,0.0,0.0,0.0,0.0,0.0,0.0,0.0,0.0,0.0,0.0,0.0,0.0,0.0,0.0,0.0,0.0,0.0,0.0,0.0,0.0,0.0,0.0,0.0,0.0,0.0,0.0,0.0,0.0,0.0,0.0,0.0,0.0,0.0,0.0,1.8115,1.8896,1.9237,1.9443,1.9514,1.9549,1.9567,1.9558,1.9259,1.869,0.0,0.0,0.0,0.0,0.0,0.0,0.0,0.0,0.0,0.0,0.0,0.0,0.0,0.0,0.0,0.0,0.0,0.0,0.0,0.0,0.0,0.0,0.0,0.0,0.0,0.0,0.0,0.0,1.4428,1.5373,1.6541,0.0,0.0,0.0,0.0,0.0,0.0,0.0,0.0,0.0,0.0,2.1572,2.2232,2.2591,0.0,0.0,2.2961,2.2816,2.2667,2.2552,2.2344,2.1907,2.1701,0.0,0.0,0.0,0.0,0.0,0.0,0.0,0.0,0.0,0.0,0.0,0.0,0.0,0.0,0.0,0.0,0.0,0.0,0.0,0.0,0.0,0.0,0.0,0.0,0.0,0.0,0.0,0.0,0.0,0.0,0.0,0.0,0.0,0.0,0.0,0.0,0.0,0.0,0.0,0.0,0.0,0.0,0.0,0.0,0.0,0.0,0.0,0.0,0.0,0.0,0.0,0.0,1.84,1.8922,1.901,1.9044,1.9104,1.9104,1.9103,1.9103,1.9103,1.8706,0.0,0.0,0.0,0.0,0.0,0.0,0.0,0.0,0.0,0.0,0.0,0.0,0.0,0.0,0.0,0.0,0.0,0.0,0.0,0.0,0.0,0.0,0.0,0.0,0.0,0.0,0.0,0.0,1.5574,1.6541,1.7594,0.0,0.0,0.0,0.0,0.0,0.0,0.0,0.0,0.0,0.0,2.2373,2.2657,2.3051,2.3265,2.3111,2.294,2.2803,2.2646,2.2525,2.2432,2.2302,0.0,0.0,0.0,0.0,0.0,0.0,0.0,0.0,0.0,0.0,0.0,0.0,0.0,0.0,0.0,0.0,0.0,0.0,0.0,0.0,0.0,0.0,0.0,0.0,0.0,0.0,0.0,0.0,0.0,0.0,1.4982,0.0,0.0,0.0,0.0,0.0,0.0,0.0,0.0,0.0,0.0,0.0,0.0,0.0,0.0,0.0,0.0,0.0,0.0,0.0,0.0,0.0,0.0,1.8974,1.9019,1.9098,1.9122,1.9113,1.911,1.9125,1.9107,1.9107,1.8741,1.7997,0.0,0.0,0.0,0.0,0.0,0.0,0.0,0.0,0.0,0.0,0.0,0.0,0.0,0.0,0.0,0.0,0.0,0.0,0.0,0.0,0.0,0.0,0.0,0.0,0.0,0.0,1.5697,1.6976,1.7827,0.0,0.0,0.0,0.0,0.0,0.0,0.0,0.0,0.0,0.0,2.2307,2.2632,2.3276,2.3339,2.325,2.3119,2.2881,2.2699,2.272,2.255,2.2372,0.0,0.0,0.0,0.0,0.0,0.0,0.0,0.0,0.0,0.0,0.0,0.0,0.0,0.0,0.0,0.0,0.0,0.0,0.0,0.0,0.0,0.0,0.0,0.0,0.0,0.0,0.0,1.6263,1.6,0.0,0.0,0.0,0.0,0.0,0.0,0.0,0.0,0.0,0.0,0.0,1.9485,1.952,0.0,0.0,0.0,0.0,0.0,0.0,0.0,0.0,0.0,0.0,0.0,0.0,1.9425,1.9837,1.9926,1.9969,1.9969,1.9959,1.9713,1.9177,1.9159,1.8563,1.7292,0.0,0.0,0.0,0.0,0.0,0.0,0.0,0.0,0.0,0.0,0.0,0.0,0.0,0.0,0.0,0.0,0.0,0.0,0.0,0.0,0.0,0.0,0.0,0.0,0.0,1.6168,0.0,0.0,0.0,0.0,0.0,0.0,0.0,0.0,0.0,0.0,0.0,2.2268,2.309,2.3122,2.315,2.3426,2.3301,2.3295,0.0,0.0,0.0,0.0,0.0,0.0,0.0,0.0,0.0,0.0,0.0,0.0,0.0,0.0,2.2077,2.1928,2.1697,2.153,2.1522,0.0,0.0,0.0,0.0,0.0,0.0,0.0,0.0,0.0,0.0,0.0,0.0,0.0,0.0,1.7806,0.0,1.7754,0.0,0.0,0.0,0.0,0.0,0.0,0.0,0.0,2.0427,2.0776,2.1337,2.1337,2.1327,0.0,2.1266,2.0595,0.0,0.0,0.0,0.0,0.0,0.0,0.0,0.0,1.9689,2.0374,2.0454,2.0444,2.0453,2.0445,2.007,1.9268,1.9257,1.8674,1.7426,1.6606,1.5815,0.0,0.0,0.0,0.0,0.0,0.0,0.0,0.0,0.0,0.0,0.0,0.0,0.0,0.0,0.0,0.0,0.0,0.0,0.0,0.0,0.0,0.0,0.0,1.7235,0.0,0.0,0.0,0.0,0.0,0.0,0.0,0.0,0.0,2.2371,2.264,2.3018,2.3551,2.3487,2.3392,2.3369,0.0,0.0,0.0,0.0,0.0,0.0,0.0,2.2352,2.231,2.2254,2.2242,2.2234,2.2225,2.2248,2.2274,0.0,0.0,2.2141,2.2081,2.2061,2.2004,2.2044,2.2098,2.2183,2.222,2.2248,0.0,0.0,0.0,0.0,0.0,0.0,0.0,0.0,1.8006,1.8028,0.0,1.8027,0.0,0.0,0.0,0.0,0.0,2.2807,0.0,0.0,2.2928,2.3032,2.3069,2.3054,2.3084,2.3098,2.2991,2.2909,2.2742,2.0978,0.0,0.0,0.0,0.0,0.0,0.0,1.9865,2.0693,2.0737,2.0675,2.0625,2.0625,2.0231,1.9343,1.9372,1.9038,1.8309,1.7528,1.6765,1.5932,1.5168,0.0,0.0,0.0,0.0,0.0,0.0,0.0,0.0,0.0,0.0,0.0,0.0,0.0,0.0,0.0,0.0,0.0,0.0,0.0,0.0,1.7466,0.0,0.0,0.0,0.0,0.0,0.0,0.0,0.0,0.0,0.0,2.2587,2.3158,2.3591,2.3508,0.0,0.0,0.0,0.0,2.3976,2.3807,2.3667,2.3514,2.3493,2.2818,2.2305,2.2305,0.0,0.0,2.2305,2.2305,2.2296,2.2305,2.2296,2.2296,2.2274,2.224,2.216,2.2036,2.2106,2.2183,2.2183,2.2234,2.2282,1.9752,0.0,0.0,0.0,0.0,1.9744,1.9744,1.9754,1.9754,1.9748,1.9789,2.0375,0.0,0.0,0.0,0.0,0.0,0.0,2.3016,2.3069,2.3072,2.3068,2.3106,2.3098,2.3098,2.3106,2.3077,2.3067,2.302,2.2444,2.1746,2.0938,0.0,0.0,0.0,0.0,2.1197,2.2436,2.253,2.249,2.2425,2.1888,2.0911,1.9472,1.947,1.9098,1.8326,1.8115,1.7381,1.6056,1.5802,0.0,0.0,0.0,0.0,0.0,0.0,0.0,0.0,0.0,0.0,0.0,0.0,0.0,0.0,0.0,0.0,0.0,0.0,0.0,1.7725,1.8784,1.9482,0.0,0.0,0.0,0.0,0.0,0.0,0.0,0.0,0.0,2.3439,2.3559,2.3643,0.0,0.0,2.3205,2.3049,2.3067,2.3247,2.361,2.3144,0.0,2.3352,2.2798,2.2305,2.2305,2.2305,2.2305,2.2305,2.2262,2.224,2.2305,2.22,2.211,2.2223,2.2268,2.224,2.2174,2.2168,2.216,2.2083,2.2064,2.2087,2.1008,2.0996,2.0651,2.0512,2.0512,2.0511,2.0512,2.0511,2.0529,2.0712,2.104,2.1567,2.198,2.2308,2.3155,0.0,0.0,0.0,2.4084,2.4126,2.4124,2.4129,2.4131,2.4141,2.4121,2.4141,2.412,2.4124,2.411,2.3746,2.3213,2.2519,0.0,0.0,2.1662,2.1616,2.2198,2.3362,2.3399,2.3364,2.3267,2.2156,2.0919,1.9601,1.953,1.9329,1.8907,1.8615,1.789,1.6618,1.6276,1.5776,0.0,0.0,0.0,0.0,0.0,0.0,0.0,0.0,0.0,0.0,0.0,1.4256,1.4266,0.0,0.0,0.0,1.6772,1.7714,1.9036,1.9872,0.0,0.0,0.0,0.0,0.0,0.0,0.0,2.3437,2.3781,2.3927,2.3825,2.3714,2.3618,2.3485,2.3286,2.3061,2.2898,0.0,2.3192,2.3477,2.3121,2.2914,2.3258,2.2689,2.2183,2.2186,2.2169,2.2169,2.2183,2.2149,2.2135,2.2155,2.2104,2.2052,2.211,2.2161,2.2186,2.2135,2.2129,2.2106,2.2021,2.1998,2.1998,2.1903,2.1818,2.1029,2.0677,2.06,2.0532,2.0513,2.0522,2.0642,2.1102,2.1806,2.1953,2.248,2.3348,2.4143,0.0,2.5696,2.5696,2.567,2.5693,2.5693,2.5693,2.5692,2.5687,2.5695,2.5689,2.5701,2.5693,2.5634,2.4885,2.447,2.4375,2.3483,2.2958,2.281,2.269,2.2988,2.3694,2.3658,2.3549,2.3394,2.1837,2.0602,1.9742,1.9649,1.9674,1.9779,1.9103,1.8333,1.7548,1.6814,1.6019,1.5181,0.0,0.0,0.0,0.0,0.0,0.0,0.0,0.0,0.0,0.0,0.0,0.0,0.0,0.0,0.0,1.7977,0.0,1.9938,2.074,0.0,0.0,0.0,2.2642,2.3238,2.3315,2.354,2.4154,0.0,0.0,2.3816,2.3669,2.3514,2.328,2.3102,2.291,2.2703,2.3186,2.3522,2.3264,2.3277,2.3232,2.3014,2.2442,2.1992,2.1976,2.199,2.1992,2.1992,2.1969,2.1984,2.1969,2.2017,2.2042,2.1969,2.1963,2.1961,2.1955,2.1992,2.1976,2.1969,2.1969,2.1969,2.2712,2.2705,2.2483,2.206,2.143,2.0769,2.0507,2.0546,2.1209,2.162,2.1875,2.3193,2.4263,2.5091,2.5301,2.5508,2.5693,2.5702,2.57,2.5698,2.5693,2.5698,2.5697,2.5701,2.5699,2.5696,2.5697,2.5692,2.5689,2.5488,2.5389,2.5351,2.5062,2.4545,2.3791,2.3688,2.4003,2.473,2.4683,2.4282,2.3564,2.2454,2.151,2.0676,2.0076,1.9785,1.9867,1.9739,1.9302,1.8512,1.8335,1.7601,1.615,1.6127,0.0,0.0,0.0,0.0,0.0,0.0,0.0,0.0,0.0,1.6158,1.6168,0.0,1.77,0.0,1.9278,1.9924,2.006,2.0838,0.0,0.0,2.251,2.3399,2.3453,2.3895,2.4249,2.433,2.4209,2.4006,2.3764,2.3562,2.3354,2.3045,2.2961,2.282,2.2596,2.2574,2.2553,2.2379,2.2314,2.2254,2.2226,2.2017,2.184,2.184,2.184,2.1846,2.1855,2.1804,2.1774,2.1768,2.1748,2.1709,2.1701,2.1694,2.1701,2.1709,2.1827,2.1913,2.1869,2.184,2.1846,2.3534,2.3544,2.3544,2.328,2.2807,2.1973,2.1611,2.166,2.2123,2.2553,2.2991,2.4345,2.5205,2.5655,2.5665,2.5661,2.5663,2.5668,2.5655,2.5655,2.5668,2.5663,2.5654,2.5667,2.5665,2.5649,2.5668,2.5663,2.5662,2.5698,2.5698,2.5693,2.5669,2.5353,2.4789,2.4704,2.4841,2.5186,2.5083,2.4591,2.3714,2.2769,2.1916,2.1101,2.0321,1.9915,1.9959,2.0016,1.9687,1.8905,1.8905,1.8365,1.7109,1.7064,1.6877,0.0,0.0,0.0,0.0,0.0,0.0,0.0,0.0,0.0,0.0,0.0,1.8738,1.9555,2.0033,2.0427,2.0747,2.1509,2.2139,2.2441,2.3544,2.4219,2.4106,2.4387,2.4531,2.4411,2.4219,2.4015,2.3724,2.3495,2.3241,2.2927,2.2786,2.2641,2.2438,2.2243,2.2075,2.1926,2.1825,2.173,2.1646,2.1609,2.157,2.1587,2.1563,2.1563,2.157,2.1548,2.1527,2.1519,2.1488,2.1465,2.1457,2.1401,2.1377,2.1464,2.1587,2.167,2.17,2.1724,2.1716,2.4322,2.4322,2.4341,2.4351,2.4277,2.3576,2.3168,2.2999,2.3109,2.3639,2.4497,2.5257,2.5581,2.5581,2.5583,2.5592,2.5591,2.5601,2.5603,2.5601,2.5603,2.5601,2.5603,2.5602,2.5607,2.561,2.5607,2.561,2.5607,2.566,2.569,2.5694,2.5701,2.5662,2.5606,2.5554,2.5453,2.5311,2.5195,2.4774,2.3988,2.2985,2.2114,2.1379,2.05,2.0018,2.0021,2.0084,1.9801,1.9136,1.9145,1.8807,1.8028,1.7964,1.7951,0.0,1.791,0.0,0.0,0.0,0.0,0.0,0.0,0.0,0.0,1.8817,1.9597,2.0359,2.0499,2.0856,2.1554,2.2447,2.3216,2.3849,2.4587,2.4968,2.4828,2.4759,2.4626,2.4421,2.4228,2.4005,2.3701,2.3449,2.3172,2.2872,2.2597,2.2365,2.2223,2.2026,2.1855,2.1759,2.1617,2.1465,2.1309,2.1254,2.1246,2.123,2.1238,2.1254,2.1238,2.1238,2.1262,2.1278,2.127,2.127,2.1278,2.1174,2.1158,2.127,2.1333,2.1418,2.1542,2.1604,2.1613,2.5096,2.5091,2.5106,2.5096,2.5067,2.487,2.4063,2.2968,2.3666,2.4459,2.5276,2.5439,2.5508,2.5515,2.5515,2.5511,2.5523,2.5574,2.5608,2.5608,2.5606,2.5608,2.5608,2.5606,2.5603,2.5603,2.5603,2.5603,2.5606,2.5608,2.5613,2.5613,2.5669,2.5698,2.5683,0.0,0.0,0.0,2.5369,2.5249,2.4968,2.3459,2.2557,2.2307,2.0862,0.0,2.0167,2.0172,2.0146,2.0051,2.0044,0.0,0.0,0.0,0.0,0.0,0.0,0.0,0.0,0.0,0.0,0.0,2.0058,1.9752,1.9045,1.9738,2.0303,2.0474,2.1056,2.1508,2.1693,2.3062,2.3942,2.3995,2.4683,2.5081,2.4902,2.4781,2.4622,2.4439,2.4209,2.3954,2.3587,2.3307,2.3008,2.2641,2.2284,2.203,2.185,2.1776,2.1678,2.1494,2.1324,2.1159,2.0999,2.0918,2.0901,2.0893,2.0893,2.0909,2.0958,2.0966,2.1023,2.1103,2.1127,2.1135,2.1127,2.1127,2.1087,2.1151,2.1143,2.1215,2.1402,2.1519,2.1613,2.5201,0.0,2.5202,2.5166,0.0,2.5128,2.4655,2.3981,2.4466,2.4951,2.5398,2.5401,2.5399,2.5406,2.5401,2.5416,2.5448,2.5494,2.5511,2.5547,2.555,2.5541,2.5541,2.5541,2.555,2.5541,2.5541,2.555,2.555,2.5541,2.5547,2.5549,2.5621,2.5651,2.5652,2.5692,2.5628,2.5502,2.5469,2.5232,2.4734,2.3468,2.2573,2.2094,0.0,0.0,0.0,0.0,0.0,0.0,0.0,0.0,0.0,0.0,0.0,1.9226,1.9206,1.9414,1.9794,1.99,2.0114,2.0505,2.0573,2.04,1.9922,2.0293,2.072,2.1104,2.1521,2.2092,2.2918,2.3731,2.4324,2.4619,2.4983,2.513,2.4922,2.4755,2.4596,2.4393,2.4152,2.3834,2.354,2.3211,2.2872,2.2503,2.2166,2.1838,2.1601,2.151,2.1402,2.1159,2.0998,2.0851,2.0729,2.067,2.0654,2.0654,2.0662,2.0678,2.0696,2.0712,2.072,2.0801,2.0809,2.0801,2.0809,2.0809,2.0801,2.0801,2.0859,2.0932,2.1055,2.1231,2.1365,2.5043,2.5035,2.5057,2.5009,2.4964,2.4967,2.4942,2.4945,0.0,0.0,0.0,2.5272,2.5274,2.5265,2.5269,2.5312,2.5363,2.5381,2.5404,2.5464,2.5473,2.5464,2.5468,2.5468,2.5454,2.5468,2.5468,2.5477,2.5458,2.5466,2.5485,2.5476,2.555,2.5571,2.5596,2.5653,2.5654,2.5608,2.5541,2.51,2.4228,2.3373,2.2501,2.1626,2.0769,2.0314,2.0317,2.0378,2.042,2.0415,2.0416,2.0445,2.0501,2.0509,2.051,2.0507,2.0507,2.0513,2.0507,2.0542,2.0656,2.0803,2.08,2.0818,2.0828,2.0825,2.116,2.1969,2.2159,2.2839,2.4171,2.4382,2.4653,2.5252,2.5244,2.5116,2.4929,2.4721,2.4526,2.4339,2.4037,2.37,2.3438,2.3111,2.2742,2.2376,2.2044,2.1675,2.1363,2.1214,2.1079,2.0794,2.0661,2.0543,2.046,2.0409,2.0409,2.0399,2.0409,2.0401,2.0426,2.0418,2.0443,2.0484,2.046,2.0477,2.0484,2.0484,2.046,2.046,2.056,2.0643,2.0676,2.0834,2.1022,2.483,2.4832,2.4846,2.4824,2.4834,2.4759,2.4744,2.4766,2.4942,2.5078,2.5137,2.5137,2.5132,2.5124,2.5194,2.521,2.524,2.5273,2.5317,2.5327,2.5317,2.5327,2.5327,2.5327,2.5327,2.5327,2.5327,2.5337,2.5337,2.5382,2.5401,2.5422,2.5473,2.5509,2.5515,2.5586,2.5608,2.5602,2.5601,2.5158,2.43,2.3435,2.2574,2.1692,2.0834,2.0385,2.0384,2.0449,2.0479,2.0479,2.0493,2.0495,2.0504,2.0507,2.0506,2.0507,2.0509,2.0507,2.0508,2.0503,2.0828,2.1549,2.1637,2.1654,2.1709,2.1709,2.2049,2.2847,2.3528,2.4084,2.4339,2.491,2.5301,2.5359,2.5284,2.5115,2.4919,2.4721,2.4493,2.4192,2.3949,2.3633,2.3235,2.291,2.2553,2.2135,2.1789,2.1426,2.0949,2.0785,2.0685,2.0483,2.0289,2.0187,2.016,2.0106,2.0096,2.0076,2.0086,2.0088,2.016,2.016,2.0202,2.0296,2.0296,2.0296,2.0314,2.0331,2.0314,2.0321,2.0381,2.044,2.044,2.0526,2.0654,2.4673,2.464,2.4645,2.4621,2.4578,2.4552,2.4553,2.4552,2.4626,2.4766,2.4947,2.4976,2.4983,2.5,2.5025,2.5075,2.5103,2.5136,2.5149,2.5195,2.5175,2.5187,2.5197,2.5206,2.5197,2.5191,2.5187,2.5217,2.5247,2.5278,2.5303,2.5346,2.5372,2.541,2.5434,2.547,2.5518,2.5544,2.5606,2.4999,2.3686,2.3268,2.2418,2.1079,2.0638,2.0454,2.046,2.0481,2.0507,2.0511,2.0506,2.0508,2.0507,2.0512,2.0511,2.0508,2.0507,2.0503,2.0505,2.0949,2.1587,2.2414,2.25,2.2725,2.3226,2.2812,2.29,2.3697,2.4192,2.4581,2.4955,2.5344,2.5499,2.5394,2.5264,2.5126,2.4922,2.4683,2.4424,2.4136,2.3827,2.3477,2.3107,2.2747,2.2362,2.1907,2.1457,2.0941,2.0526,2.0331,2.022,2.0166,2.0061,1.994,1.9879,1.9851,1.9823,1.9823,1.9841,1.9851,1.9887,1.9879,1.9904,1.9957,1.9975,1.9975,1.9975,1.9985,2.0018,2.0035,2.0121,2.0181,2.0198,2.0287,2.0443,2.4489,2.4418,2.4427,2.4409,2.4347,2.4347,2.4365,2.4355,2.4364,2.4477,2.4687,2.4802,2.4844,2.4847,2.4858,2.4886,2.4942,2.4945,2.4977,2.5032,2.5053,2.5058,2.5049,2.5049,2.5049,2.5058,2.5049,2.5089,2.5153,2.5147,2.519,2.5256,2.5279,2.5288,2.5361,2.5374,2.5405,2.546,2.5589,2.4904,2.3444,2.3366,2.2636,2.1201,2.1094,2.1084,2.1084,2.0908,2.079,2.0779,2.0609,2.0507,2.0503,2.051,2.0584,2.0758,2.0797,2.0871,2.1085,2.1679,2.2456,2.3291,2.3384,2.3772,2.4501,2.4077,2.3955,2.456,2.4708,2.4981,2.5463,2.5593,2.5554,2.5422,2.5279,2.5111,2.4922,2.467,2.4391,2.4078,2.371,2.3354,2.2977,2.2566,2.2101,2.1533,2.0974,2.0501,2.022,1.9917,1.98,1.9762,1.9733,1.969,1.9628,1.9636,1.9636,1.9628,1.9617,1.9636,1.9636,1.9643,1.9636,1.9654,1.9643,1.9669,1.9654,1.9672,1.9715,1.9726,1.982,1.9909,1.9955,2.0113,2.0287,2.4237,2.4228,2.4209,2.4228,2.4209,2.4209,2.4219,2.422,2.422,2.4266,2.4375,2.4548,2.4653,2.4715,2.4713,2.4721,2.4738,2.4787,2.4816,2.4839,2.4888,2.4912,2.4912,2.4922,2.4912,2.4922,2.4922,2.4961,2.5012,2.5025,2.505,2.5121,2.5174,2.52,2.5225,2.5288,2.5313,2.5317,2.5392,2.5021,2.4261,2.4186,2.373,2.2827,2.2802,2.2863,2.273,2.2094,2.1689,2.1604,2.095,2.0534,2.0542,2.0528,2.086,2.1608,2.1682,2.1986,2.2676,2.2841,2.3264,2.4082,2.424,2.4628,2.5437,2.547,2.5452,2.5527,2.5553,2.5569,2.5668,2.5641,2.5573,2.5485,2.5308,2.5126,2.4912,2.467,2.4347,2.3958,2.3631,2.3238,2.2777,2.2295,2.172,2.1007,2.0554,2.0154,1.9899,1.97,1.9505,1.9306,1.9313,1.9413,1.9406,1.9406,1.9406,1.9398,1.9413,1.9413,1.938,1.9387,1.942,1.9354,1.9398,1.9387,1.942,1.9439,1.9442,1.9487,1.9593,1.9665,1.9795,1.9937,2.0121,2.3927,2.3976,2.3967,2.3958,2.3976,2.3996,2.4017,2.4018,2.4075,2.4115,2.4181,2.4275,2.4393,2.4523,2.4528,2.4509,2.4526,2.4643,2.4675,2.4692,2.4749,2.4777,2.4787,2.4777,2.4787,2.4777,2.4777,2.4811,2.4882,2.4926,2.4942,2.4987,2.5006,2.5054,2.5072,2.5112,2.513,2.5176,2.5214,2.5091,2.4812,2.4449,2.3817,2.3055,2.3008,2.3027,2.3016,2.2687,2.2498,2.2494,2.2157,2.1975,2.1976,2.1988,2.2136,2.2485,2.2517,2.2874,2.3713,2.3776,2.4137,2.5014,2.5086,2.5294,2.5639,2.5698,2.57,2.5702,2.5692,2.5693,2.5701,2.564,2.5571,2.5483,2.5322,2.5128,2.4929,2.4618,2.4311,2.3938,2.354,2.3096,2.2537,2.1834,2.115,2.0547,2.0156,1.9874,1.961,1.9406,1.9246,1.9093,1.9052,1.9045,1.9056,1.9037,1.9056,1.9056,1.9045,1.9045,1.9056,1.9037,1.9037,1.9056,1.9075,1.9108,1.9156,1.9216,1.9246,1.931,1.9409,1.952,1.9658,1.9751,1.9894,2.3646,2.3696,2.3718,2.3709,2.3738,2.38,2.3831,2.3854,2.3915,2.3975,2.4016,2.4016,2.4085,2.422,2.4311,2.4347,2.4365,2.4453,2.4505,2.4541,2.4578,2.4627,2.4618,2.4627,2.4618,2.4609,2.4609,2.4668,2.4734,2.4791,2.483,2.484,2.4847,2.4863,2.491,2.4935,2.497,2.5,2.5037,2.5083,2.5076,2.4668,2.4145,2.3638,2.3628,2.3647,2.3644,2.3426,2.3306,2.3331,2.3116,2.2965,2.2965,2.2978,2.3082,2.333,2.3559,2.3963,2.4626,2.4669,2.4924,2.5513,2.5603,2.5634,2.5678,2.5701,2.5695,2.5698,2.5693,2.5699,2.5688,2.5633,2.5565,2.5498,2.5326,2.512,2.491,2.4586,2.4256,2.3879,2.3402,2.2845,2.2147,2.1376,2.0672,2.0224,1.9892,1.9613,1.9362,1.9157,1.8995,1.8922,1.8831,1.8791,1.8803,1.8834,1.8796,1.8796,1.8822,1.8841,1.8796,1.8796,1.8796,1.8917,1.8834,1.8822,1.8939,1.9014,1.9078,1.9205,1.9298,1.9402,1.9487,1.9589,1.9679,2.3407,2.3427,2.3485,2.3508,2.351,2.3594,2.3654,2.3702,2.3774,2.3809,2.3815,2.3824,2.3825,2.3856,2.4075,2.4218,2.4209,2.4294,2.4312,2.433,2.4382,2.4416,2.4425,2.4425,2.4416,2.4407,2.4425,2.4477,2.4607,2.461,2.4648,2.4707,2.4715,2.4706,2.4713,2.4772,2.48,2.4832,2.4875,2.4949,2.499,2.4968,2.4968,2.5014,2.5205,2.5163,2.5131,2.447,2.4086,2.4155,2.3438,2.2989,2.2954,2.2988,2.3372,2.41,2.4881,2.5366,2.5447,2.5473,2.5527,2.5592,2.56,2.5629,2.5691,2.5701,2.5699,2.5694,2.5701,2.5693,2.5699,2.5636,2.5561,2.5499,2.533,2.5141,2.4926,2.4612,2.4211,2.3739,2.3198,2.2472,2.1508,2.0942,2.0461,2.0035,1.965,1.9332,1.912,1.8931,1.8805,1.8731,1.8692,1.8723,1.8772,1.8745,1.8765,1.8765,1.8733,1.8784,1.8796,1.8796,1.8796,1.8777,1.8745,1.8745,1.8777,1.8841,1.8901,1.9021,1.9179,1.9284,1.9376,1.9501,1.9593,2.3061,2.3156,2.3217,2.3256,2.3321,2.338,2.345,2.3501,2.3576,2.36,2.3605,2.3658,2.3669,2.3689,2.3818,2.3924,2.4006,2.4114,2.4181,2.4172,2.4238,2.4266,2.4266,2.4275,2.4284,2.4275,2.4266,2.4312,2.4393,2.441,2.4434,2.4501,2.451,2.4519,2.4519,2.4545,2.4586,2.4678,2.47,2.4738,2.4813,2.4851,2.4911,2.499,2.5158,2.5273,2.5273,2.501,2.4875,2.4918,2.458,2.4458,2.4509,2.451,2.4627,2.4946,2.5313,2.551,2.5551,2.557,2.5602,2.5608,2.5608,2.5639,2.5677,2.5697,2.5696,2.5699,2.5699,2.5693,2.5677,2.5643,2.5573,2.5482,2.5348,2.5165,2.4914,2.4634,2.4265,2.3697,2.288,2.1934,2.1213,2.0597,2.0118,1.969,1.9387,1.9082,1.8793,1.8639,1.8588,1.8466,1.8432,1.8484,1.8604,1.8615,1.862,1.86,1.86,1.86,1.862,1.8632,1.8613,1.8632,1.8632,1.8671,1.869,1.8772,1.8831,1.8953,1.9104,1.9198,1.9291,1.9428,1.952,2.2764,2.2872,2.2936,2.3003,2.3074,2.3135,2.3208,2.328,2.336,2.3404,2.3407,2.3473,2.3505,2.3508,2.3576,2.3658,2.375,2.3913,2.4013,2.4004,2.4045,2.4074,2.4074,2.4074,2.4065,2.4065,2.4084,2.4152,2.421,2.4229,2.4275,2.4338,2.4338,2.4338,2.4338,2.4338,2.44,2.447,2.4532,2.4565,2.4611,2.47,2.4738,2.4766,2.4934,2.5069,2.5132,2.5181,2.5215,2.524,2.5267,2.5297,2.5366,2.536,2.5373,2.54,2.5448,2.5476,2.5494,2.5538,2.5573,2.5597,2.5609,2.562,2.565,2.5689,2.5697,2.5694,2.5695,2.5692,2.5702,2.5668,2.5601,2.5518,2.5406,2.5221,2.4946,2.4669,2.4146,2.3365,2.2401,2.1528,2.0861,2.0317,1.9818,1.9365,1.9094,1.8791,1.8516,1.842,1.8387,1.8276,1.8275,1.8314,1.8407,1.8432,1.8496,1.8503,1.853,1.8498,1.8505,1.8505,1.8505,1.8505,1.8524,1.8563,1.8634,1.8716,1.8812,1.8922,1.8998,1.9093,1.9205,1.9347,1.9439,2.2533,2.2614,2.2681,2.2742,2.2808,2.2872,2.2936,2.3033,2.3126,2.3193,2.3193,2.3265,2.3301,2.3321,2.3372,2.3407,2.3476,2.3667,2.3784,2.3815,2.3812,2.3815,2.3816,2.3825,2.3825,2.3834,2.3867,2.3927,2.3997,2.4064,2.4122,2.418,2.4171,2.4181,2.4181,2.4191,2.422,2.4303,2.4358,2.4393,2.4426,2.4539,2.4597,2.4606,2.4675,2.479,2.4981,2.5,2.5031,2.5088,2.5176,2.5224,2.5282,2.5312,2.5337,2.5379,2.5386,2.5439,2.5501,2.551,2.5547,2.5593,2.5607,2.5602,2.561,2.5662,2.5692,2.5693,2.5695,2.5695,2.5693,2.5699,2.5666,2.5588,2.5472,2.5297,2.5025,2.4676,2.3998,2.2861,2.1931,2.1181,2.059,2.0005,1.9519,1.9131,1.8822,1.8539,1.8338,1.8261,1.8215,1.8196,1.8169,1.8189,1.8221,1.8274,1.8372,1.8438,1.8491,1.8505,1.8505,1.8505,1.8505,1.8505,1.8505,1.8544,1.8563,1.8627,1.8728,1.8831,1.8915,1.9017,1.9142,1.9272,1.9372,2.2231,2.2332,2.2451,2.2525,2.2592,2.2672,2.2729,2.2803,2.2893,2.2914,2.2944,2.3036,2.3123,2.3177,2.3238,2.3289,2.3336,2.343,2.353,2.3641,2.3656,2.37,2.3714,2.3745,2.3754,2.3745,2.3756,2.3798,2.385,2.3881,2.3912,2.3917,2.3927,2.3927,2.3927,2.3968,2.4027,2.4095,2.4162,2.4219,2.4275,2.4348,2.4411,2.4464,2.4477,2.4567,2.4702,2.4806,2.4891,2.497,2.5022,2.5109,2.521,2.5234,2.5272,2.5327,2.5327,2.5392,2.548,2.5513,2.5533,2.559,2.5605,2.5603,2.5602,2.5661,2.5691,2.5696,2.5696,2.5702,2.5699,2.5693,2.5672,2.5603,2.5517,2.5381,2.5072,2.4432,2.356,2.2608,2.1709,2.0951,2.0248,1.9661,1.915,1.8803,1.8526,1.8305,1.8127,1.8062,1.8029,1.7989,1.8022,1.8082,1.8122,1.8202,1.8293,1.8399,1.8452,1.8485,1.8505,1.8505,1.8505,1.8505,1.8505,1.8505,1.8524,1.8556,1.8639,1.8741,1.8836,1.895,1.909,1.9228,1.9347,2.1945,2.2026,2.2155,2.2254,2.2315,2.2415,2.2497,2.2587,2.265,2.2707,2.2742,2.285,2.294,2.2999,2.3061,2.3111,2.3165,2.3147,2.3232,2.3372,2.3462,2.3519,2.3555,2.3564,2.3555,2.3547,2.3578,2.3629,2.3654,2.3685,2.368,2.3685,2.3694,2.3705,2.3727,2.3791,2.3854,2.3924,2.4004,2.4055,2.4096,2.4172,2.4247,2.4294,2.4311,2.4374,2.4497,2.463,2.4747,2.4861,2.4961,2.5057,2.5122,2.5166,2.5213,2.5248,2.5283,2.5356,2.545,2.5484,2.5517,2.556,2.5586,2.5608,2.5608,2.5637,2.5663,2.5701,2.5701,2.5698,2.5699,2.5698,2.5683,2.564,2.5572,2.539,2.5012,2.4225,2.3285,2.2336,2.139,2.0527,1.9727,1.9161,1.8695,1.8397,1.8188,1.8022,1.7875,1.7875,1.7848,1.7855,1.7929,1.7969,1.8043,1.8129,1.8234,1.834,1.8406,1.8459,1.8505,1.8505,1.8505,1.8505,1.8505,1.8505,1.8505,1.851,1.8562,1.8657,1.8803,1.8924,1.9071,1.9258,1.9395,2.1671,2.1701,2.1848,2.1943,2.2007,2.2132,2.2248,2.2363,2.2468,2.2506,2.2601,2.2707,2.2782,2.2803,2.2868,2.291,2.2898,2.2936,2.2974,2.3074,2.3184,2.3289,2.3321,2.3304,2.3313,2.3324,2.336,2.3374,2.3395,2.3459,2.3473,2.3476,2.3496,2.3528,2.3585,2.3645,2.3711,2.3765,2.3842,2.3885,2.3907,2.4006,2.4084,2.4103,2.4144,2.422,2.433,2.4464,2.4599,2.4774,2.4899,2.4968,2.5009,2.5116,2.5185,2.5202,2.5253,2.5308,2.5387,2.545,2.5501,2.5499,2.555,2.5602,2.5611,2.5606,2.5639,2.5677,2.567,2.5683,2.5682,2.5683,2.5684,2.5693,2.5632,2.5389,2.4861,2.4137,2.3258,2.212,2.104,2.001,1.907,1.8518,1.8147,1.7915,1.7747,1.7632,1.7611,1.7638,1.7672,1.7733,1.7835,1.7895,1.7963,1.8123,1.8228,1.8268,1.8373,1.8459,1.8505,1.8505,1.8505,1.8505,1.8505,1.8505,1.8498,1.8491,1.8581,1.8733,1.8848,1.8931,1.909,1.9302,1.9431,2.1433,2.1494,2.1678,2.1753,2.1797,2.1922,2.2003,2.2061,2.2214,2.2313,2.2386,2.2474,2.2574,2.2646,2.2725,2.2777,2.2808,2.2872,2.2889,2.2927,2.2974,2.307,2.3144,2.3147,2.3147,2.316,2.3172,2.3172,2.3163,2.3217,2.322,2.3268,2.3277,2.3304,2.3372,2.3441,2.3499,2.3576,2.3652,2.3741,2.3818,2.385,2.3912,2.3946,2.3978,2.4066,2.4228,2.4412,2.4567,2.4726,2.4746,2.4853,2.4987,2.504,2.5111,2.5191,2.5213,2.5248,2.5322,2.5397,2.544,2.5496,2.5522,2.5541,2.5602,2.5608,2.5615,2.5627,2.5625,2.5632,2.5635,2.5637,2.5623,2.5623,2.5603,2.546,2.5072,2.4456,2.3547,2.223,2.1017,1.9844,1.8752,1.7981,1.7571,1.742,1.7351,1.7337,1.7337,1.7419,1.7467,1.7638,1.7747,1.7828,1.7929,1.8083,1.8202,1.8242,1.8341,1.8478,1.8505,1.8505,1.8505,1.8505,1.8505,1.8505,1.8498,1.8484,1.8651,1.8798,1.8836,1.892,1.9153,1.9365,1.9457,2.1254,2.1294,2.1464,2.1526,2.1549,2.1708,2.1797,2.1848,2.1974,2.2077,2.2157,2.2265,2.2369,2.2474,2.2547,2.2623,2.2681,2.2725,2.2725,2.2747,2.2764,2.2881,2.2974,2.302,2.3003,2.3011,2.3011,2.302,2.3003,2.3011,2.3028,2.3061,2.3074,2.3119,2.316,2.3241,2.3313,2.3372,2.3471,2.3564,2.3623,2.3696,2.3721,2.3789,2.3833,2.3957,2.418,2.4321,2.4456,2.4589,2.4668,2.4763,2.4879,2.4966,2.5037,2.5125,2.5166,2.5215,2.5293,2.5351,2.5392,2.5458,2.5476,2.5499,2.555,2.5561,2.5567,2.5565,2.5565,2.5573,2.5603,2.5607,2.5582,2.5557,2.555,2.5476,2.5247,2.471,2.3759,2.2477,2.1167,1.9829,1.845,1.7632,1.7131,1.6886,1.6816,1.6899,1.703,1.7156,1.7281,1.7447,1.7645,1.7726,1.7815,1.7996,1.8129,1.8169,1.8275,1.8413,1.8485,1.8485,1.8505,1.8505,1.8505,1.8498,1.8491,1.8523,1.8671,1.8786,1.8831,1.8984,1.9216,1.9395,1.9487,2.107,2.1087,2.1215,2.127,2.1317,2.1481,2.1612,2.1663,2.1753,2.1842,2.193,2.2092,2.2186,2.2268,2.2341,2.2427,2.2474,2.2515,2.252,2.2547,2.2592,2.2707,2.2808,2.2864,2.2859,2.2868,2.2859,2.2846,2.2833,2.2846,2.2859,2.2872,2.2872,2.291,2.2986,2.3049,2.3119,2.3205,2.331,2.3372,2.3418,2.3505,2.3564,2.3632,2.377,2.3905,2.4074,2.4181,2.4266,2.4456,2.4596,2.4686,2.4732,2.4882,2.4972,2.5032,2.5109,2.5181,2.5263,2.5288,2.5317,2.5395,2.5448,2.5482,2.5505,2.5527,2.5525,2.5528,2.5515,2.5528,2.5573,2.5585,2.5555,2.5494,2.5491,2.542,2.5243,2.4877,2.4106,2.2846,2.1542,2.0071,1.867,1.7525,1.6774,1.6481,1.6389,1.6479,1.6663,1.6806,1.6996,1.7205,1.7426,1.7645,1.7754,1.7882,1.7989,1.8088,1.8195,1.8327,1.842,1.8439,1.8485,1.8505,1.8505,1.8498,1.8491,1.8581,1.8697,1.8805,1.8882,1.9071,1.9284,1.9424,1.9552,2.0909,2.0958,2.1095,2.1143,2.1175,2.131,2.1364,2.1411,2.1573,2.1671,2.1761,2.1848,2.193,2.1986,2.2155,2.224,2.2276,2.2355,2.2446,2.2492,2.2497,2.2533,2.2592,2.2632,2.2659,2.2659,2.2614,2.2601,2.2601,2.2627,2.2619,2.2672,2.2733,2.2786,2.2842,2.2898,2.2974,2.3045,2.3123,2.3184,2.3253,2.3333,2.3427,2.3539,2.3694,2.3815,2.3905,2.4045,2.4171,2.4294,2.4429,2.4582,2.4676,2.4738,2.4844,2.4965,2.5016,2.5081,2.5191,2.5257,2.5303,2.5327,2.5382,2.5459,2.5501,2.5499,2.5503,2.5511,2.5509,2.5508,2.552,2.552,2.549,2.5432,2.5368,2.5304,2.5183,2.4928,2.432,2.3386,2.2176,2.0725,1.9167,1.7908,1.7075,1.6308,1.6082,1.6078,1.6269,1.6522,1.6714,1.692,1.7184,1.7426,1.759,1.774,1.7875,1.7989,1.8115,1.8234,1.8314,1.838,1.842,1.8459,1.8505,1.8498,1.8484,1.8608,1.8743,1.8843,1.895,1.9157,1.935,1.949,1.9672,2.0719,2.0811,2.0909,2.0982,2.1022,2.1151,2.1215,2.1231,2.1365,2.1442,2.151,2.1579,2.1685,2.1827,2.1945,2.2032,2.2089,2.2152,2.2231,2.2282,2.2318,2.2369,2.2405,2.2438,2.2479,2.252,2.252,2.2492,2.2501,2.2501,2.2542,2.2547,2.2596,2.2627,2.2659,2.2738,2.2782,2.2855,2.2923,2.2986,2.3061,2.316,2.3313,2.3473,2.3614,2.3694,2.3801,2.3904,2.3996,2.4114,2.4257,2.4429,2.4599,2.4659,2.478,2.4877,2.4972,2.5028,2.5133,2.5212,2.5267,2.5303,2.5327,2.5378,2.5432,2.5454,2.5452,2.5463,2.5457,2.5463,2.5451,2.5448,2.5423,2.5355,2.5259,2.5145,2.5036,2.4936,2.4625,2.3871,2.2954,2.1748,2.0378,1.896,1.795,1.7411,1.6357,1.6293,1.6182,1.6392,1.6479,1.6665,1.6947,1.7184,1.7399,1.7577,1.776,1.7882,1.7996,1.8109,1.8208,1.8294,1.8347,1.8386,1.8425,1.8464,1.8477,1.862,1.8781,1.8915,1.9059,1.9269,1.9446,1.961,1.9815,2.056,2.0668,2.0719,2.0803,2.0893,2.0998,2.1062,2.1079,2.1159,2.1231,2.127,2.1332,2.148,2.1617,2.17,2.1789,2.1884,2.1949,2.2007,2.2027,2.2147,2.2198,2.2234,2.224,2.229,2.2407,2.2432,2.2441,2.2432,2.2446,2.2388,2.2429,2.2451,2.2479,2.2492,2.2552,2.2627,2.2694,2.2742,2.2808,2.2872,2.2999,2.316,2.336,2.3476,2.3567,2.368,2.3768,2.3834,2.3966,2.4094,2.4247,2.442,2.459,2.4709,2.4791,2.4892,2.4988,2.5073,2.5146,2.5206,2.5283,2.5283,2.5322,2.5384,2.5387,2.5391,2.5401,2.5409,2.5401,2.5378,2.5374,2.5351,2.5282,2.5162,2.5003,2.4871,2.49,2.4616,2.4248,2.3568,2.2607,2.1603,2.0408,1.9435,1.8426,1.7391,1.6629,1.6585,1.6404,1.6563,1.6466,1.668,1.6968,1.7184,1.7405,1.7604,1.7666,1.7801,1.7909,1.8002,1.8049,1.8109,1.8286,1.8345,1.8385,1.8509,1.8671,1.8839,1.8979,1.9198,1.9406,1.9581,1.9726,1.9957,2.0475,2.0535,2.0536,2.0611,2.0744,2.0834,2.0884,2.0942,2.1054,2.1119,2.1135,2.1215,2.127,2.1379,2.1441,2.1563,2.17,2.1804,2.1846,2.1897,2.1986,2.2038,2.2044,2.2044,2.2081,2.211,2.2186,2.224,2.2223,2.2147,2.2189,2.2245,2.2293,2.2344,2.2405,2.2474,2.2492,2.2542,2.2592,2.2667,2.2738,2.2833,2.2974,2.3175,2.3316,2.3441,2.353,2.3609,2.3691,2.3825,2.3916,2.4065,2.4247,2.4429,2.4583,2.4703,2.478,2.4884,2.5,2.5079,2.5156,2.5195,2.522,2.5248,2.5303,2.5322,2.5332,2.5364,2.5374,2.536,2.5303,2.5312,2.5281,2.521,2.51,2.4955,2.4825,2.4714,2.4648,2.4391,2.395,2.3521,2.2556,2.1693,2.0836,1.9887,1.8973,1.8244,1.7967,1.7398,1.691,1.6689,1.6432,1.6708,1.6954,1.7197,1.7391,1.7432,1.7515,1.757,1.7645,1.7727,1.7841,1.8108,1.8299,1.8392,1.8528,1.8728,1.8927,1.9085,1.9321,1.9552,1.9762,1.995,2.0125,2.039,2.0433,2.0441,2.0509,2.0586,2.0636,2.0703,2.0786,2.0875,2.0924,2.0982,2.1031,2.1095,2.1183,2.1262,2.1395,2.1526,2.1656,2.1708,2.1753,2.1783,2.1827,2.1832,2.1855,2.1861,2.1884,2.1924,2.2013,2.2092,2.2036,2.2038,2.2067,2.2118,2.2161,2.2203,2.22,2.2296,2.2369,2.2432,2.2501,2.2601,2.2685,2.2846,2.3036,2.3168,2.3277,2.3348,2.3494,2.3576,2.3651,2.378,2.3925,2.4065,2.4228,2.443,2.4574,2.467,2.4764,2.4896,2.4982,2.5057,2.5094,2.5163,2.5213,2.5241,2.5253,2.5259,2.5279,2.5303,2.5288,2.5248,2.5255,2.5216,2.5152,2.5032,2.4916,2.4789,2.4643,2.4554,2.4492,2.4248,2.3879,2.3505,2.2724,2.2094,2.1319,2.0491,1.9913,1.9388,1.8649,1.7896,1.7496,1.7223,1.6884,1.7049,1.7067,1.7183,1.719,1.7177,1.7234,1.7379,1.7495,1.7754,1.8042,1.8208,1.8352,1.86,1.8807,1.901,1.9202,1.9461,1.9708,1.9975,2.0185,2.0375,2.0304,2.0381,2.0371,2.0423,2.0467,2.0484,2.0552,2.0644,2.0676,2.0719,2.0811,2.0852,2.0933,2.1046,2.1143,2.1254,2.1348,2.1458,2.1511,2.1542,2.1573,2.1612,2.1672,2.1702,2.1724,2.1746,2.1723,2.1774,2.1907,2.189,2.1926,2.1949,2.1963,2.1984,2.2027,2.2041,2.211,2.2192,2.2243,2.2313,2.246,2.2601,2.2756,2.2914,2.302,2.3103,2.3205,2.3304,2.3439,2.3524,2.3649,2.3792,2.3905,2.4035,2.4219,2.4411,2.4512,2.4627,2.4757,2.4879,2.4952,2.4961,2.5095,2.5149,2.517,2.5179,2.5212,2.5206,2.5216,2.5225,2.5209,2.5185,2.5152,2.5082,2.4983,2.4882,2.4776,2.4643,2.4495,2.4444,2.4417,2.4202,2.3797,2.367,2.3015,2.2622,2.1819,2.1292,2.0743,2.0022,1.931,1.8743,1.8205,1.7471,1.7219,1.6994,1.7018,1.6958,1.6876,1.685,1.7067,1.7288,1.7584,1.7861,1.8135,1.8307,1.8595,1.891,1.9142,1.935,1.9599,1.9861,2.0143,2.0393,2.0613,2.0187,2.0312,2.0329,2.0339,2.0405,2.0398,2.045,2.0535,2.0527,2.052,2.0587,2.0669,2.076,2.0859,2.1038,2.1103,2.1159,2.1231,2.1302,2.1341,2.1395,2.1465,2.1589,2.162,2.1574,2.1581,2.1573,2.1649,2.1701,2.1679,2.1731,2.1789,2.1834,2.1869,2.194,2.1934,2.2036,2.21,2.2067,2.2124,2.2313,2.2515,2.2649,2.2733,2.2816,2.2919,2.307,2.316,2.3274,2.3471,2.3508,2.3638,2.3773,2.3816,2.3977,2.4191,2.4384,2.4541,2.4641,2.4751,2.4832,2.4854,2.4963,2.5009,2.5056,2.5116,2.5172,2.5208,2.5202,2.5201,2.5187,2.5133,2.5069,2.5022,2.4959,2.487,2.4772,2.4695,2.4539,2.4409,2.4385,2.4289,2.4044,2.405,2.3962,2.3595,2.3182,2.2617,2.2033,2.1267,2.0477,1.9825,1.939,1.8703,1.8087,1.7737,1.7343,1.7108,1.6759,1.664,1.682,1.7101,1.7317,1.7598,1.7935,1.8399,1.8793,1.9097,1.9276,1.9545,1.9833,2.0073,2.0325,2.0596,2.0877,2.0018,2.0123,2.0183,2.021,2.0227,2.0304,2.0381,2.0424,2.0441,2.0467,2.0494,2.0544,2.0603,2.0678,2.0851,2.0941,2.0949,2.1054,2.1151,2.1159,2.1215,2.1246,2.131,2.1326,2.1318,2.1334,2.131,2.131,2.1388,2.1535,2.1634,2.1664,2.1686,2.1709,2.1773,2.1766,2.1819,2.1892,2.1972,2.2104,2.2274,2.2394,2.2496,2.2587,2.2677,2.2782,2.2885,2.3045,2.3135,2.3301,2.3383,2.353,2.3649,2.3728,2.3867,2.3957,2.4171,2.4348,2.4542,2.4623,2.4686,2.4744,2.4832,2.4907,2.499,2.5047,2.5103,2.5144,2.515,2.5154,2.5141,2.5076,2.5051,2.4999,2.4922,2.4863,2.4789,2.4718,2.4599,2.447,2.4347,2.4275,2.4174,2.4051,2.397,2.374,2.3575,2.3371,2.289,2.2355,2.1545,2.073,2.0385,2.0014,1.9394,1.8906,1.8346,1.7916,1.6977,1.6865,1.6729,1.6897,1.713,1.7591,1.8096,1.8549,1.8995,1.9284,1.9476,1.9769,2.0063,2.035,2.0621,2.0901,2.119,1.9777,1.9917,2.0035,2.008,2.0073,2.0183,2.0252,2.0329,2.0321,2.0373,2.0433,2.0467,2.0477,2.0527,2.0645,2.0736,2.0745,2.0892,2.0981,2.0998,2.103,2.1078,2.1127,2.1119,2.1119,2.1087,2.1135,2.1143,2.1199,2.1318,2.1459,2.1512,2.152,2.155,2.1557,2.1595,2.1686,2.1789,2.189,2.2023,2.2172,2.2262,2.2344,2.2446,2.2547,2.2637,2.2716,2.2859,2.2977,2.3139,2.3268,2.3404,2.353,2.3618,2.3739,2.3842,2.3985,2.4133,2.4312,2.4446,2.4556,2.4645,2.4729,2.4816,2.4922,2.4972,2.5015,2.5076,2.5086,2.5079,2.5073,2.5015,2.5012,2.4963,2.4875,2.4842,2.4791,2.4728,2.4666,2.4592,2.4463,2.4358,2.422,2.4018,2.3886,2.3786,2.3814,2.39,2.3585,2.3106,2.2668,2.1866,2.1629,2.1289,2.069,2.0101,1.9506,1.8808,1.7881,1.7175,1.7111,1.6931,1.6962,1.7509,1.8202,1.8755,1.9243,1.9468,1.9702,2.0045,2.0393,2.0671,2.0966,2.1246,2.1525,1.9501,1.9647,1.9891,1.9998,2.0015,2.0015,2.0061,2.0133,2.0133,2.021,2.0314,2.0373,2.0441,2.0494,2.051,2.0544,2.0544,2.0536,2.0662,2.0778,2.0827,2.0908,2.0965,2.1022,2.1038,2.1046,2.1006,2.1014,2.107,2.1038,2.1175,2.1231,2.1302,2.1364,2.1426,2.1488,2.1565,2.1663,2.1774,2.1855,2.1974,2.21,2.2225,2.231,2.2399,2.2492,2.2685,2.2751,2.2846,2.3036,2.3135,2.3244,2.3407,2.3501,2.3603,2.3734,2.38,2.3926,2.4076,2.4257,2.4393,2.4507,2.4613,2.4721,2.4817,2.4873,2.4931,2.4996,2.4988,2.4999,2.4996,2.4993,2.4963,2.4929,2.4863,2.4829,2.4795,2.4743,2.4699,2.4667,2.4585,2.4474,2.4367,2.4172,2.3927,2.3808,2.366,2.3731,2.3863,2.3551,2.3536,2.3165,2.2946,2.2545,2.1934,2.1375,2.0884,2.0116,1.9204,1.8281,1.7619,1.7404,1.7369,1.7612,1.8331,1.8895,1.9504,1.9932,2.0289,2.0461,2.0713,2.1047,2.1377,2.1713,2.1959,1.9446,1.9494,1.9578,1.9738,1.9876,1.9962,2.0008,2.0035,2.0043,2.0088,2.0185,2.0287,2.0339,2.039,2.0432,2.0441,2.0441,2.0477,2.0553,2.0587,2.0645,2.0669,2.0735,2.0768,2.0735,2.0752,2.0752,2.0727,2.0703,2.0785,2.0736,2.0811,2.1038,2.1167,2.1254,2.1341,2.1411,2.148,2.161,2.1723,2.1825,2.1901,2.2042,2.2242,2.231,2.2391,2.2497,2.2624,2.2742,2.2872,2.2999,2.3126,2.3268,2.336,2.3485,2.3609,2.3649,2.3747,2.3895,2.4104,2.4321,2.4464,2.4556,2.4621,2.4704,2.4755,2.4809,2.4856,2.4889,2.4894,2.4884,2.4875,2.487,2.4865,2.4853,2.4826,2.4789,2.4745,2.4714,2.4673,2.4651,2.4585,2.4482,2.4358,2.4086,2.3855,2.3687,2.3588,2.3737,2.384,2.3754,2.3782,2.3558,2.3574,2.3026,2.2623,2.225,2.1429,2.0544,1.9663,1.883,1.837,1.8361,1.8429,1.8622,1.9376,2.0047,2.0562,2.0836,2.0918,2.1166,2.1461,2.1809,2.2158,2.2352,1.925,1.9302,1.9313,1.945,1.9687,1.982,1.9884,1.9917,1.9927,2.0,2.0108,2.021,2.027,2.0287,2.0346,2.0388,2.0381,2.0407,2.0433,2.0475,2.0492,2.0484,2.0501,2.0535,2.0569,2.0518,2.0518,2.0527,2.0544,2.0518,2.0544,2.0636,2.076,2.09,2.1038,2.1151,2.1238,2.1324,2.1426,2.1596,2.1708,2.1789,2.1848,2.2065,2.2149,2.2265,2.2355,2.2479,2.2592,2.2738,2.2859,2.3003,2.3123,2.3229,2.3345,2.3436,2.3519,2.362,2.3766,2.4005,2.4237,2.4367,2.4419,2.4506,2.4589,2.4638,2.4678,2.4768,2.478,2.4785,2.4793,2.4824,2.4827,2.4829,2.4834,2.4806,2.4772,2.4742,2.4718,2.4678,2.4665,2.4651,2.4585,2.4465,2.4219,2.3948,2.3742,2.3644,2.3681,2.3748,2.3744,2.3821,2.3885,2.3993,2.4072,2.3625,2.3202,2.2849,2.1982,2.1163,2.0425,1.9881,1.9383,1.9339,1.9612,2.0111,2.0643,2.1243,2.1361,2.1338,2.165,2.2039,2.2287,2.2606,2.2659,1.895,1.9108,1.9094,1.9221,1.942,1.9564,1.9658,1.9733,1.9795,1.9922,2.0055,2.009,2.0185,2.0252,2.0287,2.0304,2.0329,2.0321,2.0339,2.0398,2.0415,2.0424,2.0443,2.0477,2.0467,2.0501,2.046,2.0426,2.046,2.0433,2.045,2.0477,2.0544,2.0653,2.081,2.1006,2.1159,2.127,2.1294,2.1427,2.1581,2.1686,2.1744,2.1869,2.1957,2.2089,2.2234,2.2335,2.246,2.2614,2.272,2.2859,2.3024,2.3082,2.318,2.3289,2.3404,2.3485,2.3542,2.3902,2.4093,2.4209,2.4275,2.4375,2.4454,2.4505,2.4565,2.4666,2.469,2.472,2.476,2.48,2.4787,2.4795,2.4791,2.4783,2.4759,2.4732,2.47,2.4692,2.4687,2.4674,2.4651,2.4559,2.4321,2.4077,2.3838,2.3733,2.3751,2.3764,2.381,2.3846,2.3989,2.4034,2.414,2.4358,2.417,2.3889,2.3386,2.252,2.1855,2.1298,2.0852,2.046,2.0675,2.1198,2.1576,2.1972,2.2091,2.2243,2.2353,2.2651,2.2863,2.2999,2.3036,1.8841,1.8905,1.8898,1.8995,1.9149,1.9365,1.9531,1.9647,1.9741,1.9833,1.9904,1.999,2.0063,2.015,2.0185,2.021,2.0295,2.0287,2.0329,2.0329,2.0329,2.0339,2.0357,2.0348,2.0373,2.0331,2.0289,2.0247,2.0222,2.0245,2.0227,2.0229,2.0365,2.0492,2.0636,2.0794,2.0933,2.0982,2.1095,2.1231,2.1396,2.1472,2.157,2.1758,2.1817,2.1943,2.2095,2.2178,2.2321,2.2482,2.2582,2.2738,2.2859,2.2898,2.3033,2.3144,2.3241,2.3324,2.3462,2.3709,2.385,2.4004,2.4152,2.4238,2.4303,2.4384,2.4482,2.4551,2.4566,2.4597,2.4655,2.4663,2.467,2.4712,2.4722,2.4737,2.4728,2.4709,2.469,2.469,2.4693,2.4689,2.4666,2.4626,2.4436,2.433,2.4126,2.3999,2.3988,2.3977,2.3979,2.3938,2.3992,2.4001,2.41,2.4354,2.4566,2.4362,2.4146,2.3766,2.317,2.2649,2.2263,2.1846,2.2059,2.2309,2.2532,2.2772,2.3067,2.3239,2.32,2.3152,2.3253,2.3319,2.3316,1.8625,1.8702,1.869,1.8786,1.896,1.9191,1.9395,1.9593,1.9694,1.9759,1.9797,1.9902,1.999,2.0053,2.0088,2.0088,2.0216,2.0191,2.0191,2.0208,2.02,2.0183,2.0175,2.02,2.0191,2.0166,2.0123,2.0063,2.008,2.0051,2.0043,2.0113,2.0225,2.0296,2.0418,2.0553,2.0745,2.0827,2.0957,2.1063,2.1207,2.1309,2.141,2.1555,2.1676,2.1781,2.1913,2.2055,2.218,2.2316,2.2455,2.2592,2.2663,2.276,2.2885,2.297,2.3095,2.3205,2.3392,2.3528,2.3667,2.3797,2.3974,2.4094,2.4163,2.4257,2.433,2.4375,2.441,2.4479,2.4531,2.454,2.4592,2.4634,2.4657,2.4673,2.4706,2.4695,2.4692,2.4692,2.469,2.4686,2.4681,2.4639,2.4547,2.4488,2.4418,2.4321,2.422,2.4201,2.4182,2.4163,2.4154,2.4211,2.4275,2.4386,2.4586,2.4753,2.4634,2.4457,2.4413,2.3893,2.3566,2.3269,2.3308,2.3346,2.3408,2.3592,2.3759,2.3816,2.3784,2.3727,2.3685,2.3651,2.3629,1.8321,1.8478,1.8505,1.8613,1.881,1.9033,1.931,1.9574,1.9593,1.9676,1.978,1.9805,1.9876,1.998,1.9998,2.0015,2.0041,2.0041,2.0041,2.0041,2.0051,2.0025,2.0033,2.0033,2.0051,2.0015,1.999,1.9965,1.9998,1.9962,1.998,2.0008,2.0071,2.0133,2.0212,2.035,2.0561,2.0678,2.081,2.0916,2.1054,2.1175,2.1269,2.1394,2.1503,2.1648,2.1768,2.1865,2.2005,2.2166,2.231,2.241,2.2525,2.2637,2.2716,2.2829,2.2995,2.3144,2.3277,2.3404,2.3473,2.3589,2.3714,2.3865,2.4017,2.4133,2.419,2.4238,2.4275,2.4357,2.4437,2.4472,2.4516,2.4558,2.4581,2.4623,2.4674,2.4681,2.4695,2.4693,2.4682,2.4684,2.4687,2.4655,2.4638,2.4639,2.4589,2.4546,2.4461,2.4418,2.441,2.4418,2.4426,2.4469,2.4536,2.4575,2.4682,2.4859,2.4976,2.489,2.4941,2.4951,2.4557,2.4274,2.434,2.4338,2.4199,2.4207,2.4316,2.4344,2.4273,2.4137,2.404,2.396,2.3939,1.8101,1.8175,1.8292,1.8431,1.8613,1.8889,1.9186,1.9439,1.9564,1.9658,1.9718,1.9726,1.978,1.9858,1.9841,1.9902,1.9962,1.9998,1.9998,1.998,1.9962,1.998,1.998,1.998,1.998,1.9962,1.9919,1.9884,1.9874,1.9866,1.9858,1.9858,1.9965,2.0008,2.0071,2.0168,2.034,2.0501,2.0652,2.0768,2.0876,2.0982,2.1111,2.1246,2.1364,2.1488,2.1619,2.1746,2.188,2.1938,2.2143,2.2285,2.2372,2.246,2.2533,2.2725,2.2881,2.302,2.3123,2.3196,2.3277,2.3404,2.3533,2.3673,2.3833,2.3955,2.4035,2.4086,2.4153,2.4238,2.4303,2.4358,2.4411,2.4454,2.4497,2.4558,2.4609,2.465,2.4657,2.4687,2.4686,2.4692,2.4686,2.4693,2.4686,2.4728,2.4736,2.47,2.4667,2.4611,2.4613,2.4613,2.4643,2.4682,2.4725,2.4768,2.4854,2.4968,2.508,2.5186,2.522,2.5213,2.5215,2.5118,2.4929,2.4855,2.4803,2.4802,2.4735,2.4744,2.4682,2.4532,2.4389,2.431,2.4248,1.7875,1.7962,1.8088,1.8281,1.8544,1.8807,1.9066,1.9291,1.9457,1.9585,1.9661,1.9697,1.9708,1.9762,1.9762,1.978,1.9858,1.9858,1.9858,1.9858,1.9902,1.9876,1.9876,1.9884,1.9874,1.9848,1.9823,1.978,1.9777,1.9769,1.9762,1.978,1.9891,1.9909,1.9947,2.0035,2.0141,2.0304,2.0458,2.0586,2.0695,2.0803,2.0958,2.1079,2.1175,2.1349,2.1473,2.1602,2.1685,2.1766,2.2003,2.2083,2.2186,2.2299,2.2451,2.2632,2.2756,2.2868,2.297,2.3036,2.3135,2.3253,2.3357,2.3467,2.3618,2.3768,2.3864,2.3947,2.4026,2.4094,2.4162,2.421,2.4284,2.4366,2.442,2.4473,2.4534,2.4584,2.4634,2.4674,2.4696,2.4684,2.47,2.4707,2.474,2.4766,2.4789,2.4778,2.4751,2.4729,2.4738,2.477,2.4815,2.4858,2.4896,2.4945,2.5022,2.5107,2.5202,2.5312,2.5405,2.5439,2.5413,2.5386,2.5337,2.5242,2.5138,2.5096,2.5039,2.5031,2.4997,2.4876,2.4725,2.4615,2.4552,1.7611,1.7842,1.7889,1.8129,1.8491,1.8683,1.8893,1.9094,1.9284,1.945,1.9585,1.9661,1.9697,1.97,1.9733,1.9715,1.9751,1.9751,1.9769,1.9718,1.9751,1.9751,1.9751,1.9715,1.9777,1.9741,1.9715,1.9726,1.9715,1.9733,1.9726,1.9718,1.9762,1.9797,1.9815,1.9912,2.0008,2.0088,2.0262,2.0416,2.0527,2.0654,2.0786,2.086,2.1014,2.1183,2.1278,2.1387,2.1518,2.1676,2.1796,2.1863,2.2009,2.2192,2.2374,2.2497,2.2597,2.2712,2.2803,2.2876,2.2974,2.3074,2.3135,2.3256,2.3412,2.3614,2.3736,2.3801,2.3882,2.3954,2.4015,2.4084,2.4162,2.4219,2.4275,2.4339,2.4411,2.4481,2.4583,2.4624,2.469,2.4687,2.4703,2.4728,2.4738,2.478,2.4811,2.4815,2.4834,2.4818,2.4851,2.4906,2.4959,2.5005,2.5038,2.5081,2.5168,2.5253,2.5327,2.5403,2.5491,2.5549,2.5601,2.555,2.5498,2.547,2.5389,2.532,2.525,2.5215,2.5188,2.5165,2.5068,2.4922,2.4825,1.7317,1.7385,1.7754,1.8089,1.8352,1.8516,1.869,1.8879,1.909,1.9347,1.9556,1.9611,1.9643,1.969,1.9715,1.9715,1.9715,1.9715,1.9715,1.9715,1.9715,1.9715,1.9715,1.9715,1.9715,1.9715,1.9715,1.9715,1.9715,1.9715,1.9715,1.9715,1.9733,1.9726,1.9736,1.9823,1.9876,1.993,2.0063,2.0245,2.039,2.0518,2.0628,2.0745,2.0901,2.1006,2.1119,2.1262,2.1324,2.1425,2.158,2.1716,2.184,2.2083,2.2251,2.2358,2.2429,2.2542,2.2641,2.2716,2.2808,2.2898,2.2974,2.3082,2.3229,2.3441,2.3578,2.3656,2.3723,2.3798,2.3861,2.3944,2.4015,2.4066,2.4134,2.421,2.4275,2.4384,2.4507,2.4592,2.4667,2.4691,2.4707,2.4728,2.4746,2.4776,2.4807,2.4827,2.4908,2.4929,2.4938,2.4998,2.5085,2.5134,2.5166,2.5204,2.5273,2.5341,2.5411,2.5497,2.5579,2.5613,2.5645,2.5652,2.5628,2.5578,2.553,2.5483,2.5421,2.5375,2.5337,2.5302,2.5274,2.5153,2.5062,1.7122,1.7268,1.7693,1.7969,1.8169,1.8393,1.8562,1.869,1.8946,1.9179,1.9391,1.952,1.9603,1.9669,1.9697,1.9715,1.9715,1.9715,1.9715,1.9715,1.9715,1.9715,1.9715,1.9715,1.9715,1.9715,1.9715,1.9715,1.9715,1.9715,1.9715,1.9715,1.9715,1.9715,1.9726,1.9744,1.978,1.9815,1.9932,2.0071,2.025,2.0381,2.0492,2.0618,2.0744,2.0843,2.0957,2.1103,2.123,2.1333,2.152,2.1671,2.1789,2.1922,2.2061,2.2169,2.2276,2.2394,2.2465,2.2538,2.2632,2.2725,2.2795,2.2893,2.2982,2.3184,2.3369,2.3453,2.3542,2.3609,2.3709,2.3786,2.3863,2.3926,2.3997,2.4085,2.4182,2.4284,2.4411,2.4533,2.4602,2.4635,2.4658,2.4703,2.4729,2.4789,2.4803,2.4875,2.4954,2.5015,2.5024,2.5057,2.5144,2.5214,2.5243,2.5292,2.5351,2.5426,2.5479,2.5547,2.5612,2.5662,2.5692,2.5681,2.5675,2.565,2.5609,2.5566,2.554,2.5496,2.5466,2.5429,2.5391,2.5364,2.5269,1.6981,1.7247,1.7645,1.7855,1.7929,1.8275,1.8445,1.8556,1.8827,1.901,1.9134,1.9409,1.9545,1.9585,1.9643,1.9672,1.9682,1.969,1.9708,1.9715,1.9715,1.9715,1.9715,1.9715,1.9715,1.9715,1.9715,1.9715,1.9715,1.9715,1.9715,1.9715,1.9715,1.9715,1.9715,1.9708,1.9736,1.978,1.9833,1.9876,2.0033,2.0241,2.0354,2.0466,2.0594,2.0728,2.0819,2.0941,2.1111,2.1254,2.1403,2.1549,2.1663,2.1744,2.1869,2.1972,2.2098,2.2209,2.2285,2.2388,2.2479,2.2569,2.2627,2.2699,2.2782,2.2919,2.3107,2.3226,2.331,2.3436,2.353,2.3632,2.3703,2.3771,2.3864,2.3966,2.4085,2.4172,2.4312,2.4456,2.4517,2.456,2.4608,2.4662,2.4723,2.4781,2.4842,2.491,2.4977,2.5024,2.5057,2.5095,2.5152,2.5221,2.5286,2.5341,2.5387,2.5455,2.5508,2.5586,2.5642,2.568,2.5697,2.5693,2.5688,2.5676,2.5672,2.5636,2.5619,2.56,2.5576,2.5543,2.5489,2.5457,2.5438,1.6842,1.7226,1.7309,1.7536,1.7882,1.8042,1.8247,1.8517,1.8673,1.8846,1.9017,1.9142,1.9284,1.9431,1.9567,1.9614,1.9607,1.9636,1.969,1.9715,1.9705,1.9705,1.9715,1.9715,1.9715,1.9715,1.9715,1.9715,1.9715,1.9715,1.9715,1.9715,1.9715,1.9715,1.9715,1.9715,1.9726,1.9744,1.9762,1.9823,1.9869,2.0035,2.0202,2.0314,2.0423,2.0509,2.0594,2.0745,2.0851,2.0982,2.1199,2.134,2.1464,2.1556,2.1693,2.1804,2.1932,2.1997,2.2089,2.222,2.2313,2.2377,2.2451,2.256,2.2641,2.272,2.2864,2.2953,2.3057,2.3241,2.3348,2.3471,2.3555,2.3627,2.3705,2.3854,2.3987,2.4095,2.4209,2.4321,2.4402,2.4464,2.4542,2.4599,2.4696,2.474,2.4789,2.4858,2.4947,2.5008,2.5086,2.5132,2.517,2.5238,2.5296,2.5351,2.54,2.5464,2.5538,2.56,2.5646,2.568,2.5701,2.5701,2.5693,2.569,2.5684,2.5677,2.5668,2.5657,2.5671,2.565,2.5595,2.5559,2.5538]}]]